<?xml version="1.0" encoding="UTF-8" standalone="no" ?>
<gpx xmlns="http://www.topografix.com/GPX/1/1" xmlns:xsi="http://www.w3.org/2001/XMLSchema-instance" xsi:schemaLocation="http://www.topografix.com/GPX/1/1 http://www.topografix.com/GPX/1/1/gpx.xsd" version="1.1" creator="VisuGPX - https://www.visugpx.com">
  <metadata>
    <name>Cyclo - Jura Suisse et Français 2eme jour</name>
    <desc><![CDATA[la suite...]]></desc>
  </metadata>
  <trk>
    <name><![CDATA[22-JUIL-15 14:42:45]]></name>
    <trkseg>
      <trkpt lat="46.65506" lon="6.06689">
        <ele>846.1</ele>
        <time>2015-07-22T05:49:23Z</time>
      </trkpt>
      <trkpt lat="46.65511" lon="6.06686">
        <ele>845.62</ele>
        <time>2015-07-22T05:49:32Z</time>
      </trkpt>
      <trkpt lat="46.65506" lon="6.06683">
        <ele>850.9</ele>
        <time>2015-07-22T05:49:42Z</time>
      </trkpt>
      <trkpt lat="46.65506" lon="6.06684">
        <ele>854.75</ele>
        <time>2015-07-22T05:49:47Z</time>
      </trkpt>
      <trkpt lat="46.65506" lon="6.06684">
        <ele>858.11</ele>
        <time>2015-07-22T05:49:49Z</time>
      </trkpt>
      <trkpt lat="46.65508" lon="6.06685">
        <ele>857.15</ele>
        <time>2015-07-22T05:49:50Z</time>
      </trkpt>
      <trkpt lat="46.65515" lon="6.0668">
        <ele>845.62</ele>
        <time>2015-07-22T06:00:00Z</time>
      </trkpt>
      <trkpt lat="46.65515" lon="6.0668">
        <ele>845.62</ele>
        <time>2015-07-22T06:00:01Z</time>
      </trkpt>
      <trkpt lat="46.65524" lon="6.06687">
        <ele>845.62</ele>
        <time>2015-07-22T06:00:06Z</time>
      </trkpt>
      <trkpt lat="46.65528" lon="6.06703">
        <ele>849.46</ele>
        <time>2015-07-22T06:00:17Z</time>
      </trkpt>
      <trkpt lat="46.65534" lon="6.06715">
        <ele>852.35</ele>
        <time>2015-07-22T06:00:24Z</time>
      </trkpt>
      <trkpt lat="46.65537" lon="6.06734">
        <ele>855.71</ele>
        <time>2015-07-22T06:00:37Z</time>
      </trkpt>
      <trkpt lat="46.65537" lon="6.06734">
        <ele>856.19</ele>
        <time>2015-07-22T06:00:39Z</time>
      </trkpt>
      <trkpt lat="46.65534" lon="6.06737">
        <ele>856.67</ele>
        <time>2015-07-22T06:00:42Z</time>
      </trkpt>
      <trkpt lat="46.65531" lon="6.06758">
        <ele>857.63</ele>
        <time>2015-07-22T06:00:51Z</time>
      </trkpt>
      <trkpt lat="46.65557" lon="6.06799">
        <ele>859.08</ele>
        <time>2015-07-22T06:01:05Z</time>
      </trkpt>
      <trkpt lat="46.65587" lon="6.06845">
        <ele>860.52</ele>
        <time>2015-07-22T06:01:20Z</time>
      </trkpt>
      <trkpt lat="46.65619" lon="6.069">
        <ele>861.48</ele>
        <time>2015-07-22T06:01:36Z</time>
      </trkpt>
      <trkpt lat="46.65626" lon="6.06908">
        <ele>861.96</ele>
        <time>2015-07-22T06:01:42Z</time>
      </trkpt>
      <trkpt lat="46.65622" lon="6.06929">
        <ele>861.96</ele>
        <time>2015-07-22T06:01:51Z</time>
      </trkpt>
      <trkpt lat="46.65621" lon="6.06973">
        <ele>861.96</ele>
        <time>2015-07-22T06:02:04Z</time>
      </trkpt>
      <trkpt lat="46.6565" lon="6.07017">
        <ele>862.44</ele>
        <time>2015-07-22T06:02:17Z</time>
      </trkpt>
      <trkpt lat="46.65694" lon="6.07045">
        <ele>864.84</ele>
        <time>2015-07-22T06:02:33Z</time>
      </trkpt>
      <trkpt lat="46.65727" lon="6.07064">
        <ele>866.77</ele>
        <time>2015-07-22T06:02:46Z</time>
      </trkpt>
      <trkpt lat="46.65744" lon="6.07065">
        <ele>867.73</ele>
        <time>2015-07-22T06:02:51Z</time>
      </trkpt>
      <trkpt lat="46.65749" lon="6.07025">
        <ele>870.61</ele>
        <time>2015-07-22T06:03:02Z</time>
      </trkpt>
      <trkpt lat="46.65761" lon="6.07019">
        <ele>871.09</ele>
        <time>2015-07-22T06:03:10Z</time>
      </trkpt>
      <trkpt lat="46.65763" lon="6.07023">
        <ele>871.09</ele>
        <time>2015-07-22T06:03:11Z</time>
      </trkpt>
      <trkpt lat="46.65772" lon="6.07041">
        <ele>871.09</ele>
        <time>2015-07-22T06:03:15Z</time>
      </trkpt>
      <trkpt lat="46.65827" lon="6.07145">
        <ele>868.69</ele>
        <time>2015-07-22T06:03:32Z</time>
      </trkpt>
      <trkpt lat="46.65892" lon="6.0727">
        <ele>867.25</ele>
        <time>2015-07-22T06:03:49Z</time>
      </trkpt>
      <trkpt lat="46.65946" lon="6.07371">
        <ele>868.21</ele>
        <time>2015-07-22T06:04:05Z</time>
      </trkpt>
      <trkpt lat="46.65963" lon="6.07403">
        <ele>867.73</ele>
        <time>2015-07-22T06:04:10Z</time>
      </trkpt>
      <trkpt lat="46.65978" lon="6.07464">
        <ele>868.21</ele>
        <time>2015-07-22T06:04:18Z</time>
      </trkpt>
      <trkpt lat="46.65979" lon="6.07517">
        <ele>867.73</ele>
        <time>2015-07-22T06:04:25Z</time>
      </trkpt>
      <trkpt lat="46.6598" lon="6.07532">
        <ele>867.73</ele>
        <time>2015-07-22T06:04:27Z</time>
      </trkpt>
      <trkpt lat="46.65995" lon="6.07562">
        <ele>867.73</ele>
        <time>2015-07-22T06:04:32Z</time>
      </trkpt>
      <trkpt lat="46.66017" lon="6.07579">
        <ele>868.69</ele>
        <time>2015-07-22T06:04:37Z</time>
      </trkpt>
      <trkpt lat="46.66075" lon="6.07626">
        <ele>871.09</ele>
        <time>2015-07-22T06:04:54Z</time>
      </trkpt>
      <trkpt lat="46.66116" lon="6.07664">
        <ele>873.98</ele>
        <time>2015-07-22T06:05:08Z</time>
      </trkpt>
      <trkpt lat="46.66147" lon="6.07711">
        <ele>877.34</ele>
        <time>2015-07-22T06:05:22Z</time>
      </trkpt>
      <trkpt lat="46.66169" lon="6.07759">
        <ele>879.74</ele>
        <time>2015-07-22T06:05:34Z</time>
      </trkpt>
      <trkpt lat="46.66189" lon="6.07827">
        <ele>881.67</ele>
        <time>2015-07-22T06:05:49Z</time>
      </trkpt>
      <trkpt lat="46.66216" lon="6.0791">
        <ele>883.11</ele>
        <time>2015-07-22T06:06:06Z</time>
      </trkpt>
      <trkpt lat="46.66228" lon="6.07964">
        <ele>884.07</ele>
        <time>2015-07-22T06:06:15Z</time>
      </trkpt>
      <trkpt lat="46.6623" lon="6.07976">
        <ele>884.07</ele>
        <time>2015-07-22T06:06:17Z</time>
      </trkpt>
      <trkpt lat="46.66253" lon="6.08083">
        <ele>885.51</ele>
        <time>2015-07-22T06:06:35Z</time>
      </trkpt>
      <trkpt lat="46.66254" lon="6.08089">
        <ele>885.51</ele>
        <time>2015-07-22T06:06:36Z</time>
      </trkpt>
      <trkpt lat="46.66276" lon="6.08197">
        <ele>888.4</ele>
        <time>2015-07-22T06:06:55Z</time>
      </trkpt>
      <trkpt lat="46.66279" lon="6.08209">
        <ele>887.91</ele>
        <time>2015-07-22T06:06:57Z</time>
      </trkpt>
      <trkpt lat="46.66291" lon="6.08266">
        <ele>888.88</ele>
        <time>2015-07-22T06:07:07Z</time>
      </trkpt>
      <trkpt lat="46.66294" lon="6.08263">
        <ele>889.36</ele>
        <time>2015-07-22T06:07:11Z</time>
      </trkpt>
      <trkpt lat="46.66292" lon="6.08256">
        <ele>888.88</ele>
        <time>2015-07-22T06:07:13Z</time>
      </trkpt>
      <trkpt lat="46.66288" lon="6.08257">
        <ele>888.88</ele>
        <time>2015-07-22T06:07:25Z</time>
      </trkpt>
      <trkpt lat="46.66288" lon="6.08257">
        <ele>888.88</ele>
        <time>2015-07-22T06:07:29Z</time>
      </trkpt>
      <trkpt lat="46.663" lon="6.083">
        <ele>889.84</ele>
        <time>2015-07-22T06:07:42Z</time>
      </trkpt>
      <trkpt lat="46.66319" lon="6.08368">
        <ele>891.28</ele>
        <time>2015-07-22T06:07:56Z</time>
      </trkpt>
      <trkpt lat="46.66365" lon="6.08426">
        <ele>893.2</ele>
        <time>2015-07-22T06:08:12Z</time>
      </trkpt>
      <trkpt lat="46.66405" lon="6.0844">
        <ele>893.68</ele>
        <time>2015-07-22T06:08:22Z</time>
      </trkpt>
      <trkpt lat="46.66432" lon="6.08459">
        <ele>894.64</ele>
        <time>2015-07-22T06:08:29Z</time>
      </trkpt>
      <trkpt lat="46.66475" lon="6.08513">
        <ele>895.61</ele>
        <time>2015-07-22T06:08:42Z</time>
      </trkpt>
      <trkpt lat="46.6653" lon="6.08587">
        <ele>897.05</ele>
        <time>2015-07-22T06:08:58Z</time>
      </trkpt>
      <trkpt lat="46.66542" lon="6.08608">
        <ele>897.05</ele>
        <time>2015-07-22T06:09:02Z</time>
      </trkpt>
      <trkpt lat="46.66577" lon="6.08719">
        <ele>899.45</ele>
        <time>2015-07-22T06:09:21Z</time>
      </trkpt>
      <trkpt lat="46.66595" lon="6.08754">
        <ele>900.41</ele>
        <time>2015-07-22T06:09:28Z</time>
      </trkpt>
      <trkpt lat="46.66642" lon="6.08843">
        <ele>902.82</ele>
        <time>2015-07-22T06:09:47Z</time>
      </trkpt>
      <trkpt lat="46.66681" lon="6.08911">
        <ele>905.22</ele>
        <time>2015-07-22T06:10:03Z</time>
      </trkpt>
      <trkpt lat="46.66725" lon="6.08976">
        <ele>908.1</ele>
        <time>2015-07-22T06:10:21Z</time>
      </trkpt>
      <trkpt lat="46.66753" lon="6.09034">
        <ele>910.99</ele>
        <time>2015-07-22T06:10:36Z</time>
      </trkpt>
      <trkpt lat="46.66776" lon="6.091">
        <ele>913.39</ele>
        <time>2015-07-22T06:10:52Z</time>
      </trkpt>
      <trkpt lat="46.66801" lon="6.09175">
        <ele>916.75</ele>
        <time>2015-07-22T06:11:10Z</time>
      </trkpt>
      <trkpt lat="46.6683" lon="6.09249">
        <ele>919.64</ele>
        <time>2015-07-22T06:11:28Z</time>
      </trkpt>
      <trkpt lat="46.66851" lon="6.09302">
        <ele>921.56</ele>
        <time>2015-07-22T06:11:41Z</time>
      </trkpt>
      <trkpt lat="46.6689" lon="6.09365">
        <ele>924.45</ele>
        <time>2015-07-22T06:11:59Z</time>
      </trkpt>
      <trkpt lat="46.66934" lon="6.09395">
        <ele>926.37</ele>
        <time>2015-07-22T06:12:14Z</time>
      </trkpt>
      <trkpt lat="46.66953" lon="6.09436">
        <ele>928.77</ele>
        <time>2015-07-22T06:12:25Z</time>
      </trkpt>
      <trkpt lat="46.66946" lon="6.09482">
        <ele>930.21</ele>
        <time>2015-07-22T06:12:35Z</time>
      </trkpt>
      <trkpt lat="46.66935" lon="6.09535">
        <ele>932.62</ele>
        <time>2015-07-22T06:12:47Z</time>
      </trkpt>
      <trkpt lat="46.66939" lon="6.0959">
        <ele>934.54</ele>
        <time>2015-07-22T06:12:59Z</time>
      </trkpt>
      <trkpt lat="46.66955" lon="6.09653">
        <ele>936.94</ele>
        <time>2015-07-22T06:13:14Z</time>
      </trkpt>
      <trkpt lat="46.66956" lon="6.0972">
        <ele>939.35</ele>
        <time>2015-07-22T06:13:29Z</time>
      </trkpt>
      <trkpt lat="46.66928" lon="6.0975">
        <ele>940.79</ele>
        <time>2015-07-22T06:13:41Z</time>
      </trkpt>
      <trkpt lat="46.66896" lon="6.09779">
        <ele>943.19</ele>
        <time>2015-07-22T06:13:53Z</time>
      </trkpt>
      <trkpt lat="46.66893" lon="6.09845">
        <ele>945.59</ele>
        <time>2015-07-22T06:14:08Z</time>
      </trkpt>
      <trkpt lat="46.66917" lon="6.09907">
        <ele>948</ele>
        <time>2015-07-22T06:14:24Z</time>
      </trkpt>
      <trkpt lat="46.66935" lon="6.0996">
        <ele>949.92</ele>
        <time>2015-07-22T06:14:38Z</time>
      </trkpt>
      <trkpt lat="46.66948" lon="6.1002">
        <ele>952.32</ele>
        <time>2015-07-22T06:14:53Z</time>
      </trkpt>
      <trkpt lat="46.66973" lon="6.10077">
        <ele>954.25</ele>
        <time>2015-07-22T06:15:09Z</time>
      </trkpt>
      <trkpt lat="46.66997" lon="6.10133">
        <ele>957.13</ele>
        <time>2015-07-22T06:15:25Z</time>
      </trkpt>
      <trkpt lat="46.67024" lon="6.10203">
        <ele>959.53</ele>
        <time>2015-07-22T06:15:44Z</time>
      </trkpt>
      <trkpt lat="46.67045" lon="6.1026">
        <ele>961.94</ele>
        <time>2015-07-22T06:15:59Z</time>
      </trkpt>
      <trkpt lat="46.67051" lon="6.10322">
        <ele>964.34</ele>
        <time>2015-07-22T06:16:14Z</time>
      </trkpt>
      <trkpt lat="46.67078" lon="6.10361">
        <ele>966.26</ele>
        <time>2015-07-22T06:16:27Z</time>
      </trkpt>
      <trkpt lat="46.67125" lon="6.10398">
        <ele>969.15</ele>
        <time>2015-07-22T06:16:45Z</time>
      </trkpt>
      <trkpt lat="46.6714" lon="6.10453">
        <ele>971.55</ele>
        <time>2015-07-22T06:16:59Z</time>
      </trkpt>
      <trkpt lat="46.67155" lon="6.10508">
        <ele>973.47</ele>
        <time>2015-07-22T06:17:13Z</time>
      </trkpt>
      <trkpt lat="46.67179" lon="6.10561">
        <ele>975.88</ele>
        <time>2015-07-22T06:17:28Z</time>
      </trkpt>
      <trkpt lat="46.67195" lon="6.10626">
        <ele>978.28</ele>
        <time>2015-07-22T06:17:44Z</time>
      </trkpt>
      <trkpt lat="46.67211" lon="6.107">
        <ele>981.16</ele>
        <time>2015-07-22T06:18:02Z</time>
      </trkpt>
      <trkpt lat="46.67191" lon="6.10751">
        <ele>983.09</ele>
        <time>2015-07-22T06:18:16Z</time>
      </trkpt>
      <trkpt lat="46.67167" lon="6.10801">
        <ele>985.49</ele>
        <time>2015-07-22T06:18:30Z</time>
      </trkpt>
      <trkpt lat="46.67167" lon="6.10862">
        <ele>987.89</ele>
        <time>2015-07-22T06:18:44Z</time>
      </trkpt>
      <trkpt lat="46.67175" lon="6.10927">
        <ele>989.81</ele>
        <time>2015-07-22T06:18:59Z</time>
      </trkpt>
      <trkpt lat="46.67184" lon="6.10996">
        <ele>992.22</ele>
        <time>2015-07-22T06:19:15Z</time>
      </trkpt>
      <trkpt lat="46.67196" lon="6.11067">
        <ele>994.62</ele>
        <time>2015-07-22T06:19:32Z</time>
      </trkpt>
      <trkpt lat="46.67205" lon="6.11121">
        <ele>997.02</ele>
        <time>2015-07-22T06:19:45Z</time>
      </trkpt>
      <trkpt lat="46.67213" lon="6.11175">
        <ele>998.95</ele>
        <time>2015-07-22T06:19:58Z</time>
      </trkpt>
      <trkpt lat="46.67214" lon="6.11224">
        <ele>1000.87</ele>
        <time>2015-07-22T06:20:10Z</time>
      </trkpt>
      <trkpt lat="46.6721" lon="6.11276">
        <ele>1002.79</ele>
        <time>2015-07-22T06:20:22Z</time>
      </trkpt>
      <trkpt lat="46.67206" lon="6.11336">
        <ele>1005.68</ele>
        <time>2015-07-22T06:20:36Z</time>
      </trkpt>
      <trkpt lat="46.67211" lon="6.11389">
        <ele>1007.6</ele>
        <time>2015-07-22T06:20:49Z</time>
      </trkpt>
      <trkpt lat="46.67221" lon="6.1144">
        <ele>1010.48</ele>
        <time>2015-07-22T06:21:03Z</time>
      </trkpt>
      <trkpt lat="46.67239" lon="6.11498">
        <ele>1012.89</ele>
        <time>2015-07-22T06:21:20Z</time>
      </trkpt>
      <trkpt lat="46.67274" lon="6.11543">
        <ele>1015.77</ele>
        <time>2015-07-22T06:21:37Z</time>
      </trkpt>
      <trkpt lat="46.67308" lon="6.11588">
        <ele>1016.25</ele>
        <time>2015-07-22T06:21:54Z</time>
      </trkpt>
      <trkpt lat="46.6731" lon="6.1159">
        <ele>1016.25</ele>
        <time>2015-07-22T06:21:55Z</time>
      </trkpt>
      <trkpt lat="46.67309" lon="6.11581">
        <ele>1016.25</ele>
        <time>2015-07-22T06:22:02Z</time>
      </trkpt>
      <trkpt lat="46.67306" lon="6.11581">
        <ele>1016.25</ele>
        <time>2015-07-22T06:22:05Z</time>
      </trkpt>
      <trkpt lat="46.67308" lon="6.11589">
        <ele>1016.25</ele>
        <time>2015-07-22T06:22:18Z</time>
      </trkpt>
      <trkpt lat="46.67308" lon="6.11589">
        <ele>1015.29</ele>
        <time>2015-07-22T06:22:33Z</time>
      </trkpt>
      <trkpt lat="46.67302" lon="6.11568">
        <ele>1016.73</ele>
        <time>2015-07-22T06:24:07Z</time>
      </trkpt>
      <trkpt lat="46.67303" lon="6.11567">
        <ele>1016.73</ele>
        <time>2015-07-22T06:24:08Z</time>
      </trkpt>
      <trkpt lat="46.67305" lon="6.11575">
        <ele>1016.73</ele>
        <time>2015-07-22T06:24:23Z</time>
      </trkpt>
      <trkpt lat="46.67306" lon="6.11578">
        <ele>1016.73</ele>
        <time>2015-07-22T06:24:25Z</time>
      </trkpt>
      <trkpt lat="46.67318" lon="6.11597">
        <ele>1016.25</ele>
        <time>2015-07-22T06:24:35Z</time>
      </trkpt>
      <trkpt lat="46.67334" lon="6.11657">
        <ele>1015.29</ele>
        <time>2015-07-22T06:24:47Z</time>
      </trkpt>
      <trkpt lat="46.67341" lon="6.11728">
        <ele>1011.93</ele>
        <time>2015-07-22T06:24:55Z</time>
      </trkpt>
      <trkpt lat="46.67347" lon="6.11818">
        <ele>1008.56</ele>
        <time>2015-07-22T06:25:03Z</time>
      </trkpt>
      <trkpt lat="46.67354" lon="6.11855">
        <ele>1007.12</ele>
        <time>2015-07-22T06:25:06Z</time>
      </trkpt>
      <trkpt lat="46.67374" lon="6.11913">
        <ele>1004.23</ele>
        <time>2015-07-22T06:25:11Z</time>
      </trkpt>
      <trkpt lat="46.67392" lon="6.11962">
        <ele>1002.31</ele>
        <time>2015-07-22T06:25:15Z</time>
      </trkpt>
      <trkpt lat="46.67411" lon="6.12009">
        <ele>1000.39</ele>
        <time>2015-07-22T06:25:19Z</time>
      </trkpt>
      <trkpt lat="46.67457" lon="6.12056">
        <ele>997.51</ele>
        <time>2015-07-22T06:25:25Z</time>
      </trkpt>
      <trkpt lat="46.67477" lon="6.12059">
        <ele>997.02</ele>
        <time>2015-07-22T06:25:27Z</time>
      </trkpt>
      <trkpt lat="46.67527" lon="6.12056">
        <ele>993.66</ele>
        <time>2015-07-22T06:25:32Z</time>
      </trkpt>
      <trkpt lat="46.67567" lon="6.12068">
        <ele>991.26</ele>
        <time>2015-07-22T06:25:36Z</time>
      </trkpt>
      <trkpt lat="46.67666" lon="6.12146">
        <ele>992.7</ele>
        <time>2015-07-22T06:25:49Z</time>
      </trkpt>
      <trkpt lat="46.67684" lon="6.12171">
        <ele>994.14</ele>
        <time>2015-07-22T06:25:53Z</time>
      </trkpt>
      <trkpt lat="46.67735" lon="6.12282">
        <ele>997.51</ele>
        <time>2015-07-22T06:26:11Z</time>
      </trkpt>
      <trkpt lat="46.67779" lon="6.12376">
        <ele>997.99</ele>
        <time>2015-07-22T06:26:28Z</time>
      </trkpt>
      <trkpt lat="46.67841" lon="6.12492">
        <ele>998.47</ele>
        <time>2015-07-22T06:26:47Z</time>
      </trkpt>
      <trkpt lat="46.67859" lon="6.12525">
        <ele>999.43</ele>
        <time>2015-07-22T06:26:53Z</time>
      </trkpt>
      <trkpt lat="46.67911" lon="6.1263">
        <ele>998.47</ele>
        <time>2015-07-22T06:27:10Z</time>
      </trkpt>
      <trkpt lat="46.67965" lon="6.12774">
        <ele>997.02</ele>
        <time>2015-07-22T06:27:29Z</time>
      </trkpt>
      <trkpt lat="46.67985" lon="6.12928">
        <ele>995.58</ele>
        <time>2015-07-22T06:27:45Z</time>
      </trkpt>
      <trkpt lat="46.67982" lon="6.12975">
        <ele>995.58</ele>
        <time>2015-07-22T06:27:50Z</time>
      </trkpt>
      <trkpt lat="46.6795" lon="6.13137">
        <ele>992.7</ele>
        <time>2015-07-22T06:28:07Z</time>
      </trkpt>
      <trkpt lat="46.6795" lon="6.13247">
        <ele>991.26</ele>
        <time>2015-07-22T06:28:18Z</time>
      </trkpt>
      <trkpt lat="46.67958" lon="6.13281">
        <ele>991.26</ele>
        <time>2015-07-22T06:28:22Z</time>
      </trkpt>
      <trkpt lat="46.6795" lon="6.13315">
        <ele>991.26</ele>
        <time>2015-07-22T06:28:27Z</time>
      </trkpt>
      <trkpt lat="46.67922" lon="6.13346">
        <ele>990.78</ele>
        <time>2015-07-22T06:28:33Z</time>
      </trkpt>
      <trkpt lat="46.67913" lon="6.13358">
        <ele>990.78</ele>
        <time>2015-07-22T06:28:35Z</time>
      </trkpt>
      <trkpt lat="46.67861" lon="6.13466">
        <ele>992.22</ele>
        <time>2015-07-22T06:28:52Z</time>
      </trkpt>
      <trkpt lat="46.67822" lon="6.13548">
        <ele>994.14</ele>
        <time>2015-07-22T06:29:07Z</time>
      </trkpt>
      <trkpt lat="46.67782" lon="6.13643">
        <ele>994.62</ele>
        <time>2015-07-22T06:29:23Z</time>
      </trkpt>
      <trkpt lat="46.67749" lon="6.13713">
        <ele>995.58</ele>
        <time>2015-07-22T06:29:36Z</time>
      </trkpt>
      <trkpt lat="46.67702" lon="6.13794">
        <ele>997.51</ele>
        <time>2015-07-22T06:29:53Z</time>
      </trkpt>
      <trkpt lat="46.67693" lon="6.13806">
        <ele>997.99</ele>
        <time>2015-07-22T06:29:56Z</time>
      </trkpt>
      <trkpt lat="46.67684" lon="6.13818">
        <ele>997.99</ele>
        <time>2015-07-22T06:29:59Z</time>
      </trkpt>
      <trkpt lat="46.67668" lon="6.13828">
        <ele>998.47</ele>
        <time>2015-07-22T06:30:03Z</time>
      </trkpt>
      <trkpt lat="46.67626" lon="6.13831">
        <ele>999.43</ele>
        <time>2015-07-22T06:30:14Z</time>
      </trkpt>
      <trkpt lat="46.67595" lon="6.13813">
        <ele>999.91</ele>
        <time>2015-07-22T06:30:22Z</time>
      </trkpt>
      <trkpt lat="46.67528" lon="6.13755">
        <ele>1002.31</ele>
        <time>2015-07-22T06:30:41Z</time>
      </trkpt>
      <trkpt lat="46.67473" lon="6.13748">
        <ele>1004.23</ele>
        <time>2015-07-22T06:30:55Z</time>
      </trkpt>
      <trkpt lat="46.67438" lon="6.1376">
        <ele>1005.2</ele>
        <time>2015-07-22T06:31:04Z</time>
      </trkpt>
      <trkpt lat="46.67383" lon="6.13783">
        <ele>1008.08</ele>
        <time>2015-07-22T06:31:20Z</time>
      </trkpt>
      <trkpt lat="46.67348" lon="6.13809">
        <ele>1010</ele>
        <time>2015-07-22T06:31:33Z</time>
      </trkpt>
      <trkpt lat="46.67329" lon="6.13858">
        <ele>1012.41</ele>
        <time>2015-07-22T06:31:48Z</time>
      </trkpt>
      <trkpt lat="46.67337" lon="6.13914">
        <ele>1014.33</ele>
        <time>2015-07-22T06:32:04Z</time>
      </trkpt>
      <trkpt lat="46.67364" lon="6.13954">
        <ele>1016.73</ele>
        <time>2015-07-22T06:32:19Z</time>
      </trkpt>
      <trkpt lat="46.67392" lon="6.13992">
        <ele>1019.62</ele>
        <time>2015-07-22T06:32:35Z</time>
      </trkpt>
      <trkpt lat="46.67424" lon="6.14042">
        <ele>1022.5</ele>
        <time>2015-07-22T06:32:55Z</time>
      </trkpt>
      <trkpt lat="46.67456" lon="6.14074">
        <ele>1024.9</ele>
        <time>2015-07-22T06:33:11Z</time>
      </trkpt>
      <trkpt lat="46.6751" lon="6.1407">
        <ele>1026.83</ele>
        <time>2015-07-22T06:33:31Z</time>
      </trkpt>
      <trkpt lat="46.67545" lon="6.14088">
        <ele>1029.23</ele>
        <time>2015-07-22T06:33:46Z</time>
      </trkpt>
      <trkpt lat="46.67551" lon="6.14136">
        <ele>1032.11</ele>
        <time>2015-07-22T06:34:01Z</time>
      </trkpt>
      <trkpt lat="46.67527" lon="6.14177">
        <ele>1035</ele>
        <time>2015-07-22T06:34:18Z</time>
      </trkpt>
      <trkpt lat="46.67493" lon="6.14179">
        <ele>1037.4</ele>
        <time>2015-07-22T06:34:33Z</time>
      </trkpt>
      <trkpt lat="46.67455" lon="6.1417">
        <ele>1039.32</ele>
        <time>2015-07-22T06:34:49Z</time>
      </trkpt>
      <trkpt lat="46.67415" lon="6.14157">
        <ele>1041.73</ele>
        <time>2015-07-22T06:35:06Z</time>
      </trkpt>
      <trkpt lat="46.67377" lon="6.14148">
        <ele>1043.65</ele>
        <time>2015-07-22T06:35:22Z</time>
      </trkpt>
      <trkpt lat="46.67338" lon="6.14134">
        <ele>1046.05</ele>
        <time>2015-07-22T06:35:38Z</time>
      </trkpt>
      <trkpt lat="46.67296" lon="6.14133">
        <ele>1048.45</ele>
        <time>2015-07-22T06:35:56Z</time>
      </trkpt>
      <trkpt lat="46.67264" lon="6.14149">
        <ele>1050.38</ele>
        <time>2015-07-22T06:36:10Z</time>
      </trkpt>
      <trkpt lat="46.67227" lon="6.1417">
        <ele>1052.3</ele>
        <time>2015-07-22T06:36:26Z</time>
      </trkpt>
      <trkpt lat="46.67195" lon="6.14182">
        <ele>1054.22</ele>
        <time>2015-07-22T06:36:39Z</time>
      </trkpt>
      <trkpt lat="46.6716" lon="6.14204">
        <ele>1056.15</ele>
        <time>2015-07-22T06:36:54Z</time>
      </trkpt>
      <trkpt lat="46.67136" lon="6.14222">
        <ele>1057.59</ele>
        <time>2015-07-22T06:37:05Z</time>
      </trkpt>
      <trkpt lat="46.67103" lon="6.14238">
        <ele>1059.51</ele>
        <time>2015-07-22T06:37:19Z</time>
      </trkpt>
      <trkpt lat="46.67099" lon="6.14241">
        <ele>1059.51</ele>
        <time>2015-07-22T06:37:21Z</time>
      </trkpt>
      <trkpt lat="46.67069" lon="6.14254">
        <ele>1061.43</ele>
        <time>2015-07-22T06:37:33Z</time>
      </trkpt>
      <trkpt lat="46.67041" lon="6.14263">
        <ele>1062.87</ele>
        <time>2015-07-22T06:37:45Z</time>
      </trkpt>
      <trkpt lat="46.67007" lon="6.14257">
        <ele>1064.8</ele>
        <time>2015-07-22T06:37:58Z</time>
      </trkpt>
      <trkpt lat="46.66969" lon="6.14232">
        <ele>1067.68</ele>
        <time>2015-07-22T06:38:14Z</time>
      </trkpt>
      <trkpt lat="46.66939" lon="6.14218">
        <ele>1069.12</ele>
        <time>2015-07-22T06:38:27Z</time>
      </trkpt>
      <trkpt lat="46.66912" lon="6.14214">
        <ele>1071.05</ele>
        <time>2015-07-22T06:38:39Z</time>
      </trkpt>
      <trkpt lat="46.66874" lon="6.14205">
        <ele>1073.45</ele>
        <time>2015-07-22T06:38:54Z</time>
      </trkpt>
      <trkpt lat="46.66853" lon="6.14171">
        <ele>1074.89</ele>
        <time>2015-07-22T06:39:07Z</time>
      </trkpt>
      <trkpt lat="46.66858" lon="6.14124">
        <ele>1076.81</ele>
        <time>2015-07-22T06:39:20Z</time>
      </trkpt>
      <trkpt lat="46.66862" lon="6.14067">
        <ele>1079.22</ele>
        <time>2015-07-22T06:39:36Z</time>
      </trkpt>
      <trkpt lat="46.66836" lon="6.14036">
        <ele>1081.62</ele>
        <time>2015-07-22T06:39:50Z</time>
      </trkpt>
      <trkpt lat="46.66792" lon="6.14037">
        <ele>1083.54</ele>
        <time>2015-07-22T06:40:06Z</time>
      </trkpt>
      <trkpt lat="46.66751" lon="6.14019">
        <ele>1085.95</ele>
        <time>2015-07-22T06:40:23Z</time>
      </trkpt>
      <trkpt lat="46.66701" lon="6.14006">
        <ele>1087.87</ele>
        <time>2015-07-22T06:40:42Z</time>
      </trkpt>
      <trkpt lat="46.6665" lon="6.14002">
        <ele>1089.79</ele>
        <time>2015-07-22T06:41:01Z</time>
      </trkpt>
      <trkpt lat="46.66599" lon="6.13996">
        <ele>1092.2</ele>
        <time>2015-07-22T06:41:20Z</time>
      </trkpt>
      <trkpt lat="46.66554" lon="6.13995">
        <ele>1094.12</ele>
        <time>2015-07-22T06:41:37Z</time>
      </trkpt>
      <trkpt lat="46.66515" lon="6.13988">
        <ele>1095.08</ele>
        <time>2015-07-22T06:41:51Z</time>
      </trkpt>
      <trkpt lat="46.66459" lon="6.13965">
        <ele>1096.52</ele>
        <time>2015-07-22T06:42:09Z</time>
      </trkpt>
      <trkpt lat="46.66399" lon="6.1393">
        <ele>1097.48</ele>
        <time>2015-07-22T06:42:28Z</time>
      </trkpt>
      <trkpt lat="46.66325" lon="6.13886">
        <ele>1099.4</ele>
        <time>2015-07-22T06:42:50Z</time>
      </trkpt>
      <trkpt lat="46.66251" lon="6.13848">
        <ele>1100.37</ele>
        <time>2015-07-22T06:43:10Z</time>
      </trkpt>
      <trkpt lat="46.66176" lon="6.13804">
        <ele>1101.81</ele>
        <time>2015-07-22T06:43:31Z</time>
      </trkpt>
      <trkpt lat="46.66129" lon="6.1378">
        <ele>1102.77</ele>
        <time>2015-07-22T06:43:47Z</time>
      </trkpt>
      <trkpt lat="46.66129" lon="6.1378">
        <ele>1102.77</ele>
        <time>2015-07-22T06:44:07Z</time>
      </trkpt>
      <trkpt lat="46.6613" lon="6.1378">
        <ele>1102.77</ele>
        <time>2015-07-22T06:44:34Z</time>
      </trkpt>
      <trkpt lat="46.6613" lon="6.1378">
        <ele>1102.77</ele>
        <time>2015-07-22T06:44:51Z</time>
      </trkpt>
      <trkpt lat="46.66121" lon="6.13779">
        <ele>1103.25</ele>
        <time>2015-07-22T06:44:55Z</time>
      </trkpt>
      <trkpt lat="46.66063" lon="6.13771">
        <ele>1104.21</ele>
        <time>2015-07-22T06:45:11Z</time>
      </trkpt>
      <trkpt lat="46.65992" lon="6.13785">
        <ele>1105.17</ele>
        <time>2015-07-22T06:45:29Z</time>
      </trkpt>
      <trkpt lat="46.65924" lon="6.13773">
        <ele>1105.65</ele>
        <time>2015-07-22T06:45:46Z</time>
      </trkpt>
      <trkpt lat="46.65863" lon="6.13729">
        <ele>1107.1</ele>
        <time>2015-07-22T06:46:03Z</time>
      </trkpt>
      <trkpt lat="46.6583" lon="6.13677">
        <ele>1109.02</ele>
        <time>2015-07-22T06:46:17Z</time>
      </trkpt>
      <trkpt lat="46.6579" lon="6.13617">
        <ele>1111.9</ele>
        <time>2015-07-22T06:46:34Z</time>
      </trkpt>
      <trkpt lat="46.65745" lon="6.13578">
        <ele>1113.34</ele>
        <time>2015-07-22T06:46:49Z</time>
      </trkpt>
      <trkpt lat="46.65689" lon="6.13536">
        <ele>1113.34</ele>
        <time>2015-07-22T06:47:04Z</time>
      </trkpt>
      <trkpt lat="46.65607" lon="6.13458">
        <ele>1111.42</ele>
        <time>2015-07-22T06:47:21Z</time>
      </trkpt>
      <trkpt lat="46.65507" lon="6.13363">
        <ele>1109.98</ele>
        <time>2015-07-22T06:47:40Z</time>
      </trkpt>
      <trkpt lat="46.65436" lon="6.1334">
        <ele>1109.98</ele>
        <time>2015-07-22T06:47:53Z</time>
      </trkpt>
      <trkpt lat="46.65359" lon="6.13354">
        <ele>1110.94</ele>
        <time>2015-07-22T06:48:08Z</time>
      </trkpt>
      <trkpt lat="46.65271" lon="6.13385">
        <ele>1110.94</ele>
        <time>2015-07-22T06:48:27Z</time>
      </trkpt>
      <trkpt lat="46.6519" lon="6.13416">
        <ele>1112.86</ele>
        <time>2015-07-22T06:48:46Z</time>
      </trkpt>
      <trkpt lat="46.65115" lon="6.13461">
        <ele>1112.86</ele>
        <time>2015-07-22T06:49:04Z</time>
      </trkpt>
      <trkpt lat="46.65033" lon="6.13526">
        <ele>1113.34</ele>
        <time>2015-07-22T06:49:23Z</time>
      </trkpt>
      <trkpt lat="46.64969" lon="6.13595">
        <ele>1113.82</ele>
        <time>2015-07-22T06:49:40Z</time>
      </trkpt>
      <trkpt lat="46.64914" lon="6.13655">
        <ele>1114.79</ele>
        <time>2015-07-22T06:49:55Z</time>
      </trkpt>
      <trkpt lat="46.649" lon="6.1367">
        <ele>1115.75</ele>
        <time>2015-07-22T06:49:59Z</time>
      </trkpt>
      <trkpt lat="46.6484" lon="6.13736">
        <ele>1116.23</ele>
        <time>2015-07-22T06:50:16Z</time>
      </trkpt>
      <trkpt lat="46.64785" lon="6.13798">
        <ele>1118.15</ele>
        <time>2015-07-22T06:50:33Z</time>
      </trkpt>
      <trkpt lat="46.64728" lon="6.13856">
        <ele>1120.07</ele>
        <time>2015-07-22T06:50:50Z</time>
      </trkpt>
      <trkpt lat="46.64676" lon="6.13883">
        <ele>1122</ele>
        <time>2015-07-22T06:51:05Z</time>
      </trkpt>
      <trkpt lat="46.64632" lon="6.13905">
        <ele>1124.4</ele>
        <time>2015-07-22T06:51:18Z</time>
      </trkpt>
      <trkpt lat="46.64624" lon="6.1391">
        <ele>1124.4</ele>
        <time>2015-07-22T06:51:20Z</time>
      </trkpt>
      <trkpt lat="46.64613" lon="6.13914">
        <ele>1124.4</ele>
        <time>2015-07-22T06:51:23Z</time>
      </trkpt>
      <trkpt lat="46.64579" lon="6.13915">
        <ele>1126.32</ele>
        <time>2015-07-22T06:51:33Z</time>
      </trkpt>
      <trkpt lat="46.6454" lon="6.13931">
        <ele>1128.73</ele>
        <time>2015-07-22T06:51:44Z</time>
      </trkpt>
      <trkpt lat="46.64502" lon="6.13974">
        <ele>1130.65</ele>
        <time>2015-07-22T06:51:56Z</time>
      </trkpt>
      <trkpt lat="46.6445" lon="6.14011">
        <ele>1131.61</ele>
        <time>2015-07-22T06:52:10Z</time>
      </trkpt>
      <trkpt lat="46.64384" lon="6.14046">
        <ele>1131.61</ele>
        <time>2015-07-22T06:52:25Z</time>
      </trkpt>
      <trkpt lat="46.64307" lon="6.14081">
        <ele>1132.57</ele>
        <time>2015-07-22T06:52:43Z</time>
      </trkpt>
      <trkpt lat="46.64239" lon="6.14098">
        <ele>1134.01</ele>
        <time>2015-07-22T06:53:00Z</time>
      </trkpt>
      <trkpt lat="46.64176" lon="6.14122">
        <ele>1136.42</ele>
        <time>2015-07-22T06:53:17Z</time>
      </trkpt>
      <trkpt lat="46.64138" lon="6.14148">
        <ele>1136.9</ele>
        <time>2015-07-22T06:53:30Z</time>
      </trkpt>
      <trkpt lat="46.6409" lon="6.14147">
        <ele>1137.38</ele>
        <time>2015-07-22T06:53:44Z</time>
      </trkpt>
      <trkpt lat="46.64042" lon="6.14121">
        <ele>1138.82</ele>
        <time>2015-07-22T06:53:59Z</time>
      </trkpt>
      <trkpt lat="46.64006" lon="6.14127">
        <ele>1139.3</ele>
        <time>2015-07-22T06:54:12Z</time>
      </trkpt>
      <trkpt lat="46.63975" lon="6.14129">
        <ele>1139.78</ele>
        <time>2015-07-22T06:54:25Z</time>
      </trkpt>
      <trkpt lat="46.63941" lon="6.14117">
        <ele>1138.82</ele>
        <time>2015-07-22T06:54:38Z</time>
      </trkpt>
      <trkpt lat="46.63933" lon="6.14115">
        <ele>1138.82</ele>
        <time>2015-07-22T06:54:40Z</time>
      </trkpt>
      <trkpt lat="46.63899" lon="6.14101">
        <ele>1137.38</ele>
        <time>2015-07-22T06:54:51Z</time>
      </trkpt>
      <trkpt lat="46.63879" lon="6.14094">
        <ele>1137.38</ele>
        <time>2015-07-22T06:54:56Z</time>
      </trkpt>
      <trkpt lat="46.63844" lon="6.14088">
        <ele>1137.38</ele>
        <time>2015-07-22T06:55:03Z</time>
      </trkpt>
      <trkpt lat="46.63827" lon="6.14087">
        <ele>1136.42</ele>
        <time>2015-07-22T06:55:06Z</time>
      </trkpt>
      <trkpt lat="46.63781" lon="6.14094">
        <ele>1134.01</ele>
        <time>2015-07-22T06:55:13Z</time>
      </trkpt>
      <trkpt lat="46.63719" lon="6.14096">
        <ele>1130.65</ele>
        <time>2015-07-22T06:55:21Z</time>
      </trkpt>
      <trkpt lat="46.63694" lon="6.14094">
        <ele>1129.69</ele>
        <time>2015-07-22T06:55:24Z</time>
      </trkpt>
      <trkpt lat="46.63676" lon="6.14094">
        <ele>1128.73</ele>
        <time>2015-07-22T06:55:26Z</time>
      </trkpt>
      <trkpt lat="46.63642" lon="6.14101">
        <ele>1127.28</ele>
        <time>2015-07-22T06:55:30Z</time>
      </trkpt>
      <trkpt lat="46.63575" lon="6.14116">
        <ele>1122.96</ele>
        <time>2015-07-22T06:55:38Z</time>
      </trkpt>
      <trkpt lat="46.63513" lon="6.14141">
        <ele>1119.59</ele>
        <time>2015-07-22T06:55:45Z</time>
      </trkpt>
      <trkpt lat="46.63487" lon="6.14158">
        <ele>1118.63</ele>
        <time>2015-07-22T06:55:48Z</time>
      </trkpt>
      <trkpt lat="46.63458" lon="6.14162">
        <ele>1116.71</ele>
        <time>2015-07-22T06:55:51Z</time>
      </trkpt>
      <trkpt lat="46.63449" lon="6.1416">
        <ele>1116.71</ele>
        <time>2015-07-22T06:55:52Z</time>
      </trkpt>
      <trkpt lat="46.6341" lon="6.14166">
        <ele>1114.79</ele>
        <time>2015-07-22T06:55:56Z</time>
      </trkpt>
      <trkpt lat="46.63371" lon="6.14181">
        <ele>1112.38</ele>
        <time>2015-07-22T06:56:00Z</time>
      </trkpt>
      <trkpt lat="46.6332" lon="6.14196">
        <ele>1109.02</ele>
        <time>2015-07-22T06:56:05Z</time>
      </trkpt>
      <trkpt lat="46.63267" lon="6.14196">
        <ele>1106.13</ele>
        <time>2015-07-22T06:56:10Z</time>
      </trkpt>
      <trkpt lat="46.63247" lon="6.14187">
        <ele>1105.65</ele>
        <time>2015-07-22T06:56:12Z</time>
      </trkpt>
      <trkpt lat="46.63229" lon="6.14175">
        <ele>1104.69</ele>
        <time>2015-07-22T06:56:14Z</time>
      </trkpt>
      <trkpt lat="46.63128" lon="6.14122">
        <ele>1102.77</ele>
        <time>2015-07-22T06:56:26Z</time>
      </trkpt>
      <trkpt lat="46.63073" lon="6.14103">
        <ele>1099.4</ele>
        <time>2015-07-22T06:56:32Z</time>
      </trkpt>
      <trkpt lat="46.62951" lon="6.14058">
        <ele>1098.44</ele>
        <time>2015-07-22T06:56:47Z</time>
      </trkpt>
      <trkpt lat="46.62868" lon="6.14059">
        <ele>1097.96</ele>
        <time>2015-07-22T06:57:00Z</time>
      </trkpt>
      <trkpt lat="46.62764" lon="6.14062">
        <ele>1097.48</ele>
        <time>2015-07-22T06:57:17Z</time>
      </trkpt>
      <trkpt lat="46.62648" lon="6.14064">
        <ele>1097</ele>
        <time>2015-07-22T06:57:36Z</time>
      </trkpt>
      <trkpt lat="46.62532" lon="6.14042">
        <ele>1094.12</ele>
        <time>2015-07-22T06:57:52Z</time>
      </trkpt>
      <trkpt lat="46.62393" lon="6.14001">
        <ele>1091.71</ele>
        <time>2015-07-22T06:58:11Z</time>
      </trkpt>
      <trkpt lat="46.62271" lon="6.13946">
        <ele>1091.23</ele>
        <time>2015-07-22T06:58:29Z</time>
      </trkpt>
      <trkpt lat="46.62261" lon="6.13939">
        <ele>1091.23</ele>
        <time>2015-07-22T06:58:31Z</time>
      </trkpt>
      <trkpt lat="46.62203" lon="6.13903">
        <ele>1091.23</ele>
        <time>2015-07-22T06:58:45Z</time>
      </trkpt>
      <trkpt lat="46.6218" lon="6.13889">
        <ele>1091.71</ele>
        <time>2015-07-22T06:58:51Z</time>
      </trkpt>
      <trkpt lat="46.62157" lon="6.13873">
        <ele>1091.23</ele>
        <time>2015-07-22T06:58:56Z</time>
      </trkpt>
      <trkpt lat="46.62048" lon="6.13814">
        <ele>1089.79</ele>
        <time>2015-07-22T06:59:14Z</time>
      </trkpt>
      <trkpt lat="46.61941" lon="6.1376">
        <ele>1090.75</ele>
        <time>2015-07-22T06:59:32Z</time>
      </trkpt>
      <trkpt lat="46.61853" lon="6.1371">
        <ele>1092.2</ele>
        <time>2015-07-22T06:59:50Z</time>
      </trkpt>
      <trkpt lat="46.61807" lon="6.13685">
        <ele>1092.2</ele>
        <time>2015-07-22T07:00:00Z</time>
      </trkpt>
      <trkpt lat="46.61791" lon="6.13675">
        <ele>1092.2</ele>
        <time>2015-07-22T07:00:04Z</time>
      </trkpt>
      <trkpt lat="46.61709" lon="6.13625">
        <ele>1094.12</ele>
        <time>2015-07-22T07:00:23Z</time>
      </trkpt>
      <trkpt lat="46.61638" lon="6.13582">
        <ele>1095.08</ele>
        <time>2015-07-22T07:00:40Z</time>
      </trkpt>
      <trkpt lat="46.61548" lon="6.13524">
        <ele>1093.16</ele>
        <time>2015-07-22T07:00:57Z</time>
      </trkpt>
      <trkpt lat="46.61432" lon="6.1348">
        <ele>1091.71</ele>
        <time>2015-07-22T07:01:15Z</time>
      </trkpt>
      <trkpt lat="46.6134" lon="6.13461">
        <ele>1093.16</ele>
        <time>2015-07-22T07:01:31Z</time>
      </trkpt>
      <trkpt lat="46.61251" lon="6.13432">
        <ele>1094.6</ele>
        <time>2015-07-22T07:01:50Z</time>
      </trkpt>
      <trkpt lat="46.61165" lon="6.1339">
        <ele>1095.56</ele>
        <time>2015-07-22T07:02:09Z</time>
      </trkpt>
      <trkpt lat="46.61075" lon="6.13335">
        <ele>1096.52</ele>
        <time>2015-07-22T07:02:29Z</time>
      </trkpt>
      <trkpt lat="46.60963" lon="6.13271">
        <ele>1096.04</ele>
        <time>2015-07-22T07:02:50Z</time>
      </trkpt>
      <trkpt lat="46.60857" lon="6.1318">
        <ele>1095.56</ele>
        <time>2015-07-22T07:03:11Z</time>
      </trkpt>
      <trkpt lat="46.60768" lon="6.1306">
        <ele>1093.64</ele>
        <time>2015-07-22T07:03:29Z</time>
      </trkpt>
      <trkpt lat="46.60677" lon="6.12924">
        <ele>1091.23</ele>
        <time>2015-07-22T07:03:47Z</time>
      </trkpt>
      <trkpt lat="46.60605" lon="6.12799">
        <ele>1088.35</ele>
        <time>2015-07-22T07:04:01Z</time>
      </trkpt>
      <trkpt lat="46.60524" lon="6.12633">
        <ele>1085.95</ele>
        <time>2015-07-22T07:04:18Z</time>
      </trkpt>
      <trkpt lat="46.60444" lon="6.12479">
        <ele>1085.47</ele>
        <time>2015-07-22T07:04:36Z</time>
      </trkpt>
      <trkpt lat="46.60378" lon="6.12378">
        <ele>1086.43</ele>
        <time>2015-07-22T07:04:51Z</time>
      </trkpt>
      <trkpt lat="46.60317" lon="6.12278">
        <ele>1086.43</ele>
        <time>2015-07-22T07:05:06Z</time>
      </trkpt>
      <trkpt lat="46.60254" lon="6.12174">
        <ele>1084.99</ele>
        <time>2015-07-22T07:05:20Z</time>
      </trkpt>
      <trkpt lat="46.60185" lon="6.12071">
        <ele>1084.5</ele>
        <time>2015-07-22T07:05:34Z</time>
      </trkpt>
      <trkpt lat="46.60124" lon="6.11984">
        <ele>1086.91</ele>
        <time>2015-07-22T07:05:49Z</time>
      </trkpt>
      <trkpt lat="46.60061" lon="6.11893">
        <ele>1087.39</ele>
        <time>2015-07-22T07:06:06Z</time>
      </trkpt>
      <trkpt lat="46.60028" lon="6.11847">
        <ele>1087.87</ele>
        <time>2015-07-22T07:06:15Z</time>
      </trkpt>
      <trkpt lat="46.59953" lon="6.11752">
        <ele>1084.99</ele>
        <time>2015-07-22T07:06:33Z</time>
      </trkpt>
      <trkpt lat="46.59901" lon="6.11647">
        <ele>1084.99</ele>
        <time>2015-07-22T07:06:47Z</time>
      </trkpt>
      <trkpt lat="46.59878" lon="6.11603">
        <ele>1085.47</ele>
        <time>2015-07-22T07:06:54Z</time>
      </trkpt>
      <trkpt lat="46.5983" lon="6.11521">
        <ele>1088.83</ele>
        <time>2015-07-22T07:07:09Z</time>
      </trkpt>
      <trkpt lat="46.59816" lon="6.11484">
        <ele>1090.27</ele>
        <time>2015-07-22T07:07:16Z</time>
      </trkpt>
      <trkpt lat="46.59788" lon="6.11401">
        <ele>1090.27</ele>
        <time>2015-07-22T07:07:31Z</time>
      </trkpt>
      <trkpt lat="46.59785" lon="6.11394">
        <ele>1090.27</ele>
        <time>2015-07-22T07:07:33Z</time>
      </trkpt>
      <trkpt lat="46.59784" lon="6.114">
        <ele>1090.75</ele>
        <time>2015-07-22T07:07:40Z</time>
      </trkpt>
      <trkpt lat="46.59785" lon="6.11402">
        <ele>1090.75</ele>
        <time>2015-07-22T07:07:42Z</time>
      </trkpt>
      <trkpt lat="46.59789" lon="6.11412">
        <ele>1090.75</ele>
        <time>2015-07-22T07:07:49Z</time>
      </trkpt>
      <trkpt lat="46.59786" lon="6.11398">
        <ele>1090.75</ele>
        <time>2015-07-22T07:07:59Z</time>
      </trkpt>
      <trkpt lat="46.59765" lon="6.11367">
        <ele>1089.31</ele>
        <time>2015-07-22T07:08:08Z</time>
      </trkpt>
      <trkpt lat="46.59737" lon="6.1132">
        <ele>1087.87</ele>
        <time>2015-07-22T07:08:19Z</time>
      </trkpt>
      <trkpt lat="46.59734" lon="6.11309">
        <ele>1087.39</ele>
        <time>2015-07-22T07:08:21Z</time>
      </trkpt>
      <trkpt lat="46.59724" lon="6.11266">
        <ele>1085.47</ele>
        <time>2015-07-22T07:08:26Z</time>
      </trkpt>
      <trkpt lat="46.59711" lon="6.11222">
        <ele>1082.1</ele>
        <time>2015-07-22T07:08:30Z</time>
      </trkpt>
      <trkpt lat="46.59686" lon="6.11152">
        <ele>1079.22</ele>
        <time>2015-07-22T07:08:36Z</time>
      </trkpt>
      <trkpt lat="46.59624" lon="6.11047">
        <ele>1078.26</ele>
        <time>2015-07-22T07:08:47Z</time>
      </trkpt>
      <trkpt lat="46.59539" lon="6.10954">
        <ele>1078.74</ele>
        <time>2015-07-22T07:09:02Z</time>
      </trkpt>
      <trkpt lat="46.59477" lon="6.10889">
        <ele>1081.62</ele>
        <time>2015-07-22T07:09:17Z</time>
      </trkpt>
      <trkpt lat="46.59451" lon="6.10856">
        <ele>1083.54</ele>
        <time>2015-07-22T07:09:26Z</time>
      </trkpt>
      <trkpt lat="46.59407" lon="6.10783">
        <ele>1084.99</ele>
        <time>2015-07-22T07:09:42Z</time>
      </trkpt>
      <trkpt lat="46.59361" lon="6.10731">
        <ele>1086.43</ele>
        <time>2015-07-22T07:09:55Z</time>
      </trkpt>
      <trkpt lat="46.59321" lon="6.10702">
        <ele>1088.83</ele>
        <time>2015-07-22T07:10:07Z</time>
      </trkpt>
      <trkpt lat="46.59279" lon="6.10671">
        <ele>1091.71</ele>
        <time>2015-07-22T07:10:20Z</time>
      </trkpt>
      <trkpt lat="46.5924" lon="6.10643">
        <ele>1093.16</ele>
        <time>2015-07-22T07:10:32Z</time>
      </trkpt>
      <trkpt lat="46.59226" lon="6.10634">
        <ele>1093.64</ele>
        <time>2015-07-22T07:10:36Z</time>
      </trkpt>
      <trkpt lat="46.59179" lon="6.10599">
        <ele>1094.6</ele>
        <time>2015-07-22T07:10:49Z</time>
      </trkpt>
      <trkpt lat="46.59158" lon="6.10587">
        <ele>1094.6</ele>
        <time>2015-07-22T07:10:54Z</time>
      </trkpt>
      <trkpt lat="46.59132" lon="6.10566">
        <ele>1094.12</ele>
        <time>2015-07-22T07:11:00Z</time>
      </trkpt>
      <trkpt lat="46.5906" lon="6.10527">
        <ele>1094.12</ele>
        <time>2015-07-22T07:11:14Z</time>
      </trkpt>
      <trkpt lat="46.59043" lon="6.10516">
        <ele>1095.56</ele>
        <time>2015-07-22T07:11:18Z</time>
      </trkpt>
      <trkpt lat="46.58999" lon="6.10478">
        <ele>1097</ele>
        <time>2015-07-22T07:11:30Z</time>
      </trkpt>
      <trkpt lat="46.58992" lon="6.10474">
        <ele>1097</ele>
        <time>2015-07-22T07:11:32Z</time>
      </trkpt>
      <trkpt lat="46.58963" lon="6.10443">
        <ele>1097.96</ele>
        <time>2015-07-22T07:11:40Z</time>
      </trkpt>
      <trkpt lat="46.58953" lon="6.10434">
        <ele>1098.92</ele>
        <time>2015-07-22T07:11:43Z</time>
      </trkpt>
      <trkpt lat="46.58926" lon="6.10416">
        <ele>1099.4</ele>
        <time>2015-07-22T07:11:50Z</time>
      </trkpt>
      <trkpt lat="46.58875" lon="6.10398">
        <ele>1100.37</ele>
        <time>2015-07-22T07:12:03Z</time>
      </trkpt>
      <trkpt lat="46.58806" lon="6.1037">
        <ele>1100.85</ele>
        <time>2015-07-22T07:12:18Z</time>
      </trkpt>
      <trkpt lat="46.58764" lon="6.10339">
        <ele>1104.21</ele>
        <time>2015-07-22T07:12:31Z</time>
      </trkpt>
      <trkpt lat="46.58725" lon="6.10302">
        <ele>1106.61</ele>
        <time>2015-07-22T07:12:44Z</time>
      </trkpt>
      <trkpt lat="46.5869" lon="6.10271">
        <ele>1109.02</ele>
        <time>2015-07-22T07:12:59Z</time>
      </trkpt>
      <trkpt lat="46.5869" lon="6.10271">
        <ele>1109.02</ele>
        <time>2015-07-22T07:13:20Z</time>
      </trkpt>
      <trkpt lat="46.58691" lon="6.10271">
        <ele>1109.5</ele>
        <time>2015-07-22T07:13:24Z</time>
      </trkpt>
      <trkpt lat="46.58687" lon="6.10266">
        <ele>1109.02</ele>
        <time>2015-07-22T07:13:28Z</time>
      </trkpt>
      <trkpt lat="46.58645" lon="6.10209">
        <ele>1109.98</ele>
        <time>2015-07-22T07:13:44Z</time>
      </trkpt>
      <trkpt lat="46.58621" lon="6.1014">
        <ele>1111.42</ele>
        <time>2015-07-22T07:13:57Z</time>
      </trkpt>
      <trkpt lat="46.58593" lon="6.10053">
        <ele>1114.31</ele>
        <time>2015-07-22T07:14:14Z</time>
      </trkpt>
      <trkpt lat="46.58558" lon="6.09955">
        <ele>1117.19</ele>
        <time>2015-07-22T07:14:33Z</time>
      </trkpt>
      <trkpt lat="46.58532" lon="6.09892">
        <ele>1117.67</ele>
        <time>2015-07-22T07:14:49Z</time>
      </trkpt>
      <trkpt lat="46.58532" lon="6.09892">
        <ele>1117.67</ele>
        <time>2015-07-22T07:15:04Z</time>
      </trkpt>
      <trkpt lat="46.58532" lon="6.09892">
        <ele>1117.67</ele>
        <time>2015-07-22T07:15:16Z</time>
      </trkpt>
      <trkpt lat="46.58531" lon="6.0989">
        <ele>1117.67</ele>
        <time>2015-07-22T07:15:18Z</time>
      </trkpt>
      <trkpt lat="46.58509" lon="6.09841">
        <ele>1117.67</ele>
        <time>2015-07-22T07:15:29Z</time>
      </trkpt>
      <trkpt lat="46.58485" lon="6.09786">
        <ele>1116.23</ele>
        <time>2015-07-22T07:15:37Z</time>
      </trkpt>
      <trkpt lat="46.58441" lon="6.09685">
        <ele>1111.9</ele>
        <time>2015-07-22T07:15:48Z</time>
      </trkpt>
      <trkpt lat="46.5842" lon="6.09644">
        <ele>1108.54</ele>
        <time>2015-07-22T07:15:52Z</time>
      </trkpt>
      <trkpt lat="46.58414" lon="6.09633">
        <ele>1108.54</ele>
        <time>2015-07-22T07:15:53Z</time>
      </trkpt>
      <trkpt lat="46.5838" lon="6.09567">
        <ele>1105.65</ele>
        <time>2015-07-22T07:15:59Z</time>
      </trkpt>
      <trkpt lat="46.58353" lon="6.09459">
        <ele>1102.29</ele>
        <time>2015-07-22T07:16:07Z</time>
      </trkpt>
      <trkpt lat="46.58331" lon="6.09398">
        <ele>1100.37</ele>
        <time>2015-07-22T07:16:12Z</time>
      </trkpt>
      <trkpt lat="46.58263" lon="6.09254">
        <ele>1097.48</ele>
        <time>2015-07-22T07:16:25Z</time>
      </trkpt>
      <trkpt lat="46.58221" lon="6.091">
        <ele>1094.12</ele>
        <time>2015-07-22T07:16:37Z</time>
      </trkpt>
      <trkpt lat="46.58188" lon="6.08951">
        <ele>1095.08</ele>
        <time>2015-07-22T07:16:50Z</time>
      </trkpt>
      <trkpt lat="46.58159" lon="6.08821">
        <ele>1097.48</ele>
        <time>2015-07-22T07:17:06Z</time>
      </trkpt>
      <trkpt lat="46.58115" lon="6.08728">
        <ele>1099.4</ele>
        <time>2015-07-22T07:17:21Z</time>
      </trkpt>
      <trkpt lat="46.58099" lon="6.08711">
        <ele>1099.89</ele>
        <time>2015-07-22T07:17:25Z</time>
      </trkpt>
      <trkpt lat="46.58011" lon="6.08647">
        <ele>1101.33</ele>
        <time>2015-07-22T07:17:45Z</time>
      </trkpt>
      <trkpt lat="46.57939" lon="6.08617">
        <ele>1103.25</ele>
        <time>2015-07-22T07:18:01Z</time>
      </trkpt>
      <trkpt lat="46.57876" lon="6.0861">
        <ele>1105.65</ele>
        <time>2015-07-22T07:18:17Z</time>
      </trkpt>
      <trkpt lat="46.57828" lon="6.08606">
        <ele>1108.54</ele>
        <time>2015-07-22T07:18:32Z</time>
      </trkpt>
      <trkpt lat="46.57778" lon="6.08575">
        <ele>1110.94</ele>
        <time>2015-07-22T07:18:49Z</time>
      </trkpt>
      <trkpt lat="46.5774" lon="6.085">
        <ele>1110.94</ele>
        <time>2015-07-22T07:19:05Z</time>
      </trkpt>
      <trkpt lat="46.57727" lon="6.08451">
        <ele>1109.98</ele>
        <time>2015-07-22T07:19:11Z</time>
      </trkpt>
      <trkpt lat="46.57684" lon="6.08399">
        <ele>1107.58</ele>
        <time>2015-07-22T07:19:19Z</time>
      </trkpt>
      <trkpt lat="46.57569" lon="6.08347">
        <ele>1105.17</ele>
        <time>2015-07-22T07:19:34Z</time>
      </trkpt>
      <trkpt lat="46.57474" lon="6.08271">
        <ele>1103.73</ele>
        <time>2015-07-22T07:19:49Z</time>
      </trkpt>
      <trkpt lat="46.57397" lon="6.08136">
        <ele>1100.37</ele>
        <time>2015-07-22T07:20:05Z</time>
      </trkpt>
      <trkpt lat="46.57382" lon="6.08111">
        <ele>1100.37</ele>
        <time>2015-07-22T07:20:08Z</time>
      </trkpt>
      <trkpt lat="46.57319" lon="6.0808">
        <ele>1099.89</ele>
        <time>2015-07-22T07:20:17Z</time>
      </trkpt>
      <trkpt lat="46.57312" lon="6.08081">
        <ele>1099.89</ele>
        <time>2015-07-22T07:20:18Z</time>
      </trkpt>
      <trkpt lat="46.57282" lon="6.0809">
        <ele>1102.29</ele>
        <time>2015-07-22T07:20:24Z</time>
      </trkpt>
      <trkpt lat="46.57242" lon="6.08128">
        <ele>1104.69</ele>
        <time>2015-07-22T07:20:37Z</time>
      </trkpt>
      <trkpt lat="46.572" lon="6.08165">
        <ele>1107.1</ele>
        <time>2015-07-22T07:20:52Z</time>
      </trkpt>
      <trkpt lat="46.57154" lon="6.08173">
        <ele>1109.98</ele>
        <time>2015-07-22T07:21:08Z</time>
      </trkpt>
      <trkpt lat="46.57143" lon="6.08168">
        <ele>1110.46</ele>
        <time>2015-07-22T07:21:12Z</time>
      </trkpt>
      <trkpt lat="46.57108" lon="6.08124">
        <ele>1112.38</ele>
        <time>2015-07-22T07:21:26Z</time>
      </trkpt>
      <trkpt lat="46.57093" lon="6.08086">
        <ele>1111.9</ele>
        <time>2015-07-22T07:21:37Z</time>
      </trkpt>
      <trkpt lat="46.57085" lon="6.08068">
        <ele>1111.9</ele>
        <time>2015-07-22T07:21:41Z</time>
      </trkpt>
      <trkpt lat="46.5705" lon="6.07972">
        <ele>1109.5</ele>
        <time>2015-07-22T07:21:55Z</time>
      </trkpt>
      <trkpt lat="46.57038" lon="6.07936">
        <ele>1108.54</ele>
        <time>2015-07-22T07:21:59Z</time>
      </trkpt>
      <trkpt lat="46.57033" lon="6.07895">
        <ele>1107.58</ele>
        <time>2015-07-22T07:22:03Z</time>
      </trkpt>
      <trkpt lat="46.57034" lon="6.07861">
        <ele>1106.61</ele>
        <time>2015-07-22T07:22:06Z</time>
      </trkpt>
      <trkpt lat="46.57025" lon="6.07815">
        <ele>1104.69</ele>
        <time>2015-07-22T07:22:10Z</time>
      </trkpt>
      <trkpt lat="46.56997" lon="6.07787">
        <ele>1103.73</ele>
        <time>2015-07-22T07:22:14Z</time>
      </trkpt>
      <trkpt lat="46.56919" lon="6.07747">
        <ele>1103.25</ele>
        <time>2015-07-22T07:22:25Z</time>
      </trkpt>
      <trkpt lat="46.56893" lon="6.07731">
        <ele>1102.29</ele>
        <time>2015-07-22T07:22:29Z</time>
      </trkpt>
      <trkpt lat="46.56843" lon="6.07738">
        <ele>1100.85</ele>
        <time>2015-07-22T07:22:36Z</time>
      </trkpt>
      <trkpt lat="46.56832" lon="6.0775">
        <ele>1099.4</ele>
        <time>2015-07-22T07:22:38Z</time>
      </trkpt>
      <trkpt lat="46.56753" lon="6.07863">
        <ele>1098.44</ele>
        <time>2015-07-22T07:22:55Z</time>
      </trkpt>
      <trkpt lat="46.56681" lon="6.07964">
        <ele>1097</ele>
        <time>2015-07-22T07:23:11Z</time>
      </trkpt>
      <trkpt lat="46.56656" lon="6.07996">
        <ele>1096.52</ele>
        <time>2015-07-22T07:23:16Z</time>
      </trkpt>
      <trkpt lat="46.5661" lon="6.07984">
        <ele>1094.12</ele>
        <time>2015-07-22T07:23:23Z</time>
      </trkpt>
      <trkpt lat="46.56587" lon="6.07928">
        <ele>1090.27</ele>
        <time>2015-07-22T07:23:28Z</time>
      </trkpt>
      <trkpt lat="46.5657" lon="6.07894">
        <ele>1087.39</ele>
        <time>2015-07-22T07:23:31Z</time>
      </trkpt>
      <trkpt lat="46.56564" lon="6.07883">
        <ele>1086.91</ele>
        <time>2015-07-22T07:23:32Z</time>
      </trkpt>
      <trkpt lat="46.56553" lon="6.07863">
        <ele>1085.95</ele>
        <time>2015-07-22T07:23:34Z</time>
      </trkpt>
      <trkpt lat="46.56513" lon="6.07844">
        <ele>1081.62</ele>
        <time>2015-07-22T07:23:39Z</time>
      </trkpt>
      <trkpt lat="46.56478" lon="6.07858">
        <ele>1080.66</ele>
        <time>2015-07-22T07:23:43Z</time>
      </trkpt>
      <trkpt lat="46.5646" lon="6.07865">
        <ele>1079.22</ele>
        <time>2015-07-22T07:23:45Z</time>
      </trkpt>
      <trkpt lat="46.56442" lon="6.07868">
        <ele>1078.26</ele>
        <time>2015-07-22T07:23:47Z</time>
      </trkpt>
      <trkpt lat="46.56416" lon="6.07864">
        <ele>1077.78</ele>
        <time>2015-07-22T07:23:50Z</time>
      </trkpt>
      <trkpt lat="46.56351" lon="6.07826">
        <ele>1080.66</ele>
        <time>2015-07-22T07:24:02Z</time>
      </trkpt>
      <trkpt lat="46.56325" lon="6.07775">
        <ele>1083.06</ele>
        <time>2015-07-22T07:24:15Z</time>
      </trkpt>
      <trkpt lat="46.56309" lon="6.07709">
        <ele>1084.5</ele>
        <time>2015-07-22T07:24:30Z</time>
      </trkpt>
      <trkpt lat="46.56302" lon="6.07648">
        <ele>1084.5</ele>
        <time>2015-07-22T07:24:43Z</time>
      </trkpt>
      <trkpt lat="46.56305" lon="6.07635">
        <ele>1084.02</ele>
        <time>2015-07-22T07:24:45Z</time>
      </trkpt>
      <trkpt lat="46.56311" lon="6.07616">
        <ele>1083.06</ele>
        <time>2015-07-22T07:24:48Z</time>
      </trkpt>
      <trkpt lat="46.56343" lon="6.07552">
        <ele>1081.62</ele>
        <time>2015-07-22T07:25:01Z</time>
      </trkpt>
      <trkpt lat="46.56347" lon="6.07549">
        <ele>1081.62</ele>
        <time>2015-07-22T07:25:11Z</time>
      </trkpt>
      <trkpt lat="46.56342" lon="6.07552">
        <ele>1081.62</ele>
        <time>2015-07-22T07:25:26Z</time>
      </trkpt>
      <trkpt lat="46.56342" lon="6.07552">
        <ele>1081.62</ele>
        <time>2015-07-22T07:25:43Z</time>
      </trkpt>
      <trkpt lat="46.56342" lon="6.07508">
        <ele>1080.18</ele>
        <time>2015-07-22T07:25:54Z</time>
      </trkpt>
      <trkpt lat="46.56333" lon="6.07497">
        <ele>1079.22</ele>
        <time>2015-07-22T07:25:56Z</time>
      </trkpt>
      <trkpt lat="46.56321" lon="6.0749">
        <ele>1077.78</ele>
        <time>2015-07-22T07:25:58Z</time>
      </trkpt>
      <trkpt lat="46.56277" lon="6.07467">
        <ele>1073.93</ele>
        <time>2015-07-22T07:26:04Z</time>
      </trkpt>
      <trkpt lat="46.56236" lon="6.07434">
        <ele>1071.05</ele>
        <time>2015-07-22T07:26:09Z</time>
      </trkpt>
      <trkpt lat="46.56205" lon="6.07402">
        <ele>1067.68</ele>
        <time>2015-07-22T07:26:13Z</time>
      </trkpt>
      <trkpt lat="46.5619" lon="6.07388">
        <ele>1066.72</ele>
        <time>2015-07-22T07:26:15Z</time>
      </trkpt>
      <trkpt lat="46.56145" lon="6.07392">
        <ele>1062.87</ele>
        <time>2015-07-22T07:26:20Z</time>
      </trkpt>
      <trkpt lat="46.56121" lon="6.07418">
        <ele>1059.51</ele>
        <time>2015-07-22T07:26:23Z</time>
      </trkpt>
      <trkpt lat="46.56056" lon="6.0743">
        <ele>1054.7</ele>
        <time>2015-07-22T07:26:29Z</time>
      </trkpt>
      <trkpt lat="46.56025" lon="6.07411">
        <ele>1052.3</ele>
        <time>2015-07-22T07:26:32Z</time>
      </trkpt>
      <trkpt lat="46.55989" lon="6.07376">
        <ele>1050.38</ele>
        <time>2015-07-22T07:26:36Z</time>
      </trkpt>
      <trkpt lat="46.55961" lon="6.07304">
        <ele>1047.49</ele>
        <time>2015-07-22T07:26:42Z</time>
      </trkpt>
      <trkpt lat="46.55952" lon="6.07222">
        <ele>1047.97</ele>
        <time>2015-07-22T07:26:49Z</time>
      </trkpt>
      <trkpt lat="46.55884" lon="6.07114">
        <ele>1046.05</ele>
        <time>2015-07-22T07:27:03Z</time>
      </trkpt>
      <trkpt lat="46.55845" lon="6.07068">
        <ele>1045.57</ele>
        <time>2015-07-22T07:27:11Z</time>
      </trkpt>
      <trkpt lat="46.5579" lon="6.07">
        <ele>1043.65</ele>
        <time>2015-07-22T07:27:23Z</time>
      </trkpt>
      <trkpt lat="46.55786" lon="6.0695">
        <ele>1042.21</ele>
        <time>2015-07-22T07:27:28Z</time>
      </trkpt>
      <trkpt lat="46.55823" lon="6.06802">
        <ele>1040.76</ele>
        <time>2015-07-22T07:27:43Z</time>
      </trkpt>
      <trkpt lat="46.55852" lon="6.06686">
        <ele>1039.32</ele>
        <time>2015-07-22T07:27:56Z</time>
      </trkpt>
      <trkpt lat="46.55848" lon="6.06664">
        <ele>1038.36</ele>
        <time>2015-07-22T07:28:04Z</time>
      </trkpt>
      <trkpt lat="46.55848" lon="6.06664">
        <ele>1037.88</ele>
        <time>2015-07-22T07:28:27Z</time>
      </trkpt>
      <trkpt lat="46.55848" lon="6.06664">
        <ele>1037.88</ele>
        <time>2015-07-22T07:28:28Z</time>
      </trkpt>
      <trkpt lat="46.55847" lon="6.06654">
        <ele>1037.88</ele>
        <time>2015-07-22T07:28:32Z</time>
      </trkpt>
      <trkpt lat="46.55833" lon="6.0662">
        <ele>1035.96</ele>
        <time>2015-07-22T07:28:40Z</time>
      </trkpt>
      <trkpt lat="46.55826" lon="6.06599">
        <ele>1035</ele>
        <time>2015-07-22T07:28:43Z</time>
      </trkpt>
      <trkpt lat="46.55813" lon="6.06564">
        <ele>1033.55</ele>
        <time>2015-07-22T07:28:47Z</time>
      </trkpt>
      <trkpt lat="46.55796" lon="6.06524">
        <ele>1031.15</ele>
        <time>2015-07-22T07:28:51Z</time>
      </trkpt>
      <trkpt lat="46.55788" lon="6.06503">
        <ele>1030.19</ele>
        <time>2015-07-22T07:28:53Z</time>
      </trkpt>
      <trkpt lat="46.55771" lon="6.06478">
        <ele>1028.75</ele>
        <time>2015-07-22T07:28:56Z</time>
      </trkpt>
      <trkpt lat="46.55727" lon="6.06477">
        <ele>1028.27</ele>
        <time>2015-07-22T07:29:02Z</time>
      </trkpt>
      <trkpt lat="46.55722" lon="6.06482">
        <ele>1028.27</ele>
        <time>2015-07-22T07:29:03Z</time>
      </trkpt>
      <trkpt lat="46.55669" lon="6.06545">
        <ele>1027.31</ele>
        <time>2015-07-22T07:29:15Z</time>
      </trkpt>
      <trkpt lat="46.55667" lon="6.06546">
        <ele>1023.94</ele>
        <time>2015-07-22T07:29:23Z</time>
      </trkpt>
      <trkpt lat="46.55667" lon="6.06546">
        <ele>1023.94</ele>
        <time>2015-07-22T07:29:24Z</time>
      </trkpt>
      <trkpt lat="46.55652" lon="6.06578">
        <ele>1027.31</ele>
        <time>2015-07-22T07:30:27Z</time>
      </trkpt>
      <trkpt lat="46.55659" lon="6.06562">
        <ele>1026.83</ele>
        <time>2015-07-22T07:30:29Z</time>
      </trkpt>
      <trkpt lat="46.55667" lon="6.06542">
        <ele>1026.83</ele>
        <time>2015-07-22T07:30:35Z</time>
      </trkpt>
      <trkpt lat="46.55676" lon="6.06543">
        <ele>1027.31</ele>
        <time>2015-07-22T07:30:44Z</time>
      </trkpt>
      <trkpt lat="46.55691" lon="6.06523">
        <ele>1027.79</ele>
        <time>2015-07-22T07:30:54Z</time>
      </trkpt>
      <trkpt lat="46.55738" lon="6.06477">
        <ele>1028.75</ele>
        <time>2015-07-22T07:31:12Z</time>
      </trkpt>
      <trkpt lat="46.5578" lon="6.06489">
        <ele>1029.23</ele>
        <time>2015-07-22T07:31:25Z</time>
      </trkpt>
      <trkpt lat="46.558" lon="6.06541">
        <ele>1030.67</ele>
        <time>2015-07-22T07:31:38Z</time>
      </trkpt>
      <trkpt lat="46.55819" lon="6.06589">
        <ele>1034.04</ele>
        <time>2015-07-22T07:31:51Z</time>
      </trkpt>
      <trkpt lat="46.55842" lon="6.0664">
        <ele>1036.44</ele>
        <time>2015-07-22T07:32:06Z</time>
      </trkpt>
      <trkpt lat="46.55849" lon="6.06688">
        <ele>1038.36</ele>
        <time>2015-07-22T07:32:19Z</time>
      </trkpt>
      <trkpt lat="46.55826" lon="6.06777">
        <ele>1040.76</ele>
        <time>2015-07-22T07:32:40Z</time>
      </trkpt>
      <trkpt lat="46.55802" lon="6.0687">
        <ele>1040.76</ele>
        <time>2015-07-22T07:32:57Z</time>
      </trkpt>
      <trkpt lat="46.55782" lon="6.06968">
        <ele>1042.21</ele>
        <time>2015-07-22T07:33:15Z</time>
      </trkpt>
      <trkpt lat="46.55797" lon="6.07017">
        <ele>1044.13</ele>
        <time>2015-07-22T07:33:27Z</time>
      </trkpt>
      <trkpt lat="46.55844" lon="6.07071">
        <ele>1045.09</ele>
        <time>2015-07-22T07:33:45Z</time>
      </trkpt>
      <trkpt lat="46.55854" lon="6.07083">
        <ele>1045.09</ele>
        <time>2015-07-22T07:33:48Z</time>
      </trkpt>
      <trkpt lat="46.559" lon="6.07142">
        <ele>1046.05</ele>
        <time>2015-07-22T07:34:03Z</time>
      </trkpt>
      <trkpt lat="46.55932" lon="6.07191">
        <ele>1046.05</ele>
        <time>2015-07-22T07:34:13Z</time>
      </trkpt>
      <trkpt lat="46.55948" lon="6.07221">
        <ele>1047.49</ele>
        <time>2015-07-22T07:34:19Z</time>
      </trkpt>
      <trkpt lat="46.55953" lon="6.07231">
        <ele>1047.49</ele>
        <time>2015-07-22T07:34:21Z</time>
      </trkpt>
      <trkpt lat="46.55961" lon="6.07255">
        <ele>1047.49</ele>
        <time>2015-07-22T07:34:25Z</time>
      </trkpt>
      <trkpt lat="46.55959" lon="6.07327">
        <ele>1047.49</ele>
        <time>2015-07-22T07:34:35Z</time>
      </trkpt>
      <trkpt lat="46.55972" lon="6.07363">
        <ele>1048.45</ele>
        <time>2015-07-22T07:34:42Z</time>
      </trkpt>
      <trkpt lat="46.56023" lon="6.07413">
        <ele>1051.82</ele>
        <time>2015-07-22T07:35:02Z</time>
      </trkpt>
      <trkpt lat="46.56063" lon="6.07435">
        <ele>1054.22</ele>
        <time>2015-07-22T07:35:19Z</time>
      </trkpt>
      <trkpt lat="46.56095" lon="6.07434">
        <ele>1056.63</ele>
        <time>2015-07-22T07:35:33Z</time>
      </trkpt>
      <trkpt lat="46.56128" lon="6.07415">
        <ele>1059.51</ele>
        <time>2015-07-22T07:35:49Z</time>
      </trkpt>
      <trkpt lat="46.56158" lon="6.07386">
        <ele>1062.39</ele>
        <time>2015-07-22T07:36:05Z</time>
      </trkpt>
      <trkpt lat="46.56184" lon="6.07384">
        <ele>1064.8</ele>
        <time>2015-07-22T07:36:18Z</time>
      </trkpt>
      <trkpt lat="46.56209" lon="6.07411">
        <ele>1067.2</ele>
        <time>2015-07-22T07:36:32Z</time>
      </trkpt>
      <trkpt lat="46.56234" lon="6.07433">
        <ele>1070.08</ele>
        <time>2015-07-22T07:36:45Z</time>
      </trkpt>
      <trkpt lat="46.56254" lon="6.07448">
        <ele>1071.53</ele>
        <time>2015-07-22T07:36:55Z</time>
      </trkpt>
      <trkpt lat="46.56279" lon="6.07475">
        <ele>1073.93</ele>
        <time>2015-07-22T07:37:09Z</time>
      </trkpt>
      <trkpt lat="46.56305" lon="6.07487">
        <ele>1075.85</ele>
        <time>2015-07-22T07:37:21Z</time>
      </trkpt>
      <trkpt lat="46.56332" lon="6.07504">
        <ele>1078.26</ele>
        <time>2015-07-22T07:37:34Z</time>
      </trkpt>
      <trkpt lat="46.56344" lon="6.07538">
        <ele>1080.66</ele>
        <time>2015-07-22T07:37:46Z</time>
      </trkpt>
      <trkpt lat="46.56339" lon="6.07551">
        <ele>1081.14</ele>
        <time>2015-07-22T07:37:51Z</time>
      </trkpt>
      <trkpt lat="46.56332" lon="6.07554">
        <ele>1081.62</ele>
        <time>2015-07-22T07:37:55Z</time>
      </trkpt>
      <trkpt lat="46.56326" lon="6.07557">
        <ele>1082.1</ele>
        <time>2015-07-22T07:37:58Z</time>
      </trkpt>
      <trkpt lat="46.56324" lon="6.07561">
        <ele>1082.1</ele>
        <time>2015-07-22T07:38:01Z</time>
      </trkpt>
      <trkpt lat="46.56334" lon="6.07569">
        <ele>1081.62</ele>
        <time>2015-07-22T07:38:10Z</time>
      </trkpt>
      <trkpt lat="46.56336" lon="6.07566">
        <ele>1081.62</ele>
        <time>2015-07-22T07:38:23Z</time>
      </trkpt>
      <trkpt lat="46.56336" lon="6.07566">
        <ele>1081.14</ele>
        <time>2015-07-22T07:38:45Z</time>
      </trkpt>
      <trkpt lat="46.56329" lon="6.07577">
        <ele>1081.62</ele>
        <time>2015-07-22T07:39:47Z</time>
      </trkpt>
      <trkpt lat="46.56337" lon="6.0756">
        <ele>1081.62</ele>
        <time>2015-07-22T07:40:02Z</time>
      </trkpt>
      <trkpt lat="46.56334" lon="6.07555">
        <ele>1082.1</ele>
        <time>2015-07-22T07:40:16Z</time>
      </trkpt>
      <trkpt lat="46.56327" lon="6.07557">
        <ele>1082.1</ele>
        <time>2015-07-22T07:40:21Z</time>
      </trkpt>
      <trkpt lat="46.56303" lon="6.07548">
        <ele>1084.99</ele>
        <time>2015-07-22T07:40:36Z</time>
      </trkpt>
      <trkpt lat="46.56301" lon="6.07548">
        <ele>1084.99</ele>
        <time>2015-07-22T07:40:37Z</time>
      </trkpt>
      <trkpt lat="46.56278" lon="6.07572">
        <ele>1087.39</ele>
        <time>2015-07-22T07:40:53Z</time>
      </trkpt>
      <trkpt lat="46.56262" lon="6.07609">
        <ele>1089.79</ele>
        <time>2015-07-22T07:41:10Z</time>
      </trkpt>
      <trkpt lat="46.56248" lon="6.07653">
        <ele>1093.16</ele>
        <time>2015-07-22T07:41:29Z</time>
      </trkpt>
      <trkpt lat="46.56238" lon="6.07699">
        <ele>1095.56</ele>
        <time>2015-07-22T07:41:47Z</time>
      </trkpt>
      <trkpt lat="46.56228" lon="6.07744">
        <ele>1098.44</ele>
        <time>2015-07-22T07:42:06Z</time>
      </trkpt>
      <trkpt lat="46.56219" lon="6.07779">
        <ele>1100.85</ele>
        <time>2015-07-22T07:42:20Z</time>
      </trkpt>
      <trkpt lat="46.56214" lon="6.07796">
        <ele>1101.81</ele>
        <time>2015-07-22T07:42:27Z</time>
      </trkpt>
      <trkpt lat="46.56209" lon="6.07822">
        <ele>1103.73</ele>
        <time>2015-07-22T07:42:40Z</time>
      </trkpt>
      <trkpt lat="46.56208" lon="6.07824">
        <ele>1104.21</ele>
        <time>2015-07-22T07:42:41Z</time>
      </trkpt>
      <trkpt lat="46.56201" lon="6.07849">
        <ele>1106.13</ele>
        <time>2015-07-22T07:42:54Z</time>
      </trkpt>
      <trkpt lat="46.5619" lon="6.07876">
        <ele>1108.06</ele>
        <time>2015-07-22T07:43:07Z</time>
      </trkpt>
      <trkpt lat="46.56188" lon="6.07883">
        <ele>1108.54</ele>
        <time>2015-07-22T07:43:10Z</time>
      </trkpt>
      <trkpt lat="46.5617" lon="6.07906">
        <ele>1110.94</ele>
        <time>2015-07-22T07:43:24Z</time>
      </trkpt>
      <trkpt lat="46.56153" lon="6.07932">
        <ele>1112.86</ele>
        <time>2015-07-22T07:43:37Z</time>
      </trkpt>
      <trkpt lat="46.56141" lon="6.07967">
        <ele>1114.79</ele>
        <time>2015-07-22T07:43:50Z</time>
      </trkpt>
      <trkpt lat="46.56138" lon="6.08014">
        <ele>1117.67</ele>
        <time>2015-07-22T07:44:08Z</time>
      </trkpt>
      <trkpt lat="46.56138" lon="6.08055">
        <ele>1120.07</ele>
        <time>2015-07-22T07:44:24Z</time>
      </trkpt>
      <trkpt lat="46.56141" lon="6.08092">
        <ele>1122.48</ele>
        <time>2015-07-22T07:44:39Z</time>
      </trkpt>
      <trkpt lat="46.56144" lon="6.08118">
        <ele>1124.4</ele>
        <time>2015-07-22T07:44:51Z</time>
      </trkpt>
      <trkpt lat="46.56145" lon="6.08127">
        <ele>1124.88</ele>
        <time>2015-07-22T07:44:55Z</time>
      </trkpt>
      <trkpt lat="46.5615" lon="6.08164">
        <ele>1127.28</ele>
        <time>2015-07-22T07:45:09Z</time>
      </trkpt>
      <trkpt lat="46.56149" lon="6.08192">
        <ele>1129.21</ele>
        <time>2015-07-22T07:45:21Z</time>
      </trkpt>
      <trkpt lat="46.56149" lon="6.0822">
        <ele>1130.65</ele>
        <time>2015-07-22T07:45:31Z</time>
      </trkpt>
      <trkpt lat="46.56147" lon="6.08248">
        <ele>1132.57</ele>
        <time>2015-07-22T07:45:42Z</time>
      </trkpt>
      <trkpt lat="46.56142" lon="6.08281">
        <ele>1134.97</ele>
        <time>2015-07-22T07:45:55Z</time>
      </trkpt>
      <trkpt lat="46.56142" lon="6.083">
        <ele>1135.94</ele>
        <time>2015-07-22T07:46:03Z</time>
      </trkpt>
      <trkpt lat="46.56133" lon="6.08304">
        <ele>1136.9</ele>
        <time>2015-07-22T07:46:09Z</time>
      </trkpt>
      <trkpt lat="46.56133" lon="6.08307">
        <ele>1136.9</ele>
        <time>2015-07-22T07:46:10Z</time>
      </trkpt>
      <trkpt lat="46.56135" lon="6.08316">
        <ele>1137.38</ele>
        <time>2015-07-22T07:46:12Z</time>
      </trkpt>
      <trkpt lat="46.56138" lon="6.08332">
        <ele>1137.86</ele>
        <time>2015-07-22T07:46:16Z</time>
      </trkpt>
      <trkpt lat="46.56149" lon="6.08371">
        <ele>1140.26</ele>
        <time>2015-07-22T07:46:31Z</time>
      </trkpt>
      <trkpt lat="46.56153" lon="6.08402">
        <ele>1142.66</ele>
        <time>2015-07-22T07:46:43Z</time>
      </trkpt>
      <trkpt lat="46.56147" lon="6.08436">
        <ele>1144.59</ele>
        <time>2015-07-22T07:46:57Z</time>
      </trkpt>
      <trkpt lat="46.56135" lon="6.0846">
        <ele>1146.99</ele>
        <time>2015-07-22T07:47:10Z</time>
      </trkpt>
      <trkpt lat="46.56121" lon="6.08491">
        <ele>1148.91</ele>
        <time>2015-07-22T07:47:24Z</time>
      </trkpt>
      <trkpt lat="46.56107" lon="6.08524">
        <ele>1151.32</ele>
        <time>2015-07-22T07:47:37Z</time>
      </trkpt>
      <trkpt lat="46.56086" lon="6.08538">
        <ele>1152.76</ele>
        <time>2015-07-22T07:47:48Z</time>
      </trkpt>
      <trkpt lat="46.56076" lon="6.08543">
        <ele>1153.24</ele>
        <time>2015-07-22T07:47:54Z</time>
      </trkpt>
      <trkpt lat="46.56068" lon="6.08538">
        <ele>1153.72</ele>
        <time>2015-07-22T07:48:00Z</time>
      </trkpt>
      <trkpt lat="46.56063" lon="6.08533">
        <ele>1154.2</ele>
        <time>2015-07-22T07:48:04Z</time>
      </trkpt>
      <trkpt lat="46.56045" lon="6.08517">
        <ele>1155.64</ele>
        <time>2015-07-22T07:48:17Z</time>
      </trkpt>
      <trkpt lat="46.56039" lon="6.0851">
        <ele>1156.12</ele>
        <time>2015-07-22T07:48:22Z</time>
      </trkpt>
      <trkpt lat="46.56011" lon="6.08492">
        <ele>1158.05</ele>
        <time>2015-07-22T07:48:36Z</time>
      </trkpt>
      <trkpt lat="46.56003" lon="6.08489">
        <ele>1159.01</ele>
        <time>2015-07-22T07:48:40Z</time>
      </trkpt>
      <trkpt lat="46.55989" lon="6.08486">
        <ele>1159.97</ele>
        <time>2015-07-22T07:48:47Z</time>
      </trkpt>
      <trkpt lat="46.55969" lon="6.0849">
        <ele>1161.41</ele>
        <time>2015-07-22T07:48:57Z</time>
      </trkpt>
      <trkpt lat="46.55962" lon="6.08492">
        <ele>1161.89</ele>
        <time>2015-07-22T07:49:01Z</time>
      </trkpt>
      <trkpt lat="46.5596" lon="6.08485">
        <ele>1162.37</ele>
        <time>2015-07-22T07:49:06Z</time>
      </trkpt>
      <trkpt lat="46.55947" lon="6.08482">
        <ele>1163.33</ele>
        <time>2015-07-22T07:49:12Z</time>
      </trkpt>
      <trkpt lat="46.55942" lon="6.08473">
        <ele>1164.29</ele>
        <time>2015-07-22T07:49:17Z</time>
      </trkpt>
      <trkpt lat="46.55921" lon="6.08457">
        <ele>1166.7</ele>
        <time>2015-07-22T07:49:31Z</time>
      </trkpt>
      <trkpt lat="46.55908" lon="6.08446">
        <ele>1168.14</ele>
        <time>2015-07-22T07:49:40Z</time>
      </trkpt>
      <trkpt lat="46.55903" lon="6.08442">
        <ele>1168.62</ele>
        <time>2015-07-22T07:49:44Z</time>
      </trkpt>
      <trkpt lat="46.55876" lon="6.08423">
        <ele>1171.02</ele>
        <time>2015-07-22T07:49:58Z</time>
      </trkpt>
      <trkpt lat="46.55863" lon="6.08409">
        <ele>1172.47</ele>
        <time>2015-07-22T07:50:06Z</time>
      </trkpt>
      <trkpt lat="46.55856" lon="6.084">
        <ele>1173.43</ele>
        <time>2015-07-22T07:50:11Z</time>
      </trkpt>
      <trkpt lat="46.55851" lon="6.08393">
        <ele>1173.91</ele>
        <time>2015-07-22T07:50:15Z</time>
      </trkpt>
      <trkpt lat="46.55823" lon="6.0839">
        <ele>1176.79</ele>
        <time>2015-07-22T07:50:30Z</time>
      </trkpt>
      <trkpt lat="46.55811" lon="6.08391">
        <ele>1177.75</ele>
        <time>2015-07-22T07:50:37Z</time>
      </trkpt>
      <trkpt lat="46.55799" lon="6.08393">
        <ele>1178.71</ele>
        <time>2015-07-22T07:50:45Z</time>
      </trkpt>
      <trkpt lat="46.55776" lon="6.08396">
        <ele>1181.12</ele>
        <time>2015-07-22T07:51:00Z</time>
      </trkpt>
      <trkpt lat="46.55773" lon="6.08397">
        <ele>1181.12</ele>
        <time>2015-07-22T07:51:02Z</time>
      </trkpt>
      <trkpt lat="46.5576" lon="6.0839">
        <ele>1183.04</ele>
        <time>2015-07-22T07:51:12Z</time>
      </trkpt>
      <trkpt lat="46.55756" lon="6.08389">
        <ele>1183.52</ele>
        <time>2015-07-22T07:51:14Z</time>
      </trkpt>
      <trkpt lat="46.55743" lon="6.08379">
        <ele>1184.96</ele>
        <time>2015-07-22T07:51:21Z</time>
      </trkpt>
      <trkpt lat="46.55713" lon="6.08376">
        <ele>1186.88</ele>
        <time>2015-07-22T07:51:36Z</time>
      </trkpt>
      <trkpt lat="46.55709" lon="6.08382">
        <ele>1187.37</ele>
        <time>2015-07-22T07:51:40Z</time>
      </trkpt>
      <trkpt lat="46.55708" lon="6.08386">
        <ele>1187.85</ele>
        <time>2015-07-22T07:51:42Z</time>
      </trkpt>
      <trkpt lat="46.55707" lon="6.08391">
        <ele>1188.33</ele>
        <time>2015-07-22T07:51:44Z</time>
      </trkpt>
      <trkpt lat="46.55712" lon="6.084">
        <ele>1188.81</ele>
        <time>2015-07-22T07:51:49Z</time>
      </trkpt>
      <trkpt lat="46.55721" lon="6.0841">
        <ele>1189.77</ele>
        <time>2015-07-22T07:51:55Z</time>
      </trkpt>
      <trkpt lat="46.55729" lon="6.08413">
        <ele>1190.73</ele>
        <time>2015-07-22T07:52:00Z</time>
      </trkpt>
      <trkpt lat="46.55755" lon="6.08417">
        <ele>1191.69</ele>
        <time>2015-07-22T07:52:13Z</time>
      </trkpt>
      <trkpt lat="46.55759" lon="6.08418">
        <ele>1191.69</ele>
        <time>2015-07-22T07:52:17Z</time>
      </trkpt>
      <trkpt lat="46.55762" lon="6.08419">
        <ele>1191.21</ele>
        <time>2015-07-22T07:52:28Z</time>
      </trkpt>
      <trkpt lat="46.55784" lon="6.08401">
        <ele>1192.17</ele>
        <time>2015-07-22T07:58:21Z</time>
      </trkpt>
      <trkpt lat="46.55781" lon="6.08412">
        <ele>1192.17</ele>
        <time>2015-07-22T07:58:22Z</time>
      </trkpt>
      <trkpt lat="46.55778" lon="6.08411">
        <ele>1195.54</ele>
        <time>2015-07-22T07:58:32Z</time>
      </trkpt>
      <trkpt lat="46.55777" lon="6.08414">
        <ele>1198.9</ele>
        <time>2015-07-22T07:58:39Z</time>
      </trkpt>
      <trkpt lat="46.55779" lon="6.08414">
        <ele>1202.27</ele>
        <time>2015-07-22T07:58:47Z</time>
      </trkpt>
      <trkpt lat="46.55782" lon="6.08411">
        <ele>1205.15</ele>
        <time>2015-07-22T07:58:54Z</time>
      </trkpt>
      <trkpt lat="46.55779" lon="6.08414">
        <ele>1208.51</ele>
        <time>2015-07-22T07:59:01Z</time>
      </trkpt>
      <trkpt lat="46.55773" lon="6.08417">
        <ele>1210.92</ele>
        <time>2015-07-22T07:59:16Z</time>
      </trkpt>
      <trkpt lat="46.55774" lon="6.08417">
        <ele>1210.92</ele>
        <time>2015-07-22T07:59:48Z</time>
      </trkpt>
      <trkpt lat="46.55774" lon="6.08419">
        <ele>1210.92</ele>
        <time>2015-07-22T08:00:28Z</time>
      </trkpt>
      <trkpt lat="46.55774" lon="6.08419">
        <ele>1210.92</ele>
        <time>2015-07-22T08:01:03Z</time>
      </trkpt>
      <trkpt lat="46.55775" lon="6.08419">
        <ele>1210.92</ele>
        <time>2015-07-22T08:01:45Z</time>
      </trkpt>
      <trkpt lat="46.55774" lon="6.08419">
        <ele>1210.92</ele>
        <time>2015-07-22T08:02:22Z</time>
      </trkpt>
      <trkpt lat="46.55775" lon="6.08422">
        <ele>1210.92</ele>
        <time>2015-07-22T08:02:40Z</time>
      </trkpt>
      <trkpt lat="46.55776" lon="6.08423">
        <ele>1210.92</ele>
        <time>2015-07-22T08:02:50Z</time>
      </trkpt>
      <trkpt lat="46.55782" lon="6.08427">
        <ele>1211.4</ele>
        <time>2015-07-22T08:02:55Z</time>
      </trkpt>
      <trkpt lat="46.55797" lon="6.08452">
        <ele>1212.84</ele>
        <time>2015-07-22T08:03:08Z</time>
      </trkpt>
      <trkpt lat="46.55797" lon="6.08463">
        <ele>1213.8</ele>
        <time>2015-07-22T08:03:13Z</time>
      </trkpt>
      <trkpt lat="46.55779" lon="6.08472">
        <ele>1215.24</ele>
        <time>2015-07-22T08:03:25Z</time>
      </trkpt>
      <trkpt lat="46.5576" lon="6.0847">
        <ele>1216.69</ele>
        <time>2015-07-22T08:03:35Z</time>
      </trkpt>
      <trkpt lat="46.55751" lon="6.08469">
        <ele>1217.65</ele>
        <time>2015-07-22T08:03:40Z</time>
      </trkpt>
      <trkpt lat="46.55733" lon="6.08454">
        <ele>1219.57</ele>
        <time>2015-07-22T08:03:54Z</time>
      </trkpt>
      <trkpt lat="46.55725" lon="6.08446">
        <ele>1220.53</ele>
        <time>2015-07-22T08:04:00Z</time>
      </trkpt>
      <trkpt lat="46.55709" lon="6.08429">
        <ele>1222.93</ele>
        <time>2015-07-22T08:04:12Z</time>
      </trkpt>
      <trkpt lat="46.55707" lon="6.08426">
        <ele>1222.93</ele>
        <time>2015-07-22T08:04:14Z</time>
      </trkpt>
      <trkpt lat="46.55686" lon="6.08412">
        <ele>1225.34</ele>
        <time>2015-07-22T08:04:27Z</time>
      </trkpt>
      <trkpt lat="46.55674" lon="6.0841">
        <ele>1226.78</ele>
        <time>2015-07-22T08:04:34Z</time>
      </trkpt>
      <trkpt lat="46.55669" lon="6.08411">
        <ele>1227.26</ele>
        <time>2015-07-22T08:04:37Z</time>
      </trkpt>
      <trkpt lat="46.55664" lon="6.08406">
        <ele>1227.74</ele>
        <time>2015-07-22T08:04:41Z</time>
      </trkpt>
      <trkpt lat="46.55654" lon="6.08403">
        <ele>1228.7</ele>
        <time>2015-07-22T08:04:47Z</time>
      </trkpt>
      <trkpt lat="46.55625" lon="6.08413">
        <ele>1229.66</ele>
        <time>2015-07-22T08:04:53Z</time>
      </trkpt>
      <trkpt lat="46.55616" lon="6.08412">
        <ele>1230.62</ele>
        <time>2015-07-22T08:04:59Z</time>
      </trkpt>
      <trkpt lat="46.5561" lon="6.08405">
        <ele>1231.59</ele>
        <time>2015-07-22T08:05:04Z</time>
      </trkpt>
      <trkpt lat="46.55604" lon="6.08398">
        <ele>1232.07</ele>
        <time>2015-07-22T08:05:09Z</time>
      </trkpt>
      <trkpt lat="46.55582" lon="6.08402">
        <ele>1234.47</ele>
        <time>2015-07-22T08:05:22Z</time>
      </trkpt>
      <trkpt lat="46.55572" lon="6.08413">
        <ele>1235.91</ele>
        <time>2015-07-22T08:05:29Z</time>
      </trkpt>
      <trkpt lat="46.55557" lon="6.08432">
        <ele>1237.35</ele>
        <time>2015-07-22T08:05:40Z</time>
      </trkpt>
      <trkpt lat="46.55553" lon="6.0844">
        <ele>1237.83</ele>
        <time>2015-07-22T08:05:44Z</time>
      </trkpt>
      <trkpt lat="46.55544" lon="6.08457">
        <ele>1238.8</ele>
        <time>2015-07-22T08:05:52Z</time>
      </trkpt>
      <trkpt lat="46.55543" lon="6.08466">
        <ele>1239.28</ele>
        <time>2015-07-22T08:05:55Z</time>
      </trkpt>
      <trkpt lat="46.55542" lon="6.08471">
        <ele>1239.76</ele>
        <time>2015-07-22T08:05:59Z</time>
      </trkpt>
      <trkpt lat="46.55525" lon="6.08494">
        <ele>1240.24</ele>
        <time>2015-07-22T08:06:11Z</time>
      </trkpt>
      <trkpt lat="46.55517" lon="6.08499">
        <ele>1240.24</ele>
        <time>2015-07-22T08:06:22Z</time>
      </trkpt>
      <trkpt lat="46.55516" lon="6.085">
        <ele>1240.24</ele>
        <time>2015-07-22T08:06:25Z</time>
      </trkpt>
      <trkpt lat="46.55507" lon="6.08506">
        <ele>1240.24</ele>
        <time>2015-07-22T08:06:28Z</time>
      </trkpt>
      <trkpt lat="46.55488" lon="6.08515">
        <ele>1240.24</ele>
        <time>2015-07-22T08:06:37Z</time>
      </trkpt>
      <trkpt lat="46.55459" lon="6.08534">
        <ele>1240.24</ele>
        <time>2015-07-22T08:06:50Z</time>
      </trkpt>
      <trkpt lat="46.55455" lon="6.08537">
        <ele>1240.24</ele>
        <time>2015-07-22T08:06:52Z</time>
      </trkpt>
      <trkpt lat="46.55427" lon="6.08569">
        <ele>1240.72</ele>
        <time>2015-07-22T08:07:06Z</time>
      </trkpt>
      <trkpt lat="46.55418" lon="6.08599">
        <ele>1240.72</ele>
        <time>2015-07-22T08:07:16Z</time>
      </trkpt>
      <trkpt lat="46.55418" lon="6.08599">
        <ele>1240.72</ele>
        <time>2015-07-22T08:07:28Z</time>
      </trkpt>
      <trkpt lat="46.55416" lon="6.08602">
        <ele>1240.72</ele>
        <time>2015-07-22T08:07:30Z</time>
      </trkpt>
      <trkpt lat="46.55409" lon="6.0862">
        <ele>1240.72</ele>
        <time>2015-07-22T08:07:36Z</time>
      </trkpt>
      <trkpt lat="46.55392" lon="6.08653">
        <ele>1241.68</ele>
        <time>2015-07-22T08:07:48Z</time>
      </trkpt>
      <trkpt lat="46.55388" lon="6.08655">
        <ele>1241.68</ele>
        <time>2015-07-22T08:07:50Z</time>
      </trkpt>
      <trkpt lat="46.55372" lon="6.08677">
        <ele>1240.72</ele>
        <time>2015-07-22T08:07:57Z</time>
      </trkpt>
      <trkpt lat="46.5534" lon="6.08716">
        <ele>1239.28</ele>
        <time>2015-07-22T08:08:08Z</time>
      </trkpt>
      <trkpt lat="46.55336" lon="6.08718">
        <ele>1238.8</ele>
        <time>2015-07-22T08:08:11Z</time>
      </trkpt>
      <trkpt lat="46.55312" lon="6.08718">
        <ele>1237.83</ele>
        <time>2015-07-22T08:08:19Z</time>
      </trkpt>
      <trkpt lat="46.55304" lon="6.08719">
        <ele>1236.87</ele>
        <time>2015-07-22T08:08:21Z</time>
      </trkpt>
      <trkpt lat="46.55262" lon="6.08748">
        <ele>1234.95</ele>
        <time>2015-07-22T08:08:30Z</time>
      </trkpt>
      <trkpt lat="46.55231" lon="6.08776">
        <ele>1235.91</ele>
        <time>2015-07-22T08:08:41Z</time>
      </trkpt>
      <trkpt lat="46.5522" lon="6.08783">
        <ele>1235.91</ele>
        <time>2015-07-22T08:08:44Z</time>
      </trkpt>
      <trkpt lat="46.55202" lon="6.08786">
        <ele>1236.39</ele>
        <time>2015-07-22T08:08:50Z</time>
      </trkpt>
      <trkpt lat="46.55155" lon="6.0878">
        <ele>1234.95</ele>
        <time>2015-07-22T08:09:04Z</time>
      </trkpt>
      <trkpt lat="46.55131" lon="6.08791">
        <ele>1234.95</ele>
        <time>2015-07-22T08:09:11Z</time>
      </trkpt>
      <trkpt lat="46.55099" lon="6.08823">
        <ele>1234.47</ele>
        <time>2015-07-22T08:09:21Z</time>
      </trkpt>
      <trkpt lat="46.55048" lon="6.08829">
        <ele>1234.47</ele>
        <time>2015-07-22T08:09:34Z</time>
      </trkpt>
      <trkpt lat="46.55043" lon="6.0883">
        <ele>1234.47</ele>
        <time>2015-07-22T08:09:35Z</time>
      </trkpt>
      <trkpt lat="46.55028" lon="6.08836">
        <ele>1235.43</ele>
        <time>2015-07-22T08:09:39Z</time>
      </trkpt>
      <trkpt lat="46.54996" lon="6.0886">
        <ele>1237.35</ele>
        <time>2015-07-22T08:09:51Z</time>
      </trkpt>
      <trkpt lat="46.54996" lon="6.08869">
        <ele>1237.35</ele>
        <time>2015-07-22T08:09:58Z</time>
      </trkpt>
      <trkpt lat="46.54998" lon="6.08875">
        <ele>1236.87</ele>
        <time>2015-07-22T08:10:11Z</time>
      </trkpt>
      <trkpt lat="46.55006" lon="6.08858">
        <ele>1236.87</ele>
        <time>2015-07-22T08:32:51Z</time>
      </trkpt>
      <trkpt lat="46.55004" lon="6.08864">
        <ele>1236.87</ele>
        <time>2015-07-22T08:32:53Z</time>
      </trkpt>
      <trkpt lat="46.54995" lon="6.08871">
        <ele>1236.87</ele>
        <time>2015-07-22T08:33:02Z</time>
      </trkpt>
      <trkpt lat="46.54993" lon="6.08874">
        <ele>1237.35</ele>
        <time>2015-07-22T08:33:04Z</time>
      </trkpt>
      <trkpt lat="46.54972" lon="6.08892">
        <ele>1238.32</ele>
        <time>2015-07-22T08:33:17Z</time>
      </trkpt>
      <trkpt lat="46.54948" lon="6.08919">
        <ele>1238.8</ele>
        <time>2015-07-22T08:33:30Z</time>
      </trkpt>
      <trkpt lat="46.54917" lon="6.08944">
        <ele>1241.68</ele>
        <time>2015-07-22T08:33:42Z</time>
      </trkpt>
      <trkpt lat="46.54892" lon="6.08966">
        <ele>1242.16</ele>
        <time>2015-07-22T08:33:54Z</time>
      </trkpt>
      <trkpt lat="46.54875" lon="6.08986">
        <ele>1244.56</ele>
        <time>2015-07-22T08:34:04Z</time>
      </trkpt>
      <trkpt lat="46.54859" lon="6.09012">
        <ele>1246.97</ele>
        <time>2015-07-22T08:34:15Z</time>
      </trkpt>
      <trkpt lat="46.54835" lon="6.0904">
        <ele>1248.89</ele>
        <time>2015-07-22T08:34:28Z</time>
      </trkpt>
      <trkpt lat="46.5481" lon="6.09073">
        <ele>1249.85</ele>
        <time>2015-07-22T08:34:41Z</time>
      </trkpt>
      <trkpt lat="46.54787" lon="6.09098">
        <ele>1251.29</ele>
        <time>2015-07-22T08:34:52Z</time>
      </trkpt>
      <trkpt lat="46.54768" lon="6.09119">
        <ele>1253.7</ele>
        <time>2015-07-22T08:35:04Z</time>
      </trkpt>
      <trkpt lat="46.54753" lon="6.0914">
        <ele>1255.62</ele>
        <time>2015-07-22T08:35:15Z</time>
      </trkpt>
      <trkpt lat="46.54726" lon="6.09154">
        <ele>1258.02</ele>
        <time>2015-07-22T08:35:27Z</time>
      </trkpt>
      <trkpt lat="46.54706" lon="6.09171">
        <ele>1259.46</ele>
        <time>2015-07-22T08:35:36Z</time>
      </trkpt>
      <trkpt lat="46.54693" lon="6.09206">
        <ele>1259.94</ele>
        <time>2015-07-22T08:35:48Z</time>
      </trkpt>
      <trkpt lat="46.54683" lon="6.0923">
        <ele>1258.98</ele>
        <time>2015-07-22T08:35:58Z</time>
      </trkpt>
      <trkpt lat="46.54683" lon="6.0923">
        <ele>1258.5</ele>
        <time>2015-07-22T08:36:21Z</time>
      </trkpt>
      <trkpt lat="46.54683" lon="6.0923">
        <ele>1258.5</ele>
        <time>2015-07-22T08:36:26Z</time>
      </trkpt>
      <trkpt lat="46.54678" lon="6.09234">
        <ele>1258.02</ele>
        <time>2015-07-22T08:36:29Z</time>
      </trkpt>
      <trkpt lat="46.54672" lon="6.09239">
        <ele>1257.54</ele>
        <time>2015-07-22T08:36:31Z</time>
      </trkpt>
      <trkpt lat="46.54663" lon="6.09245">
        <ele>1257.06</ele>
        <time>2015-07-22T08:36:33Z</time>
      </trkpt>
      <trkpt lat="46.54627" lon="6.09276">
        <ele>1253.7</ele>
        <time>2015-07-22T08:36:39Z</time>
      </trkpt>
      <trkpt lat="46.546" lon="6.09323">
        <ele>1248.41</ele>
        <time>2015-07-22T08:36:44Z</time>
      </trkpt>
      <trkpt lat="46.54595" lon="6.09334">
        <ele>1247.45</ele>
        <time>2015-07-22T08:36:45Z</time>
      </trkpt>
      <trkpt lat="46.54579" lon="6.0939">
        <ele>1242.64</ele>
        <time>2015-07-22T08:36:50Z</time>
      </trkpt>
      <trkpt lat="46.54537" lon="6.09423">
        <ele>1237.83</ele>
        <time>2015-07-22T08:36:56Z</time>
      </trkpt>
      <trkpt lat="46.54538" lon="6.09446">
        <ele>1236.39</ele>
        <time>2015-07-22T08:37:02Z</time>
      </trkpt>
      <trkpt lat="46.54539" lon="6.09447">
        <ele>1236.39</ele>
        <time>2015-07-22T08:37:14Z</time>
      </trkpt>
      <trkpt lat="46.54539" lon="6.09447">
        <ele>1236.39</ele>
        <time>2015-07-22T08:37:25Z</time>
      </trkpt>
      <trkpt lat="46.54538" lon="6.09441">
        <ele>1236.39</ele>
        <time>2015-07-22T08:37:30Z</time>
      </trkpt>
      <trkpt lat="46.54523" lon="6.09432">
        <ele>1236.39</ele>
        <time>2015-07-22T08:37:39Z</time>
      </trkpt>
      <trkpt lat="46.54466" lon="6.09457">
        <ele>1234.95</ele>
        <time>2015-07-22T08:37:52Z</time>
      </trkpt>
      <trkpt lat="46.54449" lon="6.0947">
        <ele>1233.99</ele>
        <time>2015-07-22T08:37:55Z</time>
      </trkpt>
      <trkpt lat="46.54407" lon="6.09458">
        <ele>1233.03</ele>
        <time>2015-07-22T08:38:02Z</time>
      </trkpt>
      <trkpt lat="46.54403" lon="6.09451">
        <ele>1233.51</ele>
        <time>2015-07-22T08:38:03Z</time>
      </trkpt>
      <trkpt lat="46.54368" lon="6.0941">
        <ele>1237.35</ele>
        <time>2015-07-22T08:38:14Z</time>
      </trkpt>
      <trkpt lat="46.54347" lon="6.09393">
        <ele>1240.24</ele>
        <time>2015-07-22T08:38:27Z</time>
      </trkpt>
      <trkpt lat="46.54342" lon="6.09388">
        <ele>1240.72</ele>
        <time>2015-07-22T08:38:31Z</time>
      </trkpt>
      <trkpt lat="46.54331" lon="6.0937">
        <ele>1241.2</ele>
        <time>2015-07-22T08:38:38Z</time>
      </trkpt>
      <trkpt lat="46.54309" lon="6.09342">
        <ele>1242.64</ele>
        <time>2015-07-22T08:38:49Z</time>
      </trkpt>
      <trkpt lat="46.54286" lon="6.09338">
        <ele>1243.12</ele>
        <time>2015-07-22T08:38:57Z</time>
      </trkpt>
      <trkpt lat="46.54272" lon="6.09338">
        <ele>1242.64</ele>
        <time>2015-07-22T08:39:01Z</time>
      </trkpt>
      <trkpt lat="46.54264" lon="6.09336">
        <ele>1241.68</ele>
        <time>2015-07-22T08:39:03Z</time>
      </trkpt>
      <trkpt lat="46.54219" lon="6.09304">
        <ele>1238.8</ele>
        <time>2015-07-22T08:39:11Z</time>
      </trkpt>
      <trkpt lat="46.54203" lon="6.09285">
        <ele>1237.35</ele>
        <time>2015-07-22T08:39:14Z</time>
      </trkpt>
      <trkpt lat="46.54153" lon="6.09228">
        <ele>1237.83</ele>
        <time>2015-07-22T08:39:23Z</time>
      </trkpt>
      <trkpt lat="46.54094" lon="6.09209">
        <ele>1239.76</ele>
        <time>2015-07-22T08:39:34Z</time>
      </trkpt>
      <trkpt lat="46.54066" lon="6.09202">
        <ele>1241.68</ele>
        <time>2015-07-22T08:39:43Z</time>
      </trkpt>
      <trkpt lat="46.54025" lon="6.09186">
        <ele>1243.6</ele>
        <time>2015-07-22T08:39:56Z</time>
      </trkpt>
      <trkpt lat="46.53996" lon="6.09179">
        <ele>1245.04</ele>
        <time>2015-07-22T08:40:05Z</time>
      </trkpt>
      <trkpt lat="46.53966" lon="6.09175">
        <ele>1246.01</ele>
        <time>2015-07-22T08:40:14Z</time>
      </trkpt>
      <trkpt lat="46.5395" lon="6.09172">
        <ele>1246.01</ele>
        <time>2015-07-22T08:40:18Z</time>
      </trkpt>
      <trkpt lat="46.539" lon="6.09167">
        <ele>1246.49</ele>
        <time>2015-07-22T08:40:30Z</time>
      </trkpt>
      <trkpt lat="46.53873" lon="6.09161">
        <ele>1246.49</ele>
        <time>2015-07-22T08:40:36Z</time>
      </trkpt>
      <trkpt lat="46.53865" lon="6.09158">
        <ele>1246.49</ele>
        <time>2015-07-22T08:40:38Z</time>
      </trkpt>
      <trkpt lat="46.53827" lon="6.09121">
        <ele>1245.04</ele>
        <time>2015-07-22T08:40:46Z</time>
      </trkpt>
      <trkpt lat="46.53804" lon="6.09107">
        <ele>1243.6</ele>
        <time>2015-07-22T08:40:50Z</time>
      </trkpt>
      <trkpt lat="46.53766" lon="6.09069">
        <ele>1242.16</ele>
        <time>2015-07-22T08:40:57Z</time>
      </trkpt>
      <trkpt lat="46.53746" lon="6.08992">
        <ele>1239.76</ele>
        <time>2015-07-22T08:41:05Z</time>
      </trkpt>
      <trkpt lat="46.53737" lon="6.08951">
        <ele>1239.28</ele>
        <time>2015-07-22T08:41:09Z</time>
      </trkpt>
      <trkpt lat="46.53712" lon="6.08902">
        <ele>1239.76</ele>
        <time>2015-07-22T08:41:15Z</time>
      </trkpt>
      <trkpt lat="46.53683" lon="6.0888">
        <ele>1239.28</ele>
        <time>2015-07-22T08:41:20Z</time>
      </trkpt>
      <trkpt lat="46.53655" lon="6.08874">
        <ele>1238.8</ele>
        <time>2015-07-22T08:41:24Z</time>
      </trkpt>
      <trkpt lat="46.53629" lon="6.08859">
        <ele>1237.83</ele>
        <time>2015-07-22T08:41:28Z</time>
      </trkpt>
      <trkpt lat="46.53575" lon="6.08838">
        <ele>1233.51</ele>
        <time>2015-07-22T08:41:35Z</time>
      </trkpt>
      <trkpt lat="46.53544" lon="6.08816">
        <ele>1231.11</ele>
        <time>2015-07-22T08:41:39Z</time>
      </trkpt>
      <trkpt lat="46.53532" lon="6.088">
        <ele>1231.11</ele>
        <time>2015-07-22T08:41:41Z</time>
      </trkpt>
      <trkpt lat="46.53516" lon="6.08765">
        <ele>1232.07</ele>
        <time>2015-07-22T08:41:45Z</time>
      </trkpt>
      <trkpt lat="46.53503" lon="6.0872">
        <ele>1232.07</ele>
        <time>2015-07-22T08:41:50Z</time>
      </trkpt>
      <trkpt lat="46.53464" lon="6.08693">
        <ele>1233.03</ele>
        <time>2015-07-22T08:41:58Z</time>
      </trkpt>
      <trkpt lat="46.53456" lon="6.08683">
        <ele>1233.51</ele>
        <time>2015-07-22T08:42:00Z</time>
      </trkpt>
      <trkpt lat="46.53443" lon="6.08658">
        <ele>1233.51</ele>
        <time>2015-07-22T08:42:04Z</time>
      </trkpt>
      <trkpt lat="46.53436" lon="6.08646">
        <ele>1233.51</ele>
        <time>2015-07-22T08:42:06Z</time>
      </trkpt>
      <trkpt lat="46.53391" lon="6.08594">
        <ele>1232.07</ele>
        <time>2015-07-22T08:42:15Z</time>
      </trkpt>
      <trkpt lat="46.53376" lon="6.0856">
        <ele>1231.11</ele>
        <time>2015-07-22T08:42:19Z</time>
      </trkpt>
      <trkpt lat="46.53362" lon="6.08514">
        <ele>1229.66</ele>
        <time>2015-07-22T08:42:24Z</time>
      </trkpt>
      <trkpt lat="46.53363" lon="6.08476">
        <ele>1229.66</ele>
        <time>2015-07-22T08:42:28Z</time>
      </trkpt>
      <trkpt lat="46.53386" lon="6.08425">
        <ele>1230.14</ele>
        <time>2015-07-22T08:42:35Z</time>
      </trkpt>
      <trkpt lat="46.53394" lon="6.08409">
        <ele>1231.11</ele>
        <time>2015-07-22T08:42:38Z</time>
      </trkpt>
      <trkpt lat="46.5342" lon="6.08378">
        <ele>1231.11</ele>
        <time>2015-07-22T08:42:45Z</time>
      </trkpt>
      <trkpt lat="46.5342" lon="6.08341">
        <ele>1230.62</ele>
        <time>2015-07-22T08:42:51Z</time>
      </trkpt>
      <trkpt lat="46.53368" lon="6.08329">
        <ele>1227.74</ele>
        <time>2015-07-22T08:42:59Z</time>
      </trkpt>
      <trkpt lat="46.53342" lon="6.08301">
        <ele>1224.86</ele>
        <time>2015-07-22T08:43:03Z</time>
      </trkpt>
      <trkpt lat="46.53283" lon="6.08272">
        <ele>1221.49</ele>
        <time>2015-07-22T08:43:10Z</time>
      </trkpt>
      <trkpt lat="46.5324" lon="6.0827">
        <ele>1221.49</ele>
        <time>2015-07-22T08:43:15Z</time>
      </trkpt>
      <trkpt lat="46.53212" lon="6.08255">
        <ele>1222.93</ele>
        <time>2015-07-22T08:43:23Z</time>
      </trkpt>
      <trkpt lat="46.53211" lon="6.08254">
        <ele>1222.93</ele>
        <time>2015-07-22T08:43:41Z</time>
      </trkpt>
      <trkpt lat="46.53193" lon="6.08244">
        <ele>1222.93</ele>
        <time>2015-07-22T08:43:50Z</time>
      </trkpt>
      <trkpt lat="46.53149" lon="6.08221">
        <ele>1223.42</ele>
        <time>2015-07-22T08:44:02Z</time>
      </trkpt>
      <trkpt lat="46.5311" lon="6.08206">
        <ele>1224.86</ele>
        <time>2015-07-22T08:44:13Z</time>
      </trkpt>
      <trkpt lat="46.53071" lon="6.08191">
        <ele>1226.3</ele>
        <time>2015-07-22T08:44:24Z</time>
      </trkpt>
      <trkpt lat="46.53042" lon="6.08175">
        <ele>1227.26</ele>
        <time>2015-07-22T08:44:33Z</time>
      </trkpt>
      <trkpt lat="46.53015" lon="6.08149">
        <ele>1228.7</ele>
        <time>2015-07-22T08:44:43Z</time>
      </trkpt>
      <trkpt lat="46.53009" lon="6.0814">
        <ele>1228.22</ele>
        <time>2015-07-22T08:44:45Z</time>
      </trkpt>
      <trkpt lat="46.52971" lon="6.08109">
        <ele>1227.26</ele>
        <time>2015-07-22T08:44:53Z</time>
      </trkpt>
      <trkpt lat="46.52948" lon="6.08074">
        <ele>1226.78</ele>
        <time>2015-07-22T08:44:59Z</time>
      </trkpt>
      <trkpt lat="46.52909" lon="6.07997">
        <ele>1226.78</ele>
        <time>2015-07-22T08:45:11Z</time>
      </trkpt>
      <trkpt lat="46.5288" lon="6.0796">
        <ele>1227.26</ele>
        <time>2015-07-22T08:45:19Z</time>
      </trkpt>
      <trkpt lat="46.52866" lon="6.07922">
        <ele>1228.22</ele>
        <time>2015-07-22T08:45:26Z</time>
      </trkpt>
      <trkpt lat="46.52852" lon="6.07895">
        <ele>1228.7</ele>
        <time>2015-07-22T08:45:31Z</time>
      </trkpt>
      <trkpt lat="46.52843" lon="6.0788">
        <ele>1228.7</ele>
        <time>2015-07-22T08:45:34Z</time>
      </trkpt>
      <trkpt lat="46.52835" lon="6.07857">
        <ele>1229.18</ele>
        <time>2015-07-22T08:45:38Z</time>
      </trkpt>
      <trkpt lat="46.5283" lon="6.07832">
        <ele>1228.7</ele>
        <time>2015-07-22T08:45:42Z</time>
      </trkpt>
      <trkpt lat="46.52829" lon="6.07755">
        <ele>1225.34</ele>
        <time>2015-07-22T08:45:51Z</time>
      </trkpt>
      <trkpt lat="46.52834" lon="6.07733">
        <ele>1224.38</ele>
        <time>2015-07-22T08:45:53Z</time>
      </trkpt>
      <trkpt lat="46.52839" lon="6.07685">
        <ele>1222.45</ele>
        <time>2015-07-22T08:45:57Z</time>
      </trkpt>
      <trkpt lat="46.52847" lon="6.07597">
        <ele>1218.13</ele>
        <time>2015-07-22T08:46:04Z</time>
      </trkpt>
      <trkpt lat="46.5284" lon="6.07543">
        <ele>1216.69</ele>
        <time>2015-07-22T08:46:08Z</time>
      </trkpt>
      <trkpt lat="46.52839" lon="6.07517">
        <ele>1215.24</ele>
        <time>2015-07-22T08:46:10Z</time>
      </trkpt>
      <trkpt lat="46.52844" lon="6.07466">
        <ele>1213.32</ele>
        <time>2015-07-22T08:46:14Z</time>
      </trkpt>
      <trkpt lat="46.52845" lon="6.07452">
        <ele>1213.32</ele>
        <time>2015-07-22T08:46:15Z</time>
      </trkpt>
      <trkpt lat="46.52847" lon="6.07401">
        <ele>1213.32</ele>
        <time>2015-07-22T08:46:19Z</time>
      </trkpt>
      <trkpt lat="46.52859" lon="6.07358">
        <ele>1211.88</ele>
        <time>2015-07-22T08:46:23Z</time>
      </trkpt>
      <trkpt lat="46.52886" lon="6.07289">
        <ele>1210.92</ele>
        <time>2015-07-22T08:46:30Z</time>
      </trkpt>
      <trkpt lat="46.52887" lon="6.07236">
        <ele>1211.4</ele>
        <time>2015-07-22T08:46:35Z</time>
      </trkpt>
      <trkpt lat="46.52862" lon="6.07161">
        <ele>1211.4</ele>
        <time>2015-07-22T08:46:43Z</time>
      </trkpt>
      <trkpt lat="46.52845" lon="6.0713">
        <ele>1212.84</ele>
        <time>2015-07-22T08:46:48Z</time>
      </trkpt>
      <trkpt lat="46.52833" lon="6.07106">
        <ele>1214.76</ele>
        <time>2015-07-22T08:46:53Z</time>
      </trkpt>
      <trkpt lat="46.52826" lon="6.07063">
        <ele>1215.72</ele>
        <time>2015-07-22T08:47:04Z</time>
      </trkpt>
      <trkpt lat="46.5283" lon="6.07021">
        <ele>1216.69</ele>
        <time>2015-07-22T08:47:16Z</time>
      </trkpt>
      <trkpt lat="46.52829" lon="6.07018">
        <ele>1216.69</ele>
        <time>2015-07-22T08:47:28Z</time>
      </trkpt>
      <trkpt lat="46.52829" lon="6.07017">
        <ele>1216.21</ele>
        <time>2015-07-22T08:47:31Z</time>
      </trkpt>
      <trkpt lat="46.52827" lon="6.07002">
        <ele>1215.72</ele>
        <time>2015-07-22T08:47:36Z</time>
      </trkpt>
      <trkpt lat="46.52822" lon="6.06959">
        <ele>1212.84</ele>
        <time>2015-07-22T08:47:42Z</time>
      </trkpt>
      <trkpt lat="46.5282" lon="6.0694">
        <ele>1211.88</ele>
        <time>2015-07-22T08:47:44Z</time>
      </trkpt>
      <trkpt lat="46.52819" lon="6.06897">
        <ele>1208.51</ele>
        <time>2015-07-22T08:47:48Z</time>
      </trkpt>
      <trkpt lat="46.52822" lon="6.06888">
        <ele>1208.51</ele>
        <time>2015-07-22T08:47:49Z</time>
      </trkpt>
      <trkpt lat="46.52825" lon="6.06879">
        <ele>1208.03</ele>
        <time>2015-07-22T08:47:50Z</time>
      </trkpt>
      <trkpt lat="46.52844" lon="6.06833">
        <ele>1211.4</ele>
        <time>2015-07-22T08:47:57Z</time>
      </trkpt>
      <trkpt lat="46.52843" lon="6.06791">
        <ele>1213.8</ele>
        <time>2015-07-22T08:48:05Z</time>
      </trkpt>
      <trkpt lat="46.52814" lon="6.06763">
        <ele>1216.69</ele>
        <time>2015-07-22T08:48:17Z</time>
      </trkpt>
      <trkpt lat="46.52786" lon="6.06729">
        <ele>1218.61</ele>
        <time>2015-07-22T08:48:31Z</time>
      </trkpt>
      <trkpt lat="46.52778" lon="6.06685">
        <ele>1220.05</ele>
        <time>2015-07-22T08:48:42Z</time>
      </trkpt>
      <trkpt lat="46.52773" lon="6.06675">
        <ele>1220.53</ele>
        <time>2015-07-22T08:48:45Z</time>
      </trkpt>
      <trkpt lat="46.52758" lon="6.06646">
        <ele>1221.01</ele>
        <time>2015-07-22T08:48:53Z</time>
      </trkpt>
      <trkpt lat="46.52739" lon="6.06607">
        <ele>1223.42</ele>
        <time>2015-07-22T08:49:05Z</time>
      </trkpt>
      <trkpt lat="46.52725" lon="6.06572">
        <ele>1224.86</ele>
        <time>2015-07-22T08:49:16Z</time>
      </trkpt>
      <trkpt lat="46.52722" lon="6.06565">
        <ele>1225.34</ele>
        <time>2015-07-22T08:49:18Z</time>
      </trkpt>
      <trkpt lat="46.52705" lon="6.06517">
        <ele>1226.3</ele>
        <time>2015-07-22T08:49:31Z</time>
      </trkpt>
      <trkpt lat="46.527" lon="6.06501">
        <ele>1225.82</ele>
        <time>2015-07-22T08:49:35Z</time>
      </trkpt>
      <trkpt lat="46.52693" lon="6.06478">
        <ele>1224.86</ele>
        <time>2015-07-22T08:49:39Z</time>
      </trkpt>
      <trkpt lat="46.52674" lon="6.06423">
        <ele>1222.93</ele>
        <time>2015-07-22T08:49:46Z</time>
      </trkpt>
      <trkpt lat="46.52664" lon="6.06359">
        <ele>1219.57</ele>
        <time>2015-07-22T08:49:52Z</time>
      </trkpt>
      <trkpt lat="46.52668" lon="6.06309">
        <ele>1218.13</ele>
        <time>2015-07-22T08:49:56Z</time>
      </trkpt>
      <trkpt lat="46.52661" lon="6.0624">
        <ele>1214.28</ele>
        <time>2015-07-22T08:50:01Z</time>
      </trkpt>
      <trkpt lat="46.52646" lon="6.0619">
        <ele>1211.88</ele>
        <time>2015-07-22T08:50:05Z</time>
      </trkpt>
      <trkpt lat="46.52626" lon="6.06152">
        <ele>1212.36</ele>
        <time>2015-07-22T08:50:09Z</time>
      </trkpt>
      <trkpt lat="46.52598" lon="6.06119">
        <ele>1214.76</ele>
        <time>2015-07-22T08:50:15Z</time>
      </trkpt>
      <trkpt lat="46.52573" lon="6.06094">
        <ele>1215.72</ele>
        <time>2015-07-22T08:50:25Z</time>
      </trkpt>
      <trkpt lat="46.52564" lon="6.06091">
        <ele>1215.72</ele>
        <time>2015-07-22T08:50:31Z</time>
      </trkpt>
      <trkpt lat="46.52568" lon="6.06095">
        <ele>1215.24</ele>
        <time>2015-07-22T08:50:36Z</time>
      </trkpt>
      <trkpt lat="46.52572" lon="6.06096">
        <ele>1215.72</ele>
        <time>2015-07-22T08:50:39Z</time>
      </trkpt>
      <trkpt lat="46.52576" lon="6.06097">
        <ele>1215.72</ele>
        <time>2015-07-22T08:50:49Z</time>
      </trkpt>
      <trkpt lat="46.52572" lon="6.06097">
        <ele>1215.24</ele>
        <time>2015-07-22T08:51:10Z</time>
      </trkpt>
      <trkpt lat="46.52565" lon="6.06091">
        <ele>1215.24</ele>
        <time>2015-07-22T08:51:15Z</time>
      </trkpt>
      <trkpt lat="46.52537" lon="6.06071">
        <ele>1215.24</ele>
        <time>2015-07-22T08:51:25Z</time>
      </trkpt>
      <trkpt lat="46.52532" lon="6.06075">
        <ele>1215.24</ele>
        <time>2015-07-22T08:51:29Z</time>
      </trkpt>
      <trkpt lat="46.52528" lon="6.06084">
        <ele>1214.76</ele>
        <time>2015-07-22T08:51:32Z</time>
      </trkpt>
      <trkpt lat="46.5252" lon="6.06107">
        <ele>1213.32</ele>
        <time>2015-07-22T08:51:36Z</time>
      </trkpt>
      <trkpt lat="46.52523" lon="6.06153">
        <ele>1215.24</ele>
        <time>2015-07-22T08:51:45Z</time>
      </trkpt>
      <trkpt lat="46.52521" lon="6.06162">
        <ele>1216.21</ele>
        <time>2015-07-22T08:51:48Z</time>
      </trkpt>
      <trkpt lat="46.52518" lon="6.06182">
        <ele>1217.17</ele>
        <time>2015-07-22T08:51:53Z</time>
      </trkpt>
      <trkpt lat="46.52496" lon="6.06229">
        <ele>1216.69</ele>
        <time>2015-07-22T08:52:04Z</time>
      </trkpt>
      <trkpt lat="46.52492" lon="6.06239">
        <ele>1217.17</ele>
        <time>2015-07-22T08:52:06Z</time>
      </trkpt>
      <trkpt lat="46.52479" lon="6.06294">
        <ele>1217.17</ele>
        <time>2015-07-22T08:52:17Z</time>
      </trkpt>
      <trkpt lat="46.52477" lon="6.06298">
        <ele>1217.17</ele>
        <time>2015-07-22T08:52:18Z</time>
      </trkpt>
      <trkpt lat="46.52438" lon="6.06373">
        <ele>1213.32</ele>
        <time>2015-07-22T08:52:29Z</time>
      </trkpt>
      <trkpt lat="46.52421" lon="6.06402">
        <ele>1209.96</ele>
        <time>2015-07-22T08:52:32Z</time>
      </trkpt>
      <trkpt lat="46.52408" lon="6.06425">
        <ele>1208.51</ele>
        <time>2015-07-22T08:52:34Z</time>
      </trkpt>
      <trkpt lat="46.5235" lon="6.06541">
        <ele>1208.51</ele>
        <time>2015-07-22T08:52:45Z</time>
      </trkpt>
      <trkpt lat="46.52338" lon="6.06567">
        <ele>1209</ele>
        <time>2015-07-22T08:52:48Z</time>
      </trkpt>
      <trkpt lat="46.52318" lon="6.06589">
        <ele>1210.44</ele>
        <time>2015-07-22T08:52:52Z</time>
      </trkpt>
      <trkpt lat="46.52307" lon="6.06597">
        <ele>1209.96</ele>
        <time>2015-07-22T08:52:54Z</time>
      </trkpt>
      <trkpt lat="46.52292" lon="6.06613">
        <ele>1209.48</ele>
        <time>2015-07-22T08:52:57Z</time>
      </trkpt>
      <trkpt lat="46.52248" lon="6.06674">
        <ele>1210.44</ele>
        <time>2015-07-22T08:53:07Z</time>
      </trkpt>
      <trkpt lat="46.52237" lon="6.06689">
        <ele>1211.4</ele>
        <time>2015-07-22T08:53:10Z</time>
      </trkpt>
      <trkpt lat="46.5222" lon="6.06708">
        <ele>1212.36</ele>
        <time>2015-07-22T08:53:15Z</time>
      </trkpt>
      <trkpt lat="46.52205" lon="6.06724">
        <ele>1212.84</ele>
        <time>2015-07-22T08:53:19Z</time>
      </trkpt>
      <trkpt lat="46.5219" lon="6.06736">
        <ele>1213.32</ele>
        <time>2015-07-22T08:53:23Z</time>
      </trkpt>
      <trkpt lat="46.52171" lon="6.06758">
        <ele>1214.76</ele>
        <time>2015-07-22T08:53:29Z</time>
      </trkpt>
      <trkpt lat="46.52161" lon="6.06769">
        <ele>1214.76</ele>
        <time>2015-07-22T08:53:32Z</time>
      </trkpt>
      <trkpt lat="46.52129" lon="6.06819">
        <ele>1217.17</ele>
        <time>2015-07-22T08:53:45Z</time>
      </trkpt>
      <trkpt lat="46.52121" lon="6.06877">
        <ele>1218.13</ele>
        <time>2015-07-22T08:53:56Z</time>
      </trkpt>
      <trkpt lat="46.52126" lon="6.06954">
        <ele>1220.05</ele>
        <time>2015-07-22T08:54:09Z</time>
      </trkpt>
      <trkpt lat="46.52132" lon="6.07026">
        <ele>1220.53</ele>
        <time>2015-07-22T08:54:21Z</time>
      </trkpt>
      <trkpt lat="46.52153" lon="6.07122">
        <ele>1220.05</ele>
        <time>2015-07-22T08:54:35Z</time>
      </trkpt>
      <trkpt lat="46.52164" lon="6.07159">
        <ele>1219.57</ele>
        <time>2015-07-22T08:54:40Z</time>
      </trkpt>
      <trkpt lat="46.5215" lon="6.07219">
        <ele>1221.01</ele>
        <time>2015-07-22T08:54:49Z</time>
      </trkpt>
      <trkpt lat="46.52146" lon="6.07224">
        <ele>1220.53</ele>
        <time>2015-07-22T08:54:50Z</time>
      </trkpt>
      <trkpt lat="46.52123" lon="6.07237">
        <ele>1221.01</ele>
        <time>2015-07-22T08:54:55Z</time>
      </trkpt>
      <trkpt lat="46.52089" lon="6.07241">
        <ele>1223.42</ele>
        <time>2015-07-22T08:55:05Z</time>
      </trkpt>
      <trkpt lat="46.52055" lon="6.07237">
        <ele>1225.82</ele>
        <time>2015-07-22T08:55:19Z</time>
      </trkpt>
      <trkpt lat="46.52033" lon="6.07236">
        <ele>1227.74</ele>
        <time>2015-07-22T08:55:30Z</time>
      </trkpt>
      <trkpt lat="46.52004" lon="6.07235">
        <ele>1229.18</ele>
        <time>2015-07-22T08:55:44Z</time>
      </trkpt>
      <trkpt lat="46.51975" lon="6.07231">
        <ele>1232.07</ele>
        <time>2015-07-22T08:55:59Z</time>
      </trkpt>
      <trkpt lat="46.51953" lon="6.07224">
        <ele>1233.99</ele>
        <time>2015-07-22T08:56:12Z</time>
      </trkpt>
      <trkpt lat="46.51933" lon="6.0722">
        <ele>1236.39</ele>
        <time>2015-07-22T08:56:25Z</time>
      </trkpt>
      <trkpt lat="46.51912" lon="6.07215">
        <ele>1238.32</ele>
        <time>2015-07-22T08:56:38Z</time>
      </trkpt>
      <trkpt lat="46.51904" lon="6.0721">
        <ele>1239.28</ele>
        <time>2015-07-22T08:56:43Z</time>
      </trkpt>
      <trkpt lat="46.51895" lon="6.07211">
        <ele>1239.76</ele>
        <time>2015-07-22T08:56:48Z</time>
      </trkpt>
      <trkpt lat="46.51873" lon="6.07199">
        <ele>1241.68</ele>
        <time>2015-07-22T08:57:01Z</time>
      </trkpt>
      <trkpt lat="46.51855" lon="6.07182">
        <ele>1243.6</ele>
        <time>2015-07-22T08:57:12Z</time>
      </trkpt>
      <trkpt lat="46.51839" lon="6.07172">
        <ele>1244.56</ele>
        <time>2015-07-22T08:57:20Z</time>
      </trkpt>
      <trkpt lat="46.51821" lon="6.07192">
        <ele>1245.04</ele>
        <time>2015-07-22T08:57:31Z</time>
      </trkpt>
      <trkpt lat="46.51817" lon="6.07217">
        <ele>1246.97</ele>
        <time>2015-07-22T08:57:41Z</time>
      </trkpt>
      <trkpt lat="46.51823" lon="6.07246">
        <ele>1248.89</ele>
        <time>2015-07-22T08:57:53Z</time>
      </trkpt>
      <trkpt lat="46.51823" lon="6.07266">
        <ele>1250.33</ele>
        <time>2015-07-22T08:58:01Z</time>
      </trkpt>
      <trkpt lat="46.51816" lon="6.07274">
        <ele>1251.77</ele>
        <time>2015-07-22T08:58:06Z</time>
      </trkpt>
      <trkpt lat="46.51801" lon="6.07285">
        <ele>1254.18</ele>
        <time>2015-07-22T08:58:17Z</time>
      </trkpt>
      <trkpt lat="46.51777" lon="6.07272">
        <ele>1257.06</ele>
        <time>2015-07-22T08:58:32Z</time>
      </trkpt>
      <trkpt lat="46.51752" lon="6.07257">
        <ele>1258.98</ele>
        <time>2015-07-22T08:58:48Z</time>
      </trkpt>
      <trkpt lat="46.5173" lon="6.07248">
        <ele>1261.39</ele>
        <time>2015-07-22T08:59:01Z</time>
      </trkpt>
      <trkpt lat="46.51718" lon="6.07246">
        <ele>1262.83</ele>
        <time>2015-07-22T08:59:09Z</time>
      </trkpt>
      <trkpt lat="46.51712" lon="6.07246">
        <ele>1263.31</ele>
        <time>2015-07-22T08:59:13Z</time>
      </trkpt>
      <trkpt lat="46.51693" lon="6.07247">
        <ele>1266.19</ele>
        <time>2015-07-22T08:59:27Z</time>
      </trkpt>
      <trkpt lat="46.51692" lon="6.07248">
        <ele>1266.67</ele>
        <time>2015-07-22T08:59:28Z</time>
      </trkpt>
      <trkpt lat="46.51685" lon="6.07252">
        <ele>1267.64</ele>
        <time>2015-07-22T08:59:33Z</time>
      </trkpt>
      <trkpt lat="46.51671" lon="6.07263">
        <ele>1270.04</ele>
        <time>2015-07-22T08:59:42Z</time>
      </trkpt>
      <trkpt lat="46.51651" lon="6.07274">
        <ele>1271.48</ele>
        <time>2015-07-22T08:59:52Z</time>
      </trkpt>
      <trkpt lat="46.51635" lon="6.07274">
        <ele>1271.96</ele>
        <time>2015-07-22T08:59:59Z</time>
      </trkpt>
      <trkpt lat="46.51631" lon="6.0727">
        <ele>1272.44</ele>
        <time>2015-07-22T09:00:02Z</time>
      </trkpt>
      <trkpt lat="46.51625" lon="6.07261">
        <ele>1272.44</ele>
        <time>2015-07-22T09:00:07Z</time>
      </trkpt>
      <trkpt lat="46.51623" lon="6.07257">
        <ele>1272.44</ele>
        <time>2015-07-22T09:00:23Z</time>
      </trkpt>
      <trkpt lat="46.51623" lon="6.07257">
        <ele>1272.44</ele>
        <time>2015-07-22T09:00:46Z</time>
      </trkpt>
      <trkpt lat="46.51623" lon="6.07257">
        <ele>1272.44</ele>
        <time>2015-07-22T09:00:54Z</time>
      </trkpt>
      <trkpt lat="46.51617" lon="6.07248">
        <ele>1272.44</ele>
        <time>2015-07-22T09:00:59Z</time>
      </trkpt>
      <trkpt lat="46.51589" lon="6.07212">
        <ele>1272.44</ele>
        <time>2015-07-22T09:01:12Z</time>
      </trkpt>
      <trkpt lat="46.51581" lon="6.07199">
        <ele>1271.96</ele>
        <time>2015-07-22T09:01:15Z</time>
      </trkpt>
      <trkpt lat="46.51562" lon="6.07173">
        <ele>1271.48</ele>
        <time>2015-07-22T09:01:21Z</time>
      </trkpt>
      <trkpt lat="46.51545" lon="6.07146">
        <ele>1270.52</ele>
        <time>2015-07-22T09:01:26Z</time>
      </trkpt>
      <trkpt lat="46.51526" lon="6.07134">
        <ele>1270.52</ele>
        <time>2015-07-22T09:01:30Z</time>
      </trkpt>
      <trkpt lat="46.51497" lon="6.07132">
        <ele>1270.52</ele>
        <time>2015-07-22T09:01:36Z</time>
      </trkpt>
      <trkpt lat="46.51476" lon="6.07124">
        <ele>1271</ele>
        <time>2015-07-22T09:01:41Z</time>
      </trkpt>
      <trkpt lat="46.51463" lon="6.07113">
        <ele>1271.48</ele>
        <time>2015-07-22T09:01:45Z</time>
      </trkpt>
      <trkpt lat="46.51435" lon="6.07077">
        <ele>1273.4</ele>
        <time>2015-07-22T09:01:57Z</time>
      </trkpt>
      <trkpt lat="46.51399" lon="6.0703">
        <ele>1273.4</ele>
        <time>2015-07-22T09:02:09Z</time>
      </trkpt>
      <trkpt lat="46.51365" lon="6.06998">
        <ele>1272.92</ele>
        <time>2015-07-22T09:02:17Z</time>
      </trkpt>
      <trkpt lat="46.51309" lon="6.06985">
        <ele>1272.44</ele>
        <time>2015-07-22T09:02:28Z</time>
      </trkpt>
      <trkpt lat="46.5129" lon="6.06993">
        <ele>1272.44</ele>
        <time>2015-07-22T09:02:32Z</time>
      </trkpt>
      <trkpt lat="46.51235" lon="6.07006">
        <ele>1272.44</ele>
        <time>2015-07-22T09:02:43Z</time>
      </trkpt>
      <trkpt lat="46.51187" lon="6.07025">
        <ele>1272.44</ele>
        <time>2015-07-22T09:02:54Z</time>
      </trkpt>
      <trkpt lat="46.51172" lon="6.07035">
        <ele>1271.48</ele>
        <time>2015-07-22T09:02:58Z</time>
      </trkpt>
      <trkpt lat="46.5111" lon="6.07073">
        <ele>1268.6</ele>
        <time>2015-07-22T09:03:09Z</time>
      </trkpt>
      <trkpt lat="46.51087" lon="6.07088">
        <ele>1267.16</ele>
        <time>2015-07-22T09:03:12Z</time>
      </trkpt>
      <trkpt lat="46.5108" lon="6.07092">
        <ele>1266.67</ele>
        <time>2015-07-22T09:03:13Z</time>
      </trkpt>
      <trkpt lat="46.51035" lon="6.07109">
        <ele>1263.79</ele>
        <time>2015-07-22T09:03:18Z</time>
      </trkpt>
      <trkpt lat="46.5101" lon="6.0711">
        <ele>1259.46</ele>
        <time>2015-07-22T09:03:21Z</time>
      </trkpt>
      <trkpt lat="46.50994" lon="6.07095">
        <ele>1257.54</ele>
        <time>2015-07-22T09:03:23Z</time>
      </trkpt>
      <trkpt lat="46.50955" lon="6.07052">
        <ele>1255.62</ele>
        <time>2015-07-22T09:03:28Z</time>
      </trkpt>
      <trkpt lat="46.50907" lon="6.07039">
        <ele>1255.14</ele>
        <time>2015-07-22T09:03:34Z</time>
      </trkpt>
      <trkpt lat="46.50881" lon="6.07022">
        <ele>1254.18</ele>
        <time>2015-07-22T09:03:38Z</time>
      </trkpt>
      <trkpt lat="46.50861" lon="6.07003">
        <ele>1252.74</ele>
        <time>2015-07-22T09:03:41Z</time>
      </trkpt>
      <trkpt lat="46.50854" lon="6.06996">
        <ele>1252.25</ele>
        <time>2015-07-22T09:03:42Z</time>
      </trkpt>
      <trkpt lat="46.50822" lon="6.06956">
        <ele>1248.41</ele>
        <time>2015-07-22T09:03:47Z</time>
      </trkpt>
      <trkpt lat="46.5077" lon="6.06869">
        <ele>1245.04</ele>
        <time>2015-07-22T09:03:56Z</time>
      </trkpt>
      <trkpt lat="46.5076" lon="6.06846">
        <ele>1244.08</ele>
        <time>2015-07-22T09:03:58Z</time>
      </trkpt>
      <trkpt lat="46.50744" lon="6.06803">
        <ele>1242.64</ele>
        <time>2015-07-22T09:04:02Z</time>
      </trkpt>
      <trkpt lat="46.50723" lon="6.06737">
        <ele>1242.64</ele>
        <time>2015-07-22T09:04:09Z</time>
      </trkpt>
      <trkpt lat="46.5072" lon="6.06719">
        <ele>1242.16</ele>
        <time>2015-07-22T09:04:11Z</time>
      </trkpt>
      <trkpt lat="46.50716" lon="6.06685">
        <ele>1242.64</ele>
        <time>2015-07-22T09:04:15Z</time>
      </trkpt>
      <trkpt lat="46.50698" lon="6.06648">
        <ele>1243.12</ele>
        <time>2015-07-22T09:04:21Z</time>
      </trkpt>
      <trkpt lat="46.50683" lon="6.06628">
        <ele>1242.64</ele>
        <time>2015-07-22T09:04:25Z</time>
      </trkpt>
      <trkpt lat="46.50672" lon="6.06616">
        <ele>1242.16</ele>
        <time>2015-07-22T09:04:28Z</time>
      </trkpt>
      <trkpt lat="46.5066" lon="6.06592">
        <ele>1242.16</ele>
        <time>2015-07-22T09:04:32Z</time>
      </trkpt>
      <trkpt lat="46.50644" lon="6.06538">
        <ele>1242.16</ele>
        <time>2015-07-22T09:04:40Z</time>
      </trkpt>
      <trkpt lat="46.50622" lon="6.06501">
        <ele>1241.2</ele>
        <time>2015-07-22T09:04:46Z</time>
      </trkpt>
      <trkpt lat="46.50605" lon="6.06478">
        <ele>1241.68</ele>
        <time>2015-07-22T09:04:51Z</time>
      </trkpt>
      <trkpt lat="46.50575" lon="6.06427">
        <ele>1241.68</ele>
        <time>2015-07-22T09:05:01Z</time>
      </trkpt>
      <trkpt lat="46.50568" lon="6.06416">
        <ele>1242.16</ele>
        <time>2015-07-22T09:05:03Z</time>
      </trkpt>
      <trkpt lat="46.50559" lon="6.06398">
        <ele>1242.16</ele>
        <time>2015-07-22T09:05:06Z</time>
      </trkpt>
      <trkpt lat="46.50552" lon="6.06384">
        <ele>1241.68</ele>
        <time>2015-07-22T09:05:08Z</time>
      </trkpt>
      <trkpt lat="46.50513" lon="6.06356">
        <ele>1238.32</ele>
        <time>2015-07-22T09:05:14Z</time>
      </trkpt>
      <trkpt lat="46.50448" lon="6.06343">
        <ele>1237.35</ele>
        <time>2015-07-22T09:05:23Z</time>
      </trkpt>
      <trkpt lat="46.50437" lon="6.06341">
        <ele>1237.83</ele>
        <time>2015-07-22T09:05:25Z</time>
      </trkpt>
      <trkpt lat="46.50408" lon="6.0636">
        <ele>1237.83</ele>
        <time>2015-07-22T09:05:31Z</time>
      </trkpt>
      <trkpt lat="46.50398" lon="6.06379">
        <ele>1237.35</ele>
        <time>2015-07-22T09:05:34Z</time>
      </trkpt>
      <trkpt lat="46.5036" lon="6.06396">
        <ele>1234.95</ele>
        <time>2015-07-22T09:05:41Z</time>
      </trkpt>
      <trkpt lat="46.50334" lon="6.06391">
        <ele>1232.55</ele>
        <time>2015-07-22T09:05:44Z</time>
      </trkpt>
      <trkpt lat="46.50317" lon="6.06394">
        <ele>1232.07</ele>
        <time>2015-07-22T09:05:46Z</time>
      </trkpt>
      <trkpt lat="46.50291" lon="6.06423">
        <ele>1229.18</ele>
        <time>2015-07-22T09:05:50Z</time>
      </trkpt>
      <trkpt lat="46.50289" lon="6.06434">
        <ele>1229.18</ele>
        <time>2015-07-22T09:05:51Z</time>
      </trkpt>
      <trkpt lat="46.50291" lon="6.06461">
        <ele>1230.62</ele>
        <time>2015-07-22T09:05:54Z</time>
      </trkpt>
      <trkpt lat="46.50298" lon="6.06483">
        <ele>1231.59</ele>
        <time>2015-07-22T09:05:57Z</time>
      </trkpt>
      <trkpt lat="46.50323" lon="6.06552">
        <ele>1232.55</ele>
        <time>2015-07-22T09:06:09Z</time>
      </trkpt>
      <trkpt lat="46.50334" lon="6.06626">
        <ele>1233.99</ele>
        <time>2015-07-22T09:06:23Z</time>
      </trkpt>
      <trkpt lat="46.50338" lon="6.06696">
        <ele>1234.95</ele>
        <time>2015-07-22T09:06:37Z</time>
      </trkpt>
      <trkpt lat="46.50339" lon="6.06702">
        <ele>1234.95</ele>
        <time>2015-07-22T09:06:38Z</time>
      </trkpt>
      <trkpt lat="46.50341" lon="6.06726">
        <ele>1235.43</ele>
        <time>2015-07-22T09:06:42Z</time>
      </trkpt>
      <trkpt lat="46.50336" lon="6.06747">
        <ele>1235.43</ele>
        <time>2015-07-22T09:06:46Z</time>
      </trkpt>
      <trkpt lat="46.50288" lon="6.06807">
        <ele>1232.07</ele>
        <time>2015-07-22T09:06:58Z</time>
      </trkpt>
      <trkpt lat="46.50257" lon="6.06837">
        <ele>1231.59</ele>
        <time>2015-07-22T09:07:03Z</time>
      </trkpt>
      <trkpt lat="46.50224" lon="6.06847">
        <ele>1227.26</ele>
        <time>2015-07-22T09:07:07Z</time>
      </trkpt>
      <trkpt lat="46.50189" lon="6.0683">
        <ele>1225.34</ele>
        <time>2015-07-22T09:07:11Z</time>
      </trkpt>
      <trkpt lat="46.50181" lon="6.06823">
        <ele>1224.38</ele>
        <time>2015-07-22T09:07:12Z</time>
      </trkpt>
      <trkpt lat="46.50157" lon="6.06799">
        <ele>1222.45</ele>
        <time>2015-07-22T09:07:15Z</time>
      </trkpt>
      <trkpt lat="46.50123" lon="6.06769">
        <ele>1220.05</ele>
        <time>2015-07-22T09:07:19Z</time>
      </trkpt>
      <trkpt lat="46.50077" lon="6.06755">
        <ele>1217.17</ele>
        <time>2015-07-22T09:07:24Z</time>
      </trkpt>
      <trkpt lat="46.50042" lon="6.06732">
        <ele>1215.72</ele>
        <time>2015-07-22T09:07:28Z</time>
      </trkpt>
      <trkpt lat="46.50017" lon="6.06711">
        <ele>1213.8</ele>
        <time>2015-07-22T09:07:31Z</time>
      </trkpt>
      <trkpt lat="46.49963" lon="6.06709">
        <ele>1211.4</ele>
        <time>2015-07-22T09:07:37Z</time>
      </trkpt>
      <trkpt lat="46.49947" lon="6.06719">
        <ele>1210.44</ele>
        <time>2015-07-22T09:07:39Z</time>
      </trkpt>
      <trkpt lat="46.49908" lon="6.0671">
        <ele>1207.07</ele>
        <time>2015-07-22T09:07:44Z</time>
      </trkpt>
      <trkpt lat="46.49885" lon="6.06693">
        <ele>1205.63</ele>
        <time>2015-07-22T09:07:47Z</time>
      </trkpt>
      <trkpt lat="46.49853" lon="6.06713">
        <ele>1202.27</ele>
        <time>2015-07-22T09:07:52Z</time>
      </trkpt>
      <trkpt lat="46.49834" lon="6.06756">
        <ele>1199.38</ele>
        <time>2015-07-22T09:07:56Z</time>
      </trkpt>
      <trkpt lat="46.49797" lon="6.06797">
        <ele>1196.5</ele>
        <time>2015-07-22T09:08:02Z</time>
      </trkpt>
      <trkpt lat="46.49774" lon="6.06763">
        <ele>1193.61</ele>
        <time>2015-07-22T09:08:06Z</time>
      </trkpt>
      <trkpt lat="46.49759" lon="6.06726">
        <ele>1190.73</ele>
        <time>2015-07-22T09:08:09Z</time>
      </trkpt>
      <trkpt lat="46.49742" lon="6.06699">
        <ele>1188.33</ele>
        <time>2015-07-22T09:08:12Z</time>
      </trkpt>
      <trkpt lat="46.49731" lon="6.06686">
        <ele>1187.37</ele>
        <time>2015-07-22T09:08:14Z</time>
      </trkpt>
      <trkpt lat="46.49697" lon="6.06655">
        <ele>1182.56</ele>
        <time>2015-07-22T09:08:19Z</time>
      </trkpt>
      <trkpt lat="46.49668" lon="6.06625">
        <ele>1179.19</ele>
        <time>2015-07-22T09:08:23Z</time>
      </trkpt>
      <trkpt lat="46.49641" lon="6.06592">
        <ele>1176.31</ele>
        <time>2015-07-22T09:08:27Z</time>
      </trkpt>
      <trkpt lat="46.49634" lon="6.06586">
        <ele>1175.35</ele>
        <time>2015-07-22T09:08:28Z</time>
      </trkpt>
      <trkpt lat="46.49622" lon="6.06578">
        <ele>1173.91</ele>
        <time>2015-07-22T09:08:30Z</time>
      </trkpt>
      <trkpt lat="46.49608" lon="6.06575">
        <ele>1171.98</ele>
        <time>2015-07-22T09:08:32Z</time>
      </trkpt>
      <trkpt lat="46.49591" lon="6.06576">
        <ele>1171.02</ele>
        <time>2015-07-22T09:08:35Z</time>
      </trkpt>
      <trkpt lat="46.49554" lon="6.06549">
        <ele>1166.7</ele>
        <time>2015-07-22T09:08:42Z</time>
      </trkpt>
      <trkpt lat="46.49524" lon="6.06504">
        <ele>1162.85</ele>
        <time>2015-07-22T09:08:47Z</time>
      </trkpt>
      <trkpt lat="46.49506" lon="6.06477">
        <ele>1159.49</ele>
        <time>2015-07-22T09:08:50Z</time>
      </trkpt>
      <trkpt lat="46.49487" lon="6.0645">
        <ele>1156.12</ele>
        <time>2015-07-22T09:08:53Z</time>
      </trkpt>
      <trkpt lat="46.49461" lon="6.06406">
        <ele>1152.76</ele>
        <time>2015-07-22T09:08:57Z</time>
      </trkpt>
      <trkpt lat="46.4944" lon="6.0637">
        <ele>1149.39</ele>
        <time>2015-07-22T09:09:00Z</time>
      </trkpt>
      <trkpt lat="46.49419" lon="6.0633">
        <ele>1146.03</ele>
        <time>2015-07-22T09:09:03Z</time>
      </trkpt>
      <trkpt lat="46.49397" lon="6.06294">
        <ele>1143.14</ele>
        <time>2015-07-22T09:09:06Z</time>
      </trkpt>
      <trkpt lat="46.4937" lon="6.06256">
        <ele>1139.3</ele>
        <time>2015-07-22T09:09:10Z</time>
      </trkpt>
      <trkpt lat="46.49344" lon="6.06219">
        <ele>1135.94</ele>
        <time>2015-07-22T09:09:14Z</time>
      </trkpt>
      <trkpt lat="46.49321" lon="6.06181">
        <ele>1134.01</ele>
        <time>2015-07-22T09:09:18Z</time>
      </trkpt>
      <trkpt lat="46.49313" lon="6.06167">
        <ele>1132.09</ele>
        <time>2015-07-22T09:09:20Z</time>
      </trkpt>
      <trkpt lat="46.49291" lon="6.06127">
        <ele>1128.24</ele>
        <time>2015-07-22T09:09:25Z</time>
      </trkpt>
      <trkpt lat="46.49266" lon="6.06056">
        <ele>1123.92</ele>
        <time>2015-07-22T09:09:32Z</time>
      </trkpt>
      <trkpt lat="46.49247" lon="6.06005">
        <ele>1121.03</ele>
        <time>2015-07-22T09:09:39Z</time>
      </trkpt>
      <trkpt lat="46.49241" lon="6.05987">
        <ele>1120.07</ele>
        <time>2015-07-22T09:09:42Z</time>
      </trkpt>
      <trkpt lat="46.49213" lon="6.05914">
        <ele>1115.75</ele>
        <time>2015-07-22T09:09:51Z</time>
      </trkpt>
      <trkpt lat="46.49175" lon="6.05888">
        <ele>1113.34</ele>
        <time>2015-07-22T09:09:58Z</time>
      </trkpt>
      <trkpt lat="46.49169" lon="6.05892">
        <ele>1113.34</ele>
        <time>2015-07-22T09:09:59Z</time>
      </trkpt>
      <trkpt lat="46.49144" lon="6.05927">
        <ele>1110.94</ele>
        <time>2015-07-22T09:10:04Z</time>
      </trkpt>
      <trkpt lat="46.49122" lon="6.05975">
        <ele>1107.58</ele>
        <time>2015-07-22T09:10:09Z</time>
      </trkpt>
      <trkpt lat="46.49087" lon="6.06">
        <ele>1106.61</ele>
        <time>2015-07-22T09:10:16Z</time>
      </trkpt>
      <trkpt lat="46.49083" lon="6.06001">
        <ele>1107.1</ele>
        <time>2015-07-22T09:10:23Z</time>
      </trkpt>
      <trkpt lat="46.49083" lon="6.06001">
        <ele>1107.1</ele>
        <time>2015-07-22T09:10:42Z</time>
      </trkpt>
      <trkpt lat="46.49082" lon="6.06001">
        <ele>1107.1</ele>
        <time>2015-07-22T09:11:06Z</time>
      </trkpt>
      <trkpt lat="46.49082" lon="6.06001">
        <ele>1106.61</ele>
        <time>2015-07-22T09:11:17Z</time>
      </trkpt>
      <trkpt lat="46.49079" lon="6.05996">
        <ele>1107.1</ele>
        <time>2015-07-22T09:11:21Z</time>
      </trkpt>
      <trkpt lat="46.49064" lon="6.05962">
        <ele>1107.1</ele>
        <time>2015-07-22T09:11:32Z</time>
      </trkpt>
      <trkpt lat="46.49049" lon="6.05932">
        <ele>1107.1</ele>
        <time>2015-07-22T09:11:42Z</time>
      </trkpt>
      <trkpt lat="46.49028" lon="6.05891">
        <ele>1107.1</ele>
        <time>2015-07-22T09:11:52Z</time>
      </trkpt>
      <trkpt lat="46.49009" lon="6.0586">
        <ele>1106.61</ele>
        <time>2015-07-22T09:11:59Z</time>
      </trkpt>
      <trkpt lat="46.48988" lon="6.05819">
        <ele>1105.65</ele>
        <time>2015-07-22T09:12:07Z</time>
      </trkpt>
      <trkpt lat="46.48933" lon="6.05761">
        <ele>1102.77</ele>
        <time>2015-07-22T09:12:20Z</time>
      </trkpt>
      <trkpt lat="46.4889" lon="6.05735">
        <ele>1098.44</ele>
        <time>2015-07-22T09:12:26Z</time>
      </trkpt>
      <trkpt lat="46.48865" lon="6.05719">
        <ele>1096.52</ele>
        <time>2015-07-22T09:12:30Z</time>
      </trkpt>
      <trkpt lat="46.48857" lon="6.05711">
        <ele>1096.04</ele>
        <time>2015-07-22T09:12:32Z</time>
      </trkpt>
      <trkpt lat="46.4881" lon="6.05682">
        <ele>1092.68</ele>
        <time>2015-07-22T09:12:42Z</time>
      </trkpt>
      <trkpt lat="46.48797" lon="6.05677">
        <ele>1092.2</ele>
        <time>2015-07-22T09:12:44Z</time>
      </trkpt>
      <trkpt lat="46.48751" lon="6.05651">
        <ele>1088.83</ele>
        <time>2015-07-22T09:12:51Z</time>
      </trkpt>
      <trkpt lat="46.48731" lon="6.05642">
        <ele>1087.39</ele>
        <time>2015-07-22T09:12:54Z</time>
      </trkpt>
      <trkpt lat="46.48726" lon="6.05638">
        <ele>1086.91</ele>
        <time>2015-07-22T09:12:55Z</time>
      </trkpt>
      <trkpt lat="46.48708" lon="6.05621">
        <ele>1087.39</ele>
        <time>2015-07-22T09:12:59Z</time>
      </trkpt>
      <trkpt lat="46.48676" lon="6.05607">
        <ele>1086.91</ele>
        <time>2015-07-22T09:13:10Z</time>
      </trkpt>
      <trkpt lat="46.48648" lon="6.05584">
        <ele>1087.87</ele>
        <time>2015-07-22T09:13:22Z</time>
      </trkpt>
      <trkpt lat="46.48619" lon="6.05547">
        <ele>1090.27</ele>
        <time>2015-07-22T09:13:36Z</time>
      </trkpt>
      <trkpt lat="46.48593" lon="6.0551">
        <ele>1093.64</ele>
        <time>2015-07-22T09:13:50Z</time>
      </trkpt>
      <trkpt lat="46.48565" lon="6.0547">
        <ele>1094.12</ele>
        <time>2015-07-22T09:14:06Z</time>
      </trkpt>
      <trkpt lat="46.48538" lon="6.0543">
        <ele>1096.04</ele>
        <time>2015-07-22T09:14:21Z</time>
      </trkpt>
      <trkpt lat="46.48502" lon="6.05415">
        <ele>1097</ele>
        <time>2015-07-22T09:14:36Z</time>
      </trkpt>
      <trkpt lat="46.48497" lon="6.05417">
        <ele>1097.48</ele>
        <time>2015-07-22T09:14:38Z</time>
      </trkpt>
      <trkpt lat="46.48495" lon="6.05429">
        <ele>1097.96</ele>
        <time>2015-07-22T09:14:42Z</time>
      </trkpt>
      <trkpt lat="46.48517" lon="6.05494">
        <ele>1100.85</ele>
        <time>2015-07-22T09:15:04Z</time>
      </trkpt>
      <trkpt lat="46.48529" lon="6.05536">
        <ele>1102.77</ele>
        <time>2015-07-22T09:15:18Z</time>
      </trkpt>
      <trkpt lat="46.48543" lon="6.05593">
        <ele>1105.65</ele>
        <time>2015-07-22T09:15:36Z</time>
      </trkpt>
      <trkpt lat="46.48556" lon="6.05651">
        <ele>1108.06</ele>
        <time>2015-07-22T09:15:53Z</time>
      </trkpt>
      <trkpt lat="46.48568" lon="6.05705">
        <ele>1109.5</ele>
        <time>2015-07-22T09:16:08Z</time>
      </trkpt>
      <trkpt lat="46.4858" lon="6.05758">
        <ele>1111.9</ele>
        <time>2015-07-22T09:16:23Z</time>
      </trkpt>
      <trkpt lat="46.48585" lon="6.05809">
        <ele>1113.82</ele>
        <time>2015-07-22T09:16:37Z</time>
      </trkpt>
      <trkpt lat="46.48576" lon="6.05856">
        <ele>1115.75</ele>
        <time>2015-07-22T09:16:50Z</time>
      </trkpt>
      <trkpt lat="46.48583" lon="6.0587">
        <ele>1115.75</ele>
        <time>2015-07-22T09:16:56Z</time>
      </trkpt>
      <trkpt lat="46.48606" lon="6.05912">
        <ele>1116.71</ele>
        <time>2015-07-22T09:17:08Z</time>
      </trkpt>
      <trkpt lat="46.48611" lon="6.05933">
        <ele>1117.67</ele>
        <time>2015-07-22T09:17:14Z</time>
      </trkpt>
      <trkpt lat="46.48611" lon="6.0594">
        <ele>1118.15</ele>
        <time>2015-07-22T09:17:25Z</time>
      </trkpt>
      <trkpt lat="46.48612" lon="6.0594">
        <ele>1118.15</ele>
        <time>2015-07-22T09:17:27Z</time>
      </trkpt>
      <trkpt lat="46.48614" lon="6.05941">
        <ele>1117.19</ele>
        <time>2015-07-22T09:17:32Z</time>
      </trkpt>
      <trkpt lat="46.48631" lon="6.05942">
        <ele>1118.15</ele>
        <time>2015-07-22T09:27:47Z</time>
      </trkpt>
      <trkpt lat="46.48629" lon="6.05942">
        <ele>1117.67</ele>
        <time>2015-07-22T09:27:48Z</time>
      </trkpt>
      <trkpt lat="46.48627" lon="6.05944">
        <ele>1118.15</ele>
        <time>2015-07-22T09:27:49Z</time>
      </trkpt>
      <trkpt lat="46.4863" lon="6.05951">
        <ele>1117.19</ele>
        <time>2015-07-22T09:27:54Z</time>
      </trkpt>
      <trkpt lat="46.48623" lon="6.05993">
        <ele>1116.71</ele>
        <time>2015-07-22T09:28:12Z</time>
      </trkpt>
      <trkpt lat="46.48608" lon="6.06011">
        <ele>1117.67</ele>
        <time>2015-07-22T09:28:24Z</time>
      </trkpt>
      <trkpt lat="46.48607" lon="6.06013">
        <ele>1117.67</ele>
        <time>2015-07-22T09:28:29Z</time>
      </trkpt>
      <trkpt lat="46.486" lon="6.06015">
        <ele>1118.15</ele>
        <time>2015-07-22T09:28:34Z</time>
      </trkpt>
      <trkpt lat="46.48572" lon="6.06031">
        <ele>1117.67</ele>
        <time>2015-07-22T09:28:47Z</time>
      </trkpt>
      <trkpt lat="46.48556" lon="6.06026">
        <ele>1116.71</ele>
        <time>2015-07-22T09:28:53Z</time>
      </trkpt>
      <trkpt lat="46.48542" lon="6.06042">
        <ele>1116.23</ele>
        <time>2015-07-22T09:29:02Z</time>
      </trkpt>
      <trkpt lat="46.48544" lon="6.06056">
        <ele>1116.23</ele>
        <time>2015-07-22T09:29:09Z</time>
      </trkpt>
      <trkpt lat="46.48549" lon="6.06054">
        <ele>1116.23</ele>
        <time>2015-07-22T09:29:20Z</time>
      </trkpt>
      <trkpt lat="46.4855" lon="6.06053">
        <ele>1115.75</ele>
        <time>2015-07-22T09:29:24Z</time>
      </trkpt>
      <trkpt lat="46.48551" lon="6.06033">
        <ele>1115.27</ele>
        <time>2015-07-22T09:53:44Z</time>
      </trkpt>
      <trkpt lat="46.48551" lon="6.06034">
        <ele>1115.27</ele>
        <time>2015-07-22T09:53:47Z</time>
      </trkpt>
      <trkpt lat="46.48546" lon="6.06034">
        <ele>1116.23</ele>
        <time>2015-07-22T09:53:53Z</time>
      </trkpt>
      <trkpt lat="46.48546" lon="6.06038">
        <ele>1116.23</ele>
        <time>2015-07-22T09:53:54Z</time>
      </trkpt>
      <trkpt lat="46.48544" lon="6.0603">
        <ele>1116.71</ele>
        <time>2015-07-22T09:53:58Z</time>
      </trkpt>
      <trkpt lat="46.48541" lon="6.06024">
        <ele>1117.19</ele>
        <time>2015-07-22T09:54:00Z</time>
      </trkpt>
      <trkpt lat="46.48512" lon="6.06022">
        <ele>1116.71</ele>
        <time>2015-07-22T09:54:08Z</time>
      </trkpt>
      <trkpt lat="46.48487" lon="6.06023">
        <ele>1115.75</ele>
        <time>2015-07-22T09:54:14Z</time>
      </trkpt>
      <trkpt lat="46.4844" lon="6.06026">
        <ele>1116.23</ele>
        <time>2015-07-22T09:54:28Z</time>
      </trkpt>
      <trkpt lat="46.4844" lon="6.06022">
        <ele>1116.71</ele>
        <time>2015-07-22T09:54:40Z</time>
      </trkpt>
      <trkpt lat="46.48444" lon="6.06018">
        <ele>1114.79</ele>
        <time>2015-07-22T09:54:55Z</time>
      </trkpt>
      <trkpt lat="46.48433" lon="6.06026">
        <ele>1116.71</ele>
        <time>2015-07-22T09:56:24Z</time>
      </trkpt>
      <trkpt lat="46.4843" lon="6.06025">
        <ele>1116.71</ele>
        <time>2015-07-22T09:56:25Z</time>
      </trkpt>
      <trkpt lat="46.48424" lon="6.06024">
        <ele>1117.19</ele>
        <time>2015-07-22T09:56:29Z</time>
      </trkpt>
      <trkpt lat="46.48406" lon="6.06047">
        <ele>1117.67</ele>
        <time>2015-07-22T09:56:43Z</time>
      </trkpt>
      <trkpt lat="46.48381" lon="6.06066">
        <ele>1118.15</ele>
        <time>2015-07-22T09:56:55Z</time>
      </trkpt>
      <trkpt lat="46.48353" lon="6.06099">
        <ele>1119.11</ele>
        <time>2015-07-22T09:57:10Z</time>
      </trkpt>
      <trkpt lat="46.48328" lon="6.06114">
        <ele>1120.07</ele>
        <time>2015-07-22T09:57:25Z</time>
      </trkpt>
      <trkpt lat="46.48327" lon="6.06119">
        <ele>1120.07</ele>
        <time>2015-07-22T09:57:41Z</time>
      </trkpt>
      <trkpt lat="46.48327" lon="6.06118">
        <ele>1120.07</ele>
        <time>2015-07-22T09:57:54Z</time>
      </trkpt>
      <trkpt lat="46.48324" lon="6.06118">
        <ele>1119.59</ele>
        <time>2015-07-22T09:57:57Z</time>
      </trkpt>
      <trkpt lat="46.48312" lon="6.0612">
        <ele>1119.59</ele>
        <time>2015-07-22T09:58:10Z</time>
      </trkpt>
      <trkpt lat="46.4831" lon="6.06121">
        <ele>1120.07</ele>
        <time>2015-07-22T09:58:24Z</time>
      </trkpt>
      <trkpt lat="46.4831" lon="6.06126">
        <ele>1119.59</ele>
        <time>2015-07-22T09:58:35Z</time>
      </trkpt>
      <trkpt lat="46.48315" lon="6.06133">
        <ele>1120.55</ele>
        <time>2015-07-22T09:58:51Z</time>
      </trkpt>
      <trkpt lat="46.48317" lon="6.06136">
        <ele>1119.59</ele>
        <time>2015-07-22T09:59:04Z</time>
      </trkpt>
      <trkpt lat="46.48287" lon="6.06146">
        <ele>1119.11</ele>
        <time>2015-07-22T10:43:42Z</time>
      </trkpt>
      <trkpt lat="46.48287" lon="6.06143">
        <ele>1119.11</ele>
        <time>2015-07-22T10:43:44Z</time>
      </trkpt>
      <trkpt lat="46.48278" lon="6.06132">
        <ele>1119.59</ele>
        <time>2015-07-22T10:44:00Z</time>
      </trkpt>
      <trkpt lat="46.48278" lon="6.06132">
        <ele>1119.59</ele>
        <time>2015-07-22T10:44:01Z</time>
      </trkpt>
      <trkpt lat="46.48275" lon="6.0613">
        <ele>1119.11</ele>
        <time>2015-07-22T10:44:04Z</time>
      </trkpt>
      <trkpt lat="46.48269" lon="6.06132">
        <ele>1119.59</ele>
        <time>2015-07-22T10:44:08Z</time>
      </trkpt>
      <trkpt lat="46.48266" lon="6.06139">
        <ele>1119.59</ele>
        <time>2015-07-22T10:44:11Z</time>
      </trkpt>
      <trkpt lat="46.48259" lon="6.06145">
        <ele>1119.59</ele>
        <time>2015-07-22T10:44:15Z</time>
      </trkpt>
      <trkpt lat="46.48244" lon="6.06162">
        <ele>1120.07</ele>
        <time>2015-07-22T10:44:24Z</time>
      </trkpt>
      <trkpt lat="46.48218" lon="6.06183">
        <ele>1120.55</ele>
        <time>2015-07-22T10:44:36Z</time>
      </trkpt>
      <trkpt lat="46.48184" lon="6.06209">
        <ele>1121.03</ele>
        <time>2015-07-22T10:44:49Z</time>
      </trkpt>
      <trkpt lat="46.48127" lon="6.06251">
        <ele>1122</ele>
        <time>2015-07-22T10:45:09Z</time>
      </trkpt>
      <trkpt lat="46.48056" lon="6.06303">
        <ele>1120.07</ele>
        <time>2015-07-22T10:45:25Z</time>
      </trkpt>
      <trkpt lat="46.47954" lon="6.06367">
        <ele>1119.11</ele>
        <time>2015-07-22T10:45:43Z</time>
      </trkpt>
      <trkpt lat="46.47861" lon="6.06432">
        <ele>1119.59</ele>
        <time>2015-07-22T10:46:01Z</time>
      </trkpt>
      <trkpt lat="46.47778" lon="6.06475">
        <ele>1120.55</ele>
        <time>2015-07-22T10:46:17Z</time>
      </trkpt>
      <trkpt lat="46.47664" lon="6.06497">
        <ele>1121.03</ele>
        <time>2015-07-22T10:46:37Z</time>
      </trkpt>
      <trkpt lat="46.47584" lon="6.06495">
        <ele>1121.52</ele>
        <time>2015-07-22T10:46:52Z</time>
      </trkpt>
      <trkpt lat="46.47511" lon="6.06459">
        <ele>1123.44</ele>
        <time>2015-07-22T10:47:08Z</time>
      </trkpt>
      <trkpt lat="46.47427" lon="6.06442">
        <ele>1124.4</ele>
        <time>2015-07-22T10:47:27Z</time>
      </trkpt>
      <trkpt lat="46.47353" lon="6.06437">
        <ele>1125.84</ele>
        <time>2015-07-22T10:47:44Z</time>
      </trkpt>
      <trkpt lat="46.47272" lon="6.06433">
        <ele>1127.76</ele>
        <time>2015-07-22T10:48:02Z</time>
      </trkpt>
      <trkpt lat="46.47205" lon="6.06444">
        <ele>1129.69</ele>
        <time>2015-07-22T10:48:19Z</time>
      </trkpt>
      <trkpt lat="46.47138" lon="6.06475">
        <ele>1131.13</ele>
        <time>2015-07-22T10:48:37Z</time>
      </trkpt>
      <trkpt lat="46.47068" lon="6.06532">
        <ele>1131.61</ele>
        <time>2015-07-22T10:48:55Z</time>
      </trkpt>
      <trkpt lat="46.47001" lon="6.06607">
        <ele>1132.57</ele>
        <time>2015-07-22T10:49:13Z</time>
      </trkpt>
      <trkpt lat="46.46936" lon="6.06645">
        <ele>1134.01</ele>
        <time>2015-07-22T10:49:29Z</time>
      </trkpt>
      <trkpt lat="46.46871" lon="6.06669">
        <ele>1137.38</ele>
        <time>2015-07-22T10:49:46Z</time>
      </trkpt>
      <trkpt lat="46.46825" lon="6.06725">
        <ele>1138.82</ele>
        <time>2015-07-22T10:50:01Z</time>
      </trkpt>
      <trkpt lat="46.46767" lon="6.0682">
        <ele>1140.26</ele>
        <time>2015-07-22T10:50:23Z</time>
      </trkpt>
      <trkpt lat="46.4673" lon="6.06883">
        <ele>1142.66</ele>
        <time>2015-07-22T10:50:38Z</time>
      </trkpt>
      <trkpt lat="46.46696" lon="6.06941">
        <ele>1146.03</ele>
        <time>2015-07-22T10:50:54Z</time>
      </trkpt>
      <trkpt lat="46.4668" lon="6.06963">
        <ele>1146.99</ele>
        <time>2015-07-22T10:51:08Z</time>
      </trkpt>
      <trkpt lat="46.4668" lon="6.06963">
        <ele>1146.99</ele>
        <time>2015-07-22T10:51:29Z</time>
      </trkpt>
      <trkpt lat="46.46676" lon="6.06968">
        <ele>1146.99</ele>
        <time>2015-07-22T10:51:33Z</time>
      </trkpt>
      <trkpt lat="46.46639" lon="6.07008">
        <ele>1149.39</ele>
        <time>2015-07-22T10:51:50Z</time>
      </trkpt>
      <trkpt lat="46.46585" lon="6.07045">
        <ele>1151.32</ele>
        <time>2015-07-22T10:52:09Z</time>
      </trkpt>
      <trkpt lat="46.46519" lon="6.07085">
        <ele>1153.24</ele>
        <time>2015-07-22T10:52:29Z</time>
      </trkpt>
      <trkpt lat="46.46444" lon="6.07129">
        <ele>1155.64</ele>
        <time>2015-07-22T10:52:50Z</time>
      </trkpt>
      <trkpt lat="46.4637" lon="6.07174">
        <ele>1156.6</ele>
        <time>2015-07-22T10:53:10Z</time>
      </trkpt>
      <trkpt lat="46.46302" lon="6.07205">
        <ele>1157.56</ele>
        <time>2015-07-22T10:53:28Z</time>
      </trkpt>
      <trkpt lat="46.46286" lon="6.07203">
        <ele>1157.08</ele>
        <time>2015-07-22T10:53:32Z</time>
      </trkpt>
      <trkpt lat="46.46254" lon="6.07227">
        <ele>1156.6</ele>
        <time>2015-07-22T10:53:43Z</time>
      </trkpt>
      <trkpt lat="46.46246" lon="6.07228">
        <ele>1157.08</ele>
        <time>2015-07-22T10:53:52Z</time>
      </trkpt>
      <trkpt lat="46.46245" lon="6.07227">
        <ele>1157.08</ele>
        <time>2015-07-22T10:54:01Z</time>
      </trkpt>
      <trkpt lat="46.46261" lon="6.07221">
        <ele>1157.08</ele>
        <time>2015-07-22T10:54:10Z</time>
      </trkpt>
      <trkpt lat="46.46267" lon="6.0722">
        <ele>1157.08</ele>
        <time>2015-07-22T10:54:14Z</time>
      </trkpt>
      <trkpt lat="46.46263" lon="6.07226">
        <ele>1157.08</ele>
        <time>2015-07-22T10:54:19Z</time>
      </trkpt>
      <trkpt lat="46.46245" lon="6.07226">
        <ele>1157.08</ele>
        <time>2015-07-22T10:54:31Z</time>
      </trkpt>
      <trkpt lat="46.46245" lon="6.07226">
        <ele>1157.08</ele>
        <time>2015-07-22T10:54:54Z</time>
      </trkpt>
      <trkpt lat="46.46245" lon="6.07226">
        <ele>1157.08</ele>
        <time>2015-07-22T10:54:58Z</time>
      </trkpt>
      <trkpt lat="46.46237" lon="6.07222">
        <ele>1157.08</ele>
        <time>2015-07-22T10:55:02Z</time>
      </trkpt>
      <trkpt lat="46.46184" lon="6.07196">
        <ele>1157.08</ele>
        <time>2015-07-22T10:55:18Z</time>
      </trkpt>
      <trkpt lat="46.46139" lon="6.07152">
        <ele>1157.08</ele>
        <time>2015-07-22T10:55:31Z</time>
      </trkpt>
      <trkpt lat="46.46099" lon="6.07129">
        <ele>1157.56</ele>
        <time>2015-07-22T10:55:44Z</time>
      </trkpt>
      <trkpt lat="46.46097" lon="6.07128">
        <ele>1157.56</ele>
        <time>2015-07-22T10:56:00Z</time>
      </trkpt>
      <trkpt lat="46.46097" lon="6.07128">
        <ele>1157.56</ele>
        <time>2015-07-22T10:56:19Z</time>
      </trkpt>
      <trkpt lat="46.46099" lon="6.07133">
        <ele>1157.08</ele>
        <time>2015-07-22T10:56:22Z</time>
      </trkpt>
      <trkpt lat="46.46118" lon="6.07141">
        <ele>1157.08</ele>
        <time>2015-07-22T10:56:28Z</time>
      </trkpt>
      <trkpt lat="46.4618" lon="6.07199">
        <ele>1157.08</ele>
        <time>2015-07-22T10:56:43Z</time>
      </trkpt>
      <trkpt lat="46.4622" lon="6.07226">
        <ele>1156.6</ele>
        <time>2015-07-22T10:56:51Z</time>
      </trkpt>
      <trkpt lat="46.46266" lon="6.07234">
        <ele>1157.08</ele>
        <time>2015-07-22T10:56:59Z</time>
      </trkpt>
      <trkpt lat="46.46286" lon="6.07243">
        <ele>1157.56</ele>
        <time>2015-07-22T10:57:03Z</time>
      </trkpt>
      <trkpt lat="46.46296" lon="6.07247">
        <ele>1157.56</ele>
        <time>2015-07-22T10:57:05Z</time>
      </trkpt>
      <trkpt lat="46.46309" lon="6.07255">
        <ele>1158.05</ele>
        <time>2015-07-22T10:57:08Z</time>
      </trkpt>
      <trkpt lat="46.46352" lon="6.07265">
        <ele>1159.49</ele>
        <time>2015-07-22T10:57:20Z</time>
      </trkpt>
      <trkpt lat="46.46393" lon="6.07276">
        <ele>1159.49</ele>
        <time>2015-07-22T10:57:34Z</time>
      </trkpt>
      <trkpt lat="46.46447" lon="6.07281">
        <ele>1156.6</ele>
        <time>2015-07-22T10:57:45Z</time>
      </trkpt>
      <trkpt lat="46.46492" lon="6.0728">
        <ele>1154.68</ele>
        <time>2015-07-22T10:57:55Z</time>
      </trkpt>
      <trkpt lat="46.46507" lon="6.0728">
        <ele>1154.68</ele>
        <time>2015-07-22T10:58:07Z</time>
      </trkpt>
      <trkpt lat="46.46507" lon="6.0728">
        <ele>1154.68</ele>
        <time>2015-07-22T10:58:09Z</time>
      </trkpt>
      <trkpt lat="46.46504" lon="6.07283">
        <ele>1154.68</ele>
        <time>2015-07-22T10:58:24Z</time>
      </trkpt>
      <trkpt lat="46.46503" lon="6.07284">
        <ele>1154.68</ele>
        <time>2015-07-22T10:58:40Z</time>
      </trkpt>
      <trkpt lat="46.46503" lon="6.07284">
        <ele>1155.16</ele>
        <time>2015-07-22T10:59:01Z</time>
      </trkpt>
      <trkpt lat="46.46503" lon="6.07284">
        <ele>1155.16</ele>
        <time>2015-07-22T10:59:24Z</time>
      </trkpt>
      <trkpt lat="46.46503" lon="6.07284">
        <ele>1155.16</ele>
        <time>2015-07-22T10:59:58Z</time>
      </trkpt>
      <trkpt lat="46.46503" lon="6.07283">
        <ele>1155.16</ele>
        <time>2015-07-22T11:00:33Z</time>
      </trkpt>
      <trkpt lat="46.46503" lon="6.07284">
        <ele>1155.64</ele>
        <time>2015-07-22T11:00:46Z</time>
      </trkpt>
      <trkpt lat="46.46484" lon="6.07293">
        <ele>1156.6</ele>
        <time>2015-07-22T11:00:56Z</time>
      </trkpt>
      <trkpt lat="46.46446" lon="6.07311">
        <ele>1158.53</ele>
        <time>2015-07-22T11:01:08Z</time>
      </trkpt>
      <trkpt lat="46.46417" lon="6.07336">
        <ele>1159.49</ele>
        <time>2015-07-22T11:01:17Z</time>
      </trkpt>
      <trkpt lat="46.46393" lon="6.07385">
        <ele>1161.41</ele>
        <time>2015-07-22T11:01:31Z</time>
      </trkpt>
      <trkpt lat="46.46382" lon="6.07399">
        <ele>1162.37</ele>
        <time>2015-07-22T11:01:36Z</time>
      </trkpt>
      <trkpt lat="46.46342" lon="6.0741">
        <ele>1163.81</ele>
        <time>2015-07-22T11:01:50Z</time>
      </trkpt>
      <trkpt lat="46.46303" lon="6.0743">
        <ele>1166.22</ele>
        <time>2015-07-22T11:02:03Z</time>
      </trkpt>
      <trkpt lat="46.46273" lon="6.07482">
        <ele>1167.66</ele>
        <time>2015-07-22T11:02:18Z</time>
      </trkpt>
      <trkpt lat="46.46251" lon="6.07516">
        <ele>1169.1</ele>
        <time>2015-07-22T11:02:28Z</time>
      </trkpt>
      <trkpt lat="46.46212" lon="6.07556">
        <ele>1171.02</ele>
        <time>2015-07-22T11:02:44Z</time>
      </trkpt>
      <trkpt lat="46.46172" lon="6.07543">
        <ele>1173.43</ele>
        <time>2015-07-22T11:02:58Z</time>
      </trkpt>
      <trkpt lat="46.4614" lon="6.07508">
        <ele>1174.87</ele>
        <time>2015-07-22T11:03:11Z</time>
      </trkpt>
      <trkpt lat="46.46099" lon="6.07463">
        <ele>1177.27</ele>
        <time>2015-07-22T11:03:28Z</time>
      </trkpt>
      <trkpt lat="46.46062" lon="6.07442">
        <ele>1179.19</ele>
        <time>2015-07-22T11:03:41Z</time>
      </trkpt>
      <trkpt lat="46.46026" lon="6.07431">
        <ele>1180.64</ele>
        <time>2015-07-22T11:03:53Z</time>
      </trkpt>
      <trkpt lat="46.45987" lon="6.07446">
        <ele>1183.04</ele>
        <time>2015-07-22T11:04:06Z</time>
      </trkpt>
      <trkpt lat="46.45964" lon="6.07499">
        <ele>1184.96</ele>
        <time>2015-07-22T11:04:20Z</time>
      </trkpt>
      <trkpt lat="46.45952" lon="6.07547">
        <ele>1185.92</ele>
        <time>2015-07-22T11:04:32Z</time>
      </trkpt>
      <trkpt lat="46.45923" lon="6.07588">
        <ele>1187.85</ele>
        <time>2015-07-22T11:04:45Z</time>
      </trkpt>
      <trkpt lat="46.45889" lon="6.07629">
        <ele>1189.77</ele>
        <time>2015-07-22T11:05:00Z</time>
      </trkpt>
      <trkpt lat="46.45846" lon="6.0768">
        <ele>1192.17</ele>
        <time>2015-07-22T11:05:19Z</time>
      </trkpt>
      <trkpt lat="46.45817" lon="6.07707">
        <ele>1194.09</ele>
        <time>2015-07-22T11:05:31Z</time>
      </trkpt>
      <trkpt lat="46.45783" lon="6.07729">
        <ele>1195.54</ele>
        <time>2015-07-22T11:05:44Z</time>
      </trkpt>
      <trkpt lat="46.45755" lon="6.0776">
        <ele>1197.94</ele>
        <time>2015-07-22T11:05:57Z</time>
      </trkpt>
      <trkpt lat="46.45742" lon="6.07809">
        <ele>1199.38</ele>
        <time>2015-07-22T11:06:08Z</time>
      </trkpt>
      <trkpt lat="46.4573" lon="6.07865">
        <ele>1201.3</ele>
        <time>2015-07-22T11:06:21Z</time>
      </trkpt>
      <trkpt lat="46.45714" lon="6.07916">
        <ele>1203.23</ele>
        <time>2015-07-22T11:06:34Z</time>
      </trkpt>
      <trkpt lat="46.45716" lon="6.07981">
        <ele>1205.15</ele>
        <time>2015-07-22T11:06:48Z</time>
      </trkpt>
      <trkpt lat="46.45712" lon="6.08038">
        <ele>1207.07</ele>
        <time>2015-07-22T11:07:01Z</time>
      </trkpt>
      <trkpt lat="46.45701" lon="6.08099">
        <ele>1209.48</ele>
        <time>2015-07-22T11:07:16Z</time>
      </trkpt>
      <trkpt lat="46.45696" lon="6.08149">
        <ele>1210.92</ele>
        <time>2015-07-22T11:07:29Z</time>
      </trkpt>
      <trkpt lat="46.45692" lon="6.08202">
        <ele>1212.84</ele>
        <time>2015-07-22T11:07:43Z</time>
      </trkpt>
      <trkpt lat="46.4569" lon="6.08252">
        <ele>1214.76</ele>
        <time>2015-07-22T11:07:56Z</time>
      </trkpt>
      <trkpt lat="46.45688" lon="6.08302">
        <ele>1216.21</ele>
        <time>2015-07-22T11:08:09Z</time>
      </trkpt>
      <trkpt lat="46.45683" lon="6.0835">
        <ele>1218.13</ele>
        <time>2015-07-22T11:08:22Z</time>
      </trkpt>
      <trkpt lat="46.45675" lon="6.08411">
        <ele>1220.05</ele>
        <time>2015-07-22T11:08:38Z</time>
      </trkpt>
      <trkpt lat="46.45668" lon="6.08475">
        <ele>1222.45</ele>
        <time>2015-07-22T11:08:53Z</time>
      </trkpt>
      <trkpt lat="46.45665" lon="6.0852">
        <ele>1222.93</ele>
        <time>2015-07-22T11:09:03Z</time>
      </trkpt>
      <trkpt lat="46.45665" lon="6.08607">
        <ele>1224.38</ele>
        <time>2015-07-22T11:09:19Z</time>
      </trkpt>
      <trkpt lat="46.45665" lon="6.08618">
        <ele>1224.38</ele>
        <time>2015-07-22T11:09:21Z</time>
      </trkpt>
      <trkpt lat="46.45636" lon="6.08708">
        <ele>1225.82</ele>
        <time>2015-07-22T11:09:38Z</time>
      </trkpt>
      <trkpt lat="46.45605" lon="6.088">
        <ele>1227.26</ele>
        <time>2015-07-22T11:09:55Z</time>
      </trkpt>
      <trkpt lat="46.45598" lon="6.08844">
        <ele>1228.22</ele>
        <time>2015-07-22T11:10:05Z</time>
      </trkpt>
      <trkpt lat="46.45599" lon="6.08844">
        <ele>1228.22</ele>
        <time>2015-07-22T11:10:23Z</time>
      </trkpt>
      <trkpt lat="46.45598" lon="6.08844">
        <ele>1228.22</ele>
        <time>2015-07-22T11:10:39Z</time>
      </trkpt>
      <trkpt lat="46.45598" lon="6.08844">
        <ele>1228.22</ele>
        <time>2015-07-22T11:10:44Z</time>
      </trkpt>
      <trkpt lat="46.45598" lon="6.08848">
        <ele>1228.22</ele>
        <time>2015-07-22T11:10:46Z</time>
      </trkpt>
      <trkpt lat="46.45597" lon="6.08866">
        <ele>1227.74</ele>
        <time>2015-07-22T11:10:50Z</time>
      </trkpt>
      <trkpt lat="46.45595" lon="6.08903">
        <ele>1227.74</ele>
        <time>2015-07-22T11:10:56Z</time>
      </trkpt>
      <trkpt lat="46.45581" lon="6.08966">
        <ele>1227.74</ele>
        <time>2015-07-22T11:11:08Z</time>
      </trkpt>
      <trkpt lat="46.45574" lon="6.08996">
        <ele>1227.26</ele>
        <time>2015-07-22T11:11:13Z</time>
      </trkpt>
      <trkpt lat="46.45532" lon="6.0911">
        <ele>1227.74</ele>
        <time>2015-07-22T11:11:32Z</time>
      </trkpt>
      <trkpt lat="46.45529" lon="6.09115">
        <ele>1227.74</ele>
        <time>2015-07-22T11:11:33Z</time>
      </trkpt>
      <trkpt lat="46.45516" lon="6.09144">
        <ele>1227.74</ele>
        <time>2015-07-22T11:11:38Z</time>
      </trkpt>
      <trkpt lat="46.45502" lon="6.09172">
        <ele>1227.26</ele>
        <time>2015-07-22T11:11:43Z</time>
      </trkpt>
      <trkpt lat="46.45457" lon="6.09264">
        <ele>1226.78</ele>
        <time>2015-07-22T11:12:00Z</time>
      </trkpt>
      <trkpt lat="46.45431" lon="6.0934">
        <ele>1225.82</ele>
        <time>2015-07-22T11:12:14Z</time>
      </trkpt>
      <trkpt lat="46.4543" lon="6.09341">
        <ele>1226.3</ele>
        <time>2015-07-22T11:12:27Z</time>
      </trkpt>
      <trkpt lat="46.4543" lon="6.09341">
        <ele>1225.82</ele>
        <time>2015-07-22T11:12:34Z</time>
      </trkpt>
      <trkpt lat="46.45429" lon="6.09357">
        <ele>1225.34</ele>
        <time>2015-07-22T11:12:39Z</time>
      </trkpt>
      <trkpt lat="46.45427" lon="6.09368">
        <ele>1225.34</ele>
        <time>2015-07-22T11:12:41Z</time>
      </trkpt>
      <trkpt lat="46.45425" lon="6.09397">
        <ele>1224.86</ele>
        <time>2015-07-22T11:12:45Z</time>
      </trkpt>
      <trkpt lat="46.45428" lon="6.09507">
        <ele>1221.49</ele>
        <time>2015-07-22T11:12:56Z</time>
      </trkpt>
      <trkpt lat="46.45432" lon="6.09579">
        <ele>1219.09</ele>
        <time>2015-07-22T11:13:02Z</time>
      </trkpt>
      <trkpt lat="46.45437" lon="6.09672">
        <ele>1216.69</ele>
        <time>2015-07-22T11:13:09Z</time>
      </trkpt>
      <trkpt lat="46.45429" lon="6.09762">
        <ele>1216.21</ele>
        <time>2015-07-22T11:13:16Z</time>
      </trkpt>
      <trkpt lat="46.45444" lon="6.09952">
        <ele>1212.84</ele>
        <time>2015-07-22T11:13:30Z</time>
      </trkpt>
      <trkpt lat="46.45444" lon="6.09997">
        <ele>1211.4</ele>
        <time>2015-07-22T11:13:33Z</time>
      </trkpt>
      <trkpt lat="46.45443" lon="6.10044">
        <ele>1209.96</ele>
        <time>2015-07-22T11:13:36Z</time>
      </trkpt>
      <trkpt lat="46.45441" lon="6.10091">
        <ele>1208.51</ele>
        <time>2015-07-22T11:13:39Z</time>
      </trkpt>
      <trkpt lat="46.45437" lon="6.10248">
        <ele>1206.59</ele>
        <time>2015-07-22T11:13:50Z</time>
      </trkpt>
      <trkpt lat="46.45429" lon="6.1046">
        <ele>1205.63</ele>
        <time>2015-07-22T11:14:08Z</time>
      </trkpt>
      <trkpt lat="46.45426" lon="6.1063">
        <ele>1207.07</ele>
        <time>2015-07-22T11:14:25Z</time>
      </trkpt>
      <trkpt lat="46.45434" lon="6.10798">
        <ele>1206.59</ele>
        <time>2015-07-22T11:14:42Z</time>
      </trkpt>
      <trkpt lat="46.45437" lon="6.10891">
        <ele>1208.03</ele>
        <time>2015-07-22T11:14:53Z</time>
      </trkpt>
      <trkpt lat="46.45438" lon="6.11009">
        <ele>1207.07</ele>
        <time>2015-07-22T11:15:07Z</time>
      </trkpt>
      <trkpt lat="46.45439" lon="6.11076">
        <ele>1207.55</ele>
        <time>2015-07-22T11:15:15Z</time>
      </trkpt>
      <trkpt lat="46.45442" lon="6.11223">
        <ele>1209</ele>
        <time>2015-07-22T11:15:34Z</time>
      </trkpt>
      <trkpt lat="46.45434" lon="6.11338">
        <ele>1207.55</ele>
        <time>2015-07-22T11:15:48Z</time>
      </trkpt>
      <trkpt lat="46.45423" lon="6.11499">
        <ele>1206.59</ele>
        <time>2015-07-22T11:16:05Z</time>
      </trkpt>
      <trkpt lat="46.4542" lon="6.11627">
        <ele>1203.71</ele>
        <time>2015-07-22T11:16:19Z</time>
      </trkpt>
      <trkpt lat="46.45413" lon="6.11698">
        <ele>1200.34</ele>
        <time>2015-07-22T11:16:25Z</time>
      </trkpt>
      <trkpt lat="46.45401" lon="6.1175">
        <ele>1197.46</ele>
        <time>2015-07-22T11:16:29Z</time>
      </trkpt>
      <trkpt lat="46.45387" lon="6.11789">
        <ele>1195.54</ele>
        <time>2015-07-22T11:16:32Z</time>
      </trkpt>
      <trkpt lat="46.45342" lon="6.11899">
        <ele>1192.65</ele>
        <time>2015-07-22T11:16:41Z</time>
      </trkpt>
      <trkpt lat="46.45314" lon="6.11971">
        <ele>1189.77</ele>
        <time>2015-07-22T11:16:47Z</time>
      </trkpt>
      <trkpt lat="46.45291" lon="6.12034">
        <ele>1187.37</ele>
        <time>2015-07-22T11:16:52Z</time>
      </trkpt>
      <trkpt lat="46.45239" lon="6.12207">
        <ele>1185.92</ele>
        <time>2015-07-22T11:17:07Z</time>
      </trkpt>
      <trkpt lat="46.4521" lon="6.12304">
        <ele>1182.56</ele>
        <time>2015-07-22T11:17:15Z</time>
      </trkpt>
      <trkpt lat="46.45182" lon="6.12389">
        <ele>1182.08</ele>
        <time>2015-07-22T11:17:25Z</time>
      </trkpt>
      <trkpt lat="46.45181" lon="6.1239">
        <ele>1182.08</ele>
        <time>2015-07-22T11:17:26Z</time>
      </trkpt>
      <trkpt lat="46.4518" lon="6.1239">
        <ele>1181.6</ele>
        <time>2015-07-22T11:17:27Z</time>
      </trkpt>
      <trkpt lat="46.45179" lon="6.12392">
        <ele>1182.08</ele>
        <time>2015-07-22T11:17:41Z</time>
      </trkpt>
      <trkpt lat="46.45179" lon="6.12392">
        <ele>1182.08</ele>
        <time>2015-07-22T11:18:04Z</time>
      </trkpt>
      <trkpt lat="46.45179" lon="6.12391">
        <ele>1182.08</ele>
        <time>2015-07-22T11:18:28Z</time>
      </trkpt>
      <trkpt lat="46.4518" lon="6.1239">
        <ele>1182.08</ele>
        <time>2015-07-22T11:18:47Z</time>
      </trkpt>
      <trkpt lat="46.45179" lon="6.1239">
        <ele>1182.08</ele>
        <time>2015-07-22T11:19:10Z</time>
      </trkpt>
      <trkpt lat="46.45179" lon="6.1239">
        <ele>1182.08</ele>
        <time>2015-07-22T11:19:28Z</time>
      </trkpt>
      <trkpt lat="46.45182" lon="6.12392">
        <ele>1182.08</ele>
        <time>2015-07-22T11:19:30Z</time>
      </trkpt>
      <trkpt lat="46.45182" lon="6.124">
        <ele>1182.08</ele>
        <time>2015-07-22T11:19:33Z</time>
      </trkpt>
      <trkpt lat="46.45166" lon="6.12462">
        <ele>1181.6</ele>
        <time>2015-07-22T11:19:46Z</time>
      </trkpt>
      <trkpt lat="46.45127" lon="6.12597">
        <ele>1179.67</ele>
        <time>2015-07-22T11:20:03Z</time>
      </trkpt>
      <trkpt lat="46.45069" lon="6.12751">
        <ele>1178.23</ele>
        <time>2015-07-22T11:20:21Z</time>
      </trkpt>
      <trkpt lat="46.45049" lon="6.12801">
        <ele>1178.23</ele>
        <time>2015-07-22T11:20:27Z</time>
      </trkpt>
      <trkpt lat="46.45029" lon="6.12861">
        <ele>1177.75</ele>
        <time>2015-07-22T11:20:34Z</time>
      </trkpt>
      <trkpt lat="46.45004" lon="6.12966">
        <ele>1174.39</ele>
        <time>2015-07-22T11:20:44Z</time>
      </trkpt>
      <trkpt lat="46.45" lon="6.12976">
        <ele>1173.91</ele>
        <time>2015-07-22T11:20:45Z</time>
      </trkpt>
      <trkpt lat="46.44972" lon="6.13095">
        <ele>1171.02</ele>
        <time>2015-07-22T11:20:55Z</time>
      </trkpt>
      <trkpt lat="46.44962" lon="6.13146">
        <ele>1169.1</ele>
        <time>2015-07-22T11:20:59Z</time>
      </trkpt>
      <trkpt lat="46.44957" lon="6.13184">
        <ele>1168.62</ele>
        <time>2015-07-22T11:21:02Z</time>
      </trkpt>
      <trkpt lat="46.44956" lon="6.13198">
        <ele>1168.14</ele>
        <time>2015-07-22T11:21:03Z</time>
      </trkpt>
      <trkpt lat="46.44956" lon="6.13211">
        <ele>1167.66</ele>
        <time>2015-07-22T11:21:04Z</time>
      </trkpt>
      <trkpt lat="46.44957" lon="6.13239">
        <ele>1167.18</ele>
        <time>2015-07-22T11:21:06Z</time>
      </trkpt>
      <trkpt lat="46.44955" lon="6.13267">
        <ele>1166.22</ele>
        <time>2015-07-22T11:21:08Z</time>
      </trkpt>
      <trkpt lat="46.44952" lon="6.1328">
        <ele>1165.74</ele>
        <time>2015-07-22T11:21:09Z</time>
      </trkpt>
      <trkpt lat="46.44923" lon="6.13383">
        <ele>1162.85</ele>
        <time>2015-07-22T11:21:17Z</time>
      </trkpt>
      <trkpt lat="46.44917" lon="6.13395">
        <ele>1162.37</ele>
        <time>2015-07-22T11:21:18Z</time>
      </trkpt>
      <trkpt lat="46.44911" lon="6.13405">
        <ele>1162.37</ele>
        <time>2015-07-22T11:21:19Z</time>
      </trkpt>
      <trkpt lat="46.44904" lon="6.13414">
        <ele>1161.89</ele>
        <time>2015-07-22T11:21:20Z</time>
      </trkpt>
      <trkpt lat="46.44896" lon="6.13423">
        <ele>1161.41</ele>
        <time>2015-07-22T11:21:21Z</time>
      </trkpt>
      <trkpt lat="46.44882" lon="6.13441">
        <ele>1160.93</ele>
        <time>2015-07-22T11:21:23Z</time>
      </trkpt>
      <trkpt lat="46.44876" lon="6.13452">
        <ele>1160.45</ele>
        <time>2015-07-22T11:21:24Z</time>
      </trkpt>
      <trkpt lat="46.4487" lon="6.13463">
        <ele>1159.97</ele>
        <time>2015-07-22T11:21:25Z</time>
      </trkpt>
      <trkpt lat="46.44861" lon="6.13488">
        <ele>1159.49</ele>
        <time>2015-07-22T11:21:27Z</time>
      </trkpt>
      <trkpt lat="46.44835" lon="6.13565">
        <ele>1156.12</ele>
        <time>2015-07-22T11:21:33Z</time>
      </trkpt>
      <trkpt lat="46.44833" lon="6.13578">
        <ele>1156.12</ele>
        <time>2015-07-22T11:21:34Z</time>
      </trkpt>
      <trkpt lat="46.44833" lon="6.13591">
        <ele>1155.16</ele>
        <time>2015-07-22T11:21:35Z</time>
      </trkpt>
      <trkpt lat="46.44836" lon="6.13605">
        <ele>1154.68</ele>
        <time>2015-07-22T11:21:36Z</time>
      </trkpt>
      <trkpt lat="46.44841" lon="6.13618">
        <ele>1154.2</ele>
        <time>2015-07-22T11:21:37Z</time>
      </trkpt>
      <trkpt lat="46.44846" lon="6.13631">
        <ele>1153.72</ele>
        <time>2015-07-22T11:21:38Z</time>
      </trkpt>
      <trkpt lat="46.44856" lon="6.13657">
        <ele>1151.32</ele>
        <time>2015-07-22T11:21:40Z</time>
      </trkpt>
      <trkpt lat="46.44859" lon="6.13671">
        <ele>1150.84</ele>
        <time>2015-07-22T11:21:41Z</time>
      </trkpt>
      <trkpt lat="46.44861" lon="6.13686">
        <ele>1150.35</ele>
        <time>2015-07-22T11:21:42Z</time>
      </trkpt>
      <trkpt lat="46.44862" lon="6.13701">
        <ele>1149.87</ele>
        <time>2015-07-22T11:21:43Z</time>
      </trkpt>
      <trkpt lat="46.44862" lon="6.13715">
        <ele>1149.87</ele>
        <time>2015-07-22T11:21:44Z</time>
      </trkpt>
      <trkpt lat="46.44861" lon="6.1373">
        <ele>1148.91</ele>
        <time>2015-07-22T11:21:45Z</time>
      </trkpt>
      <trkpt lat="46.44859" lon="6.13745">
        <ele>1148.43</ele>
        <time>2015-07-22T11:21:46Z</time>
      </trkpt>
      <trkpt lat="46.44857" lon="6.1376">
        <ele>1147.95</ele>
        <time>2015-07-22T11:21:47Z</time>
      </trkpt>
      <trkpt lat="46.44854" lon="6.13775">
        <ele>1147.47</ele>
        <time>2015-07-22T11:21:48Z</time>
      </trkpt>
      <trkpt lat="46.44851" lon="6.1379">
        <ele>1146.51</ele>
        <time>2015-07-22T11:21:49Z</time>
      </trkpt>
      <trkpt lat="46.44846" lon="6.13803">
        <ele>1146.03</ele>
        <time>2015-07-22T11:21:50Z</time>
      </trkpt>
      <trkpt lat="46.44841" lon="6.13817">
        <ele>1145.55</ele>
        <time>2015-07-22T11:21:51Z</time>
      </trkpt>
      <trkpt lat="46.44824" lon="6.13868">
        <ele>1144.11</ele>
        <time>2015-07-22T11:21:55Z</time>
      </trkpt>
      <trkpt lat="46.44822" lon="6.13881">
        <ele>1143.63</ele>
        <time>2015-07-22T11:21:56Z</time>
      </trkpt>
      <trkpt lat="46.44821" lon="6.13894">
        <ele>1143.63</ele>
        <time>2015-07-22T11:21:57Z</time>
      </trkpt>
      <trkpt lat="46.44822" lon="6.13907">
        <ele>1142.66</ele>
        <time>2015-07-22T11:21:58Z</time>
      </trkpt>
      <trkpt lat="46.44826" lon="6.13919">
        <ele>1142.18</ele>
        <time>2015-07-22T11:21:59Z</time>
      </trkpt>
      <trkpt lat="46.4483" lon="6.13931">
        <ele>1141.7</ele>
        <time>2015-07-22T11:22:00Z</time>
      </trkpt>
      <trkpt lat="46.44838" lon="6.13953">
        <ele>1140.74</ele>
        <time>2015-07-22T11:22:02Z</time>
      </trkpt>
      <trkpt lat="46.44841" lon="6.13966">
        <ele>1140.26</ele>
        <time>2015-07-22T11:22:03Z</time>
      </trkpt>
      <trkpt lat="46.44842" lon="6.13979">
        <ele>1139.78</ele>
        <time>2015-07-22T11:22:04Z</time>
      </trkpt>
      <trkpt lat="46.44842" lon="6.13992">
        <ele>1138.82</ele>
        <time>2015-07-22T11:22:05Z</time>
      </trkpt>
      <trkpt lat="46.4484" lon="6.14005">
        <ele>1137.86</ele>
        <time>2015-07-22T11:22:06Z</time>
      </trkpt>
      <trkpt lat="46.44838" lon="6.14018">
        <ele>1136.9</ele>
        <time>2015-07-22T11:22:07Z</time>
      </trkpt>
      <trkpt lat="46.44836" lon="6.14031">
        <ele>1136.9</ele>
        <time>2015-07-22T11:22:08Z</time>
      </trkpt>
      <trkpt lat="46.44821" lon="6.141">
        <ele>1134.01</ele>
        <time>2015-07-22T11:22:13Z</time>
      </trkpt>
      <trkpt lat="46.44795" lon="6.14165">
        <ele>1130.65</ele>
        <time>2015-07-22T11:22:18Z</time>
      </trkpt>
      <trkpt lat="46.44785" lon="6.14191">
        <ele>1128.73</ele>
        <time>2015-07-22T11:22:20Z</time>
      </trkpt>
      <trkpt lat="46.44771" lon="6.14226">
        <ele>1127.28</ele>
        <time>2015-07-22T11:22:23Z</time>
      </trkpt>
      <trkpt lat="46.44754" lon="6.14281">
        <ele>1125.84</ele>
        <time>2015-07-22T11:22:30Z</time>
      </trkpt>
      <trkpt lat="46.44748" lon="6.14356">
        <ele>1122.48</ele>
        <time>2015-07-22T11:22:39Z</time>
      </trkpt>
      <trkpt lat="46.44743" lon="6.14401">
        <ele>1120.55</ele>
        <time>2015-07-22T11:22:43Z</time>
      </trkpt>
      <trkpt lat="46.4474" lon="6.14412">
        <ele>1120.07</ele>
        <time>2015-07-22T11:22:44Z</time>
      </trkpt>
      <trkpt lat="46.44736" lon="6.14423">
        <ele>1119.11</ele>
        <time>2015-07-22T11:22:45Z</time>
      </trkpt>
      <trkpt lat="46.44731" lon="6.14434">
        <ele>1118.63</ele>
        <time>2015-07-22T11:22:46Z</time>
      </trkpt>
      <trkpt lat="46.44727" lon="6.14443">
        <ele>1118.15</ele>
        <time>2015-07-22T11:22:47Z</time>
      </trkpt>
      <trkpt lat="46.44722" lon="6.14451">
        <ele>1118.15</ele>
        <time>2015-07-22T11:22:48Z</time>
      </trkpt>
      <trkpt lat="46.44709" lon="6.14479">
        <ele>1117.67</ele>
        <time>2015-07-22T11:22:51Z</time>
      </trkpt>
      <trkpt lat="46.44706" lon="6.14489">
        <ele>1116.71</ele>
        <time>2015-07-22T11:22:52Z</time>
      </trkpt>
      <trkpt lat="46.44704" lon="6.14499">
        <ele>1116.23</ele>
        <time>2015-07-22T11:22:53Z</time>
      </trkpt>
      <trkpt lat="46.44702" lon="6.14511">
        <ele>1115.27</ele>
        <time>2015-07-22T11:22:54Z</time>
      </trkpt>
      <trkpt lat="46.44702" lon="6.14522">
        <ele>1114.79</ele>
        <time>2015-07-22T11:22:55Z</time>
      </trkpt>
      <trkpt lat="46.44702" lon="6.14533">
        <ele>1114.31</ele>
        <time>2015-07-22T11:22:56Z</time>
      </trkpt>
      <trkpt lat="46.44708" lon="6.14553">
        <ele>1113.82</ele>
        <time>2015-07-22T11:22:58Z</time>
      </trkpt>
      <trkpt lat="46.44732" lon="6.14608">
        <ele>1110.46</ele>
        <time>2015-07-22T11:23:04Z</time>
      </trkpt>
      <trkpt lat="46.44738" lon="6.14628">
        <ele>1109.5</ele>
        <time>2015-07-22T11:23:06Z</time>
      </trkpt>
      <trkpt lat="46.44736" lon="6.14659">
        <ele>1108.06</ele>
        <time>2015-07-22T11:23:09Z</time>
      </trkpt>
      <trkpt lat="46.44705" lon="6.14678">
        <ele>1106.13</ele>
        <time>2015-07-22T11:23:14Z</time>
      </trkpt>
      <trkpt lat="46.44672" lon="6.14672">
        <ele>1104.69</ele>
        <time>2015-07-22T11:23:19Z</time>
      </trkpt>
      <trkpt lat="46.44666" lon="6.14676">
        <ele>1104.21</ele>
        <time>2015-07-22T11:23:20Z</time>
      </trkpt>
      <trkpt lat="46.4466" lon="6.14679">
        <ele>1103.73</ele>
        <time>2015-07-22T11:23:21Z</time>
      </trkpt>
      <trkpt lat="46.44611" lon="6.14715">
        <ele>1100.37</ele>
        <time>2015-07-22T11:23:32Z</time>
      </trkpt>
      <trkpt lat="46.44605" lon="6.14718">
        <ele>1100.37</ele>
        <time>2015-07-22T11:23:34Z</time>
      </trkpt>
      <trkpt lat="46.44603" lon="6.14718">
        <ele>1099.89</ele>
        <time>2015-07-22T11:23:35Z</time>
      </trkpt>
      <trkpt lat="46.44599" lon="6.14713">
        <ele>1099.89</ele>
        <time>2015-07-22T11:23:38Z</time>
      </trkpt>
      <trkpt lat="46.44598" lon="6.14709">
        <ele>1099.4</ele>
        <time>2015-07-22T11:23:40Z</time>
      </trkpt>
      <trkpt lat="46.44599" lon="6.14693">
        <ele>1099.4</ele>
        <time>2015-07-22T11:23:47Z</time>
      </trkpt>
      <trkpt lat="46.44607" lon="6.14647">
        <ele>1098.92</ele>
        <time>2015-07-22T11:23:59Z</time>
      </trkpt>
      <trkpt lat="46.44613" lon="6.1459">
        <ele>1099.89</ele>
        <time>2015-07-22T11:24:12Z</time>
      </trkpt>
      <trkpt lat="46.44618" lon="6.14545">
        <ele>1099.89</ele>
        <time>2015-07-22T11:24:22Z</time>
      </trkpt>
      <trkpt lat="46.44622" lon="6.14529">
        <ele>1100.37</ele>
        <time>2015-07-22T11:24:27Z</time>
      </trkpt>
      <trkpt lat="46.44617" lon="6.14529">
        <ele>1100.37</ele>
        <time>2015-07-22T11:24:32Z</time>
      </trkpt>
      <trkpt lat="46.44613" lon="6.14591">
        <ele>1099.89</ele>
        <time>2015-07-22T11:24:45Z</time>
      </trkpt>
      <trkpt lat="46.44609" lon="6.14615">
        <ele>1099.4</ele>
        <time>2015-07-22T11:24:49Z</time>
      </trkpt>
      <trkpt lat="46.44608" lon="6.14622">
        <ele>1099.4</ele>
        <time>2015-07-22T11:24:50Z</time>
      </trkpt>
      <trkpt lat="46.44598" lon="6.14711">
        <ele>1099.4</ele>
        <time>2015-07-22T11:25:04Z</time>
      </trkpt>
      <trkpt lat="46.44599" lon="6.14731">
        <ele>1099.4</ele>
        <time>2015-07-22T11:25:14Z</time>
      </trkpt>
      <trkpt lat="46.44598" lon="6.14732">
        <ele>1099.4</ele>
        <time>2015-07-22T11:25:39Z</time>
      </trkpt>
      <trkpt lat="46.44598" lon="6.14734">
        <ele>1099.4</ele>
        <time>2015-07-22T11:25:40Z</time>
      </trkpt>
      <trkpt lat="46.44597" lon="6.14735">
        <ele>1099.4</ele>
        <time>2015-07-22T11:25:41Z</time>
      </trkpt>
      <trkpt lat="46.44596" lon="6.14738">
        <ele>1098.44</ele>
        <time>2015-07-22T11:25:42Z</time>
      </trkpt>
      <trkpt lat="46.44594" lon="6.14741">
        <ele>1099.4</ele>
        <time>2015-07-22T11:25:43Z</time>
      </trkpt>
      <trkpt lat="46.44578" lon="6.14775">
        <ele>1097.48</ele>
        <time>2015-07-22T11:25:50Z</time>
      </trkpt>
      <trkpt lat="46.44571" lon="6.14798">
        <ele>1096.52</ele>
        <time>2015-07-22T11:25:53Z</time>
      </trkpt>
      <trkpt lat="46.44569" lon="6.14807">
        <ele>1096.52</ele>
        <time>2015-07-22T11:25:54Z</time>
      </trkpt>
      <trkpt lat="46.44567" lon="6.14817">
        <ele>1096.04</ele>
        <time>2015-07-22T11:25:55Z</time>
      </trkpt>
      <trkpt lat="46.44559" lon="6.14881">
        <ele>1093.16</ele>
        <time>2015-07-22T11:26:01Z</time>
      </trkpt>
      <trkpt lat="46.44556" lon="6.14906">
        <ele>1092.2</ele>
        <time>2015-07-22T11:26:03Z</time>
      </trkpt>
      <trkpt lat="46.44546" lon="6.14985">
        <ele>1088.83</ele>
        <time>2015-07-22T11:26:09Z</time>
      </trkpt>
      <trkpt lat="46.44544" lon="6.14998">
        <ele>1088.35</ele>
        <time>2015-07-22T11:26:10Z</time>
      </trkpt>
      <trkpt lat="46.44536" lon="6.15084">
        <ele>1084.99</ele>
        <time>2015-07-22T11:26:16Z</time>
      </trkpt>
      <trkpt lat="46.44536" lon="6.15099">
        <ele>1084.5</ele>
        <time>2015-07-22T11:26:17Z</time>
      </trkpt>
      <trkpt lat="46.4454" lon="6.15142">
        <ele>1083.06</ele>
        <time>2015-07-22T11:26:20Z</time>
      </trkpt>
      <trkpt lat="46.44542" lon="6.15156">
        <ele>1082.58</ele>
        <time>2015-07-22T11:26:21Z</time>
      </trkpt>
      <trkpt lat="46.44555" lon="6.15189">
        <ele>1080.66</ele>
        <time>2015-07-22T11:26:24Z</time>
      </trkpt>
      <trkpt lat="46.44562" lon="6.152">
        <ele>1080.18</ele>
        <time>2015-07-22T11:26:25Z</time>
      </trkpt>
      <trkpt lat="46.44599" lon="6.1524">
        <ele>1078.26</ele>
        <time>2015-07-22T11:26:29Z</time>
      </trkpt>
      <trkpt lat="46.44628" lon="6.15277">
        <ele>1076.33</ele>
        <time>2015-07-22T11:26:33Z</time>
      </trkpt>
      <trkpt lat="46.44639" lon="6.15298">
        <ele>1075.37</ele>
        <time>2015-07-22T11:26:35Z</time>
      </trkpt>
      <trkpt lat="46.44652" lon="6.15332">
        <ele>1073.45</ele>
        <time>2015-07-22T11:26:38Z</time>
      </trkpt>
      <trkpt lat="46.44661" lon="6.15425">
        <ele>1070.57</ele>
        <time>2015-07-22T11:26:45Z</time>
      </trkpt>
      <trkpt lat="46.44676" lon="6.15471">
        <ele>1068.64</ele>
        <time>2015-07-22T11:26:49Z</time>
      </trkpt>
      <trkpt lat="46.44688" lon="6.15492">
        <ele>1067.2</ele>
        <time>2015-07-22T11:26:51Z</time>
      </trkpt>
      <trkpt lat="46.44715" lon="6.15552">
        <ele>1064.8</ele>
        <time>2015-07-22T11:26:57Z</time>
      </trkpt>
      <trkpt lat="46.44717" lon="6.1556">
        <ele>1064.32</ele>
        <time>2015-07-22T11:26:58Z</time>
      </trkpt>
      <trkpt lat="46.44719" lon="6.15581">
        <ele>1062.87</ele>
        <time>2015-07-22T11:27:06Z</time>
      </trkpt>
      <trkpt lat="46.44718" lon="6.15581">
        <ele>1062.87</ele>
        <time>2015-07-22T11:27:27Z</time>
      </trkpt>
      <trkpt lat="46.44718" lon="6.15581">
        <ele>1062.87</ele>
        <time>2015-07-22T11:27:54Z</time>
      </trkpt>
      <trkpt lat="46.44718" lon="6.15581">
        <ele>1062.87</ele>
        <time>2015-07-22T11:27:56Z</time>
      </trkpt>
      <trkpt lat="46.44718" lon="6.15586">
        <ele>1062.39</ele>
        <time>2015-07-22T11:27:59Z</time>
      </trkpt>
      <trkpt lat="46.44709" lon="6.15638">
        <ele>1060.47</ele>
        <time>2015-07-22T11:28:07Z</time>
      </trkpt>
      <trkpt lat="46.44678" lon="6.15697">
        <ele>1057.11</ele>
        <time>2015-07-22T11:28:14Z</time>
      </trkpt>
      <trkpt lat="46.44636" lon="6.15767">
        <ele>1053.26</ele>
        <time>2015-07-22T11:28:22Z</time>
      </trkpt>
      <trkpt lat="46.44626" lon="6.15783">
        <ele>1052.3</ele>
        <time>2015-07-22T11:28:24Z</time>
      </trkpt>
      <trkpt lat="46.44608" lon="6.15805">
        <ele>1051.82</ele>
        <time>2015-07-22T11:28:28Z</time>
      </trkpt>
      <trkpt lat="46.44564" lon="6.15806">
        <ele>1050.38</ele>
        <time>2015-07-22T11:28:36Z</time>
      </trkpt>
      <trkpt lat="46.44519" lon="6.15831">
        <ele>1051.34</ele>
        <time>2015-07-22T11:28:44Z</time>
      </trkpt>
      <trkpt lat="46.44482" lon="6.15876">
        <ele>1049.42</ele>
        <time>2015-07-22T11:28:52Z</time>
      </trkpt>
      <trkpt lat="46.44447" lon="6.15958">
        <ele>1045.57</ele>
        <time>2015-07-22T11:29:00Z</time>
      </trkpt>
      <trkpt lat="46.44423" lon="6.1602">
        <ele>1042.69</ele>
        <time>2015-07-22T11:29:05Z</time>
      </trkpt>
      <trkpt lat="46.44407" lon="6.16076">
        <ele>1039.32</ele>
        <time>2015-07-22T11:29:09Z</time>
      </trkpt>
      <trkpt lat="46.4439" lon="6.16149">
        <ele>1035.48</ele>
        <time>2015-07-22T11:29:14Z</time>
      </trkpt>
      <trkpt lat="46.44388" lon="6.16164">
        <ele>1035.48</ele>
        <time>2015-07-22T11:29:15Z</time>
      </trkpt>
      <trkpt lat="46.44372" lon="6.16237">
        <ele>1033.55</ele>
        <time>2015-07-22T11:29:20Z</time>
      </trkpt>
      <trkpt lat="46.44337" lon="6.16328">
        <ele>1030.19</ele>
        <time>2015-07-22T11:29:27Z</time>
      </trkpt>
      <trkpt lat="46.4433" lon="6.1634">
        <ele>1029.71</ele>
        <time>2015-07-22T11:29:28Z</time>
      </trkpt>
      <trkpt lat="46.44307" lon="6.16383">
        <ele>1028.27</ele>
        <time>2015-07-22T11:29:32Z</time>
      </trkpt>
      <trkpt lat="46.44243" lon="6.16425">
        <ele>1024.9</ele>
        <time>2015-07-22T11:29:40Z</time>
      </trkpt>
      <trkpt lat="46.44209" lon="6.16388">
        <ele>1022.5</ele>
        <time>2015-07-22T11:29:46Z</time>
      </trkpt>
      <trkpt lat="46.44207" lon="6.16364">
        <ele>1021.54</ele>
        <time>2015-07-22T11:29:48Z</time>
      </trkpt>
      <trkpt lat="46.44192" lon="6.16308">
        <ele>1019.62</ele>
        <time>2015-07-22T11:29:53Z</time>
      </trkpt>
      <trkpt lat="46.44182" lon="6.16288">
        <ele>1018.17</ele>
        <time>2015-07-22T11:29:55Z</time>
      </trkpt>
      <trkpt lat="46.44171" lon="6.16269">
        <ele>1017.69</ele>
        <time>2015-07-22T11:29:57Z</time>
      </trkpt>
      <trkpt lat="46.44151" lon="6.16259">
        <ele>1016.25</ele>
        <time>2015-07-22T11:30:00Z</time>
      </trkpt>
      <trkpt lat="46.44133" lon="6.16266">
        <ele>1014.33</ele>
        <time>2015-07-22T11:30:02Z</time>
      </trkpt>
      <trkpt lat="46.44116" lon="6.16278">
        <ele>1013.37</ele>
        <time>2015-07-22T11:30:04Z</time>
      </trkpt>
      <trkpt lat="46.44088" lon="6.16321">
        <ele>1011.93</ele>
        <time>2015-07-22T11:30:08Z</time>
      </trkpt>
      <trkpt lat="46.44078" lon="6.16349">
        <ele>1010.96</ele>
        <time>2015-07-22T11:30:10Z</time>
      </trkpt>
      <trkpt lat="46.44066" lon="6.16392">
        <ele>1009.52</ele>
        <time>2015-07-22T11:30:13Z</time>
      </trkpt>
      <trkpt lat="46.44039" lon="6.16492">
        <ele>1005.68</ele>
        <time>2015-07-22T11:30:20Z</time>
      </trkpt>
      <trkpt lat="46.44021" lon="6.16553">
        <ele>1003.27</ele>
        <time>2015-07-22T11:30:25Z</time>
      </trkpt>
      <trkpt lat="46.43993" lon="6.16555">
        <ele>1000.87</ele>
        <time>2015-07-22T11:30:31Z</time>
      </trkpt>
      <trkpt lat="46.43988" lon="6.16546">
        <ele>1000.39</ele>
        <time>2015-07-22T11:30:32Z</time>
      </trkpt>
      <trkpt lat="46.43958" lon="6.16496">
        <ele>997.99</ele>
        <time>2015-07-22T11:30:38Z</time>
      </trkpt>
      <trkpt lat="46.43925" lon="6.16462">
        <ele>995.58</ele>
        <time>2015-07-22T11:30:43Z</time>
      </trkpt>
      <trkpt lat="46.43896" lon="6.16414">
        <ele>992.7</ele>
        <time>2015-07-22T11:30:48Z</time>
      </trkpt>
      <trkpt lat="46.43892" lon="6.16403">
        <ele>992.7</ele>
        <time>2015-07-22T11:30:49Z</time>
      </trkpt>
      <trkpt lat="46.4387" lon="6.16373">
        <ele>990.78</ele>
        <time>2015-07-22T11:30:53Z</time>
      </trkpt>
      <trkpt lat="46.43832" lon="6.16338">
        <ele>988.37</ele>
        <time>2015-07-22T11:30:58Z</time>
      </trkpt>
      <trkpt lat="46.43825" lon="6.16328">
        <ele>987.89</ele>
        <time>2015-07-22T11:30:59Z</time>
      </trkpt>
      <trkpt lat="46.43778" lon="6.16325">
        <ele>985.49</ele>
        <time>2015-07-22T11:31:05Z</time>
      </trkpt>
      <trkpt lat="46.43761" lon="6.16335">
        <ele>984.53</ele>
        <time>2015-07-22T11:31:07Z</time>
      </trkpt>
      <trkpt lat="46.43736" lon="6.16341">
        <ele>983.09</ele>
        <time>2015-07-22T11:31:10Z</time>
      </trkpt>
      <trkpt lat="46.43718" lon="6.16318">
        <ele>981.16</ele>
        <time>2015-07-22T11:31:13Z</time>
      </trkpt>
      <trkpt lat="46.43709" lon="6.16285">
        <ele>980.2</ele>
        <time>2015-07-22T11:31:16Z</time>
      </trkpt>
      <trkpt lat="46.43693" lon="6.16267">
        <ele>978.76</ele>
        <time>2015-07-22T11:31:19Z</time>
      </trkpt>
      <trkpt lat="46.43675" lon="6.1627">
        <ele>977.8</ele>
        <time>2015-07-22T11:31:21Z</time>
      </trkpt>
      <trkpt lat="46.43666" lon="6.16274">
        <ele>976.84</ele>
        <time>2015-07-22T11:31:22Z</time>
      </trkpt>
      <trkpt lat="46.43628" lon="6.16268">
        <ele>974.91</ele>
        <time>2015-07-22T11:31:27Z</time>
      </trkpt>
      <trkpt lat="46.43617" lon="6.1625">
        <ele>973.47</ele>
        <time>2015-07-22T11:31:29Z</time>
      </trkpt>
      <trkpt lat="46.43604" lon="6.16235">
        <ele>972.99</ele>
        <time>2015-07-22T11:31:31Z</time>
      </trkpt>
      <trkpt lat="46.43588" lon="6.16226">
        <ele>972.03</ele>
        <time>2015-07-22T11:31:33Z</time>
      </trkpt>
      <trkpt lat="46.43536" lon="6.1625">
        <ele>969.63</ele>
        <time>2015-07-22T11:31:41Z</time>
      </trkpt>
      <trkpt lat="46.43555" lon="6.16277">
        <ele>967.7</ele>
        <time>2015-07-22T11:31:45Z</time>
      </trkpt>
      <trkpt lat="46.43588" lon="6.16315">
        <ele>964.82</ele>
        <time>2015-07-22T11:31:50Z</time>
      </trkpt>
      <trkpt lat="46.43607" lon="6.16359">
        <ele>963.38</ele>
        <time>2015-07-22T11:31:54Z</time>
      </trkpt>
      <trkpt lat="46.43635" lon="6.16386">
        <ele>961.46</ele>
        <time>2015-07-22T11:31:58Z</time>
      </trkpt>
      <trkpt lat="46.43689" lon="6.16402">
        <ele>958.09</ele>
        <time>2015-07-22T11:32:04Z</time>
      </trkpt>
      <trkpt lat="46.43747" lon="6.16415">
        <ele>954.73</ele>
        <time>2015-07-22T11:32:10Z</time>
      </trkpt>
      <trkpt lat="46.43783" lon="6.16424">
        <ele>952.8</ele>
        <time>2015-07-22T11:32:14Z</time>
      </trkpt>
      <trkpt lat="46.43802" lon="6.16432">
        <ele>951.84</ele>
        <time>2015-07-22T11:32:16Z</time>
      </trkpt>
      <trkpt lat="46.43833" lon="6.16485">
        <ele>949.44</ele>
        <time>2015-07-22T11:32:21Z</time>
      </trkpt>
      <trkpt lat="46.43842" lon="6.16526">
        <ele>948</ele>
        <time>2015-07-22T11:32:24Z</time>
      </trkpt>
      <trkpt lat="46.43882" lon="6.16592">
        <ele>944.15</ele>
        <time>2015-07-22T11:32:30Z</time>
      </trkpt>
      <trkpt lat="46.43898" lon="6.16608">
        <ele>943.67</ele>
        <time>2015-07-22T11:32:32Z</time>
      </trkpt>
      <trkpt lat="46.4391" lon="6.16675">
        <ele>940.79</ele>
        <time>2015-07-22T11:32:38Z</time>
      </trkpt>
      <trkpt lat="46.43904" lon="6.16728">
        <ele>938.38</ele>
        <time>2015-07-22T11:32:42Z</time>
      </trkpt>
      <trkpt lat="46.43905" lon="6.16742">
        <ele>937.42</ele>
        <time>2015-07-22T11:32:43Z</time>
      </trkpt>
      <trkpt lat="46.4392" lon="6.16789">
        <ele>935.98</ele>
        <time>2015-07-22T11:32:47Z</time>
      </trkpt>
      <trkpt lat="46.43935" lon="6.16812">
        <ele>934.54</ele>
        <time>2015-07-22T11:32:49Z</time>
      </trkpt>
      <trkpt lat="46.43953" lon="6.16852">
        <ele>932.62</ele>
        <time>2015-07-22T11:32:52Z</time>
      </trkpt>
      <trkpt lat="46.43986" lon="6.16928">
        <ele>929.73</ele>
        <time>2015-07-22T11:32:59Z</time>
      </trkpt>
      <trkpt lat="46.43994" lon="6.16933">
        <ele>929.25</ele>
        <time>2015-07-22T11:33:00Z</time>
      </trkpt>
      <trkpt lat="46.44029" lon="6.16976">
        <ele>926.37</ele>
        <time>2015-07-22T11:33:05Z</time>
      </trkpt>
      <trkpt lat="46.44025" lon="6.17036">
        <ele>924.45</ele>
        <time>2015-07-22T11:33:10Z</time>
      </trkpt>
      <trkpt lat="46.4398" lon="6.17046">
        <ele>921.08</ele>
        <time>2015-07-22T11:33:15Z</time>
      </trkpt>
      <trkpt lat="46.43956" lon="6.17006">
        <ele>917.72</ele>
        <time>2015-07-22T11:33:19Z</time>
      </trkpt>
      <trkpt lat="46.43948" lon="6.1698">
        <ele>917.24</ele>
        <time>2015-07-22T11:33:21Z</time>
      </trkpt>
      <trkpt lat="46.43933" lon="6.16928">
        <ele>915.31</ele>
        <time>2015-07-22T11:33:25Z</time>
      </trkpt>
      <trkpt lat="46.43924" lon="6.16904">
        <ele>914.35</ele>
        <time>2015-07-22T11:33:27Z</time>
      </trkpt>
      <trkpt lat="46.43899" lon="6.16869">
        <ele>912.43</ele>
        <time>2015-07-22T11:33:31Z</time>
      </trkpt>
      <trkpt lat="46.43877" lon="6.16848">
        <ele>910.51</ele>
        <time>2015-07-22T11:33:34Z</time>
      </trkpt>
      <trkpt lat="46.43864" lon="6.16831">
        <ele>909.06</ele>
        <time>2015-07-22T11:33:36Z</time>
      </trkpt>
      <trkpt lat="46.43837" lon="6.16745">
        <ele>904.74</ele>
        <time>2015-07-22T11:33:43Z</time>
      </trkpt>
      <trkpt lat="46.4383" lon="6.16719">
        <ele>904.26</ele>
        <time>2015-07-22T11:33:45Z</time>
      </trkpt>
      <trkpt lat="46.43793" lon="6.16687">
        <ele>900.89</ele>
        <time>2015-07-22T11:33:50Z</time>
      </trkpt>
      <trkpt lat="46.43774" lon="6.16687">
        <ele>899.45</ele>
        <time>2015-07-22T11:33:52Z</time>
      </trkpt>
      <trkpt lat="46.43756" lon="6.16677">
        <ele>898.49</ele>
        <time>2015-07-22T11:33:54Z</time>
      </trkpt>
      <trkpt lat="46.4369" lon="6.16675">
        <ele>894.64</ele>
        <time>2015-07-22T11:34:01Z</time>
      </trkpt>
      <trkpt lat="46.43671" lon="6.16692">
        <ele>892.72</ele>
        <time>2015-07-22T11:34:03Z</time>
      </trkpt>
      <trkpt lat="46.43648" lon="6.16725">
        <ele>890.8</ele>
        <time>2015-07-22T11:34:06Z</time>
      </trkpt>
      <trkpt lat="46.4361" lon="6.16762">
        <ele>887.43</ele>
        <time>2015-07-22T11:34:10Z</time>
      </trkpt>
      <trkpt lat="46.43539" lon="6.16815">
        <ele>882.63</ele>
        <time>2015-07-22T11:34:17Z</time>
      </trkpt>
      <trkpt lat="46.4352" lon="6.16824">
        <ele>881.67</ele>
        <time>2015-07-22T11:34:19Z</time>
      </trkpt>
      <trkpt lat="46.43499" lon="6.16819">
        <ele>880.22</ele>
        <time>2015-07-22T11:34:21Z</time>
      </trkpt>
      <trkpt lat="46.43433" lon="6.16797">
        <ele>875.9</ele>
        <time>2015-07-22T11:34:27Z</time>
      </trkpt>
      <trkpt lat="46.43388" lon="6.16784">
        <ele>872.53</ele>
        <time>2015-07-22T11:34:31Z</time>
      </trkpt>
      <trkpt lat="46.43345" lon="6.16767">
        <ele>869.17</ele>
        <time>2015-07-22T11:34:35Z</time>
      </trkpt>
      <trkpt lat="46.43334" lon="6.16763">
        <ele>869.17</ele>
        <time>2015-07-22T11:34:36Z</time>
      </trkpt>
      <trkpt lat="46.43311" lon="6.16756">
        <ele>867.25</ele>
        <time>2015-07-22T11:34:38Z</time>
      </trkpt>
      <trkpt lat="46.433" lon="6.16755">
        <ele>866.77</ele>
        <time>2015-07-22T11:34:39Z</time>
      </trkpt>
      <trkpt lat="46.43277" lon="6.16756">
        <ele>865.8</ele>
        <time>2015-07-22T11:34:41Z</time>
      </trkpt>
      <trkpt lat="46.43266" lon="6.16752">
        <ele>864.84</ele>
        <time>2015-07-22T11:34:42Z</time>
      </trkpt>
      <trkpt lat="46.43231" lon="6.1671">
        <ele>861.96</ele>
        <time>2015-07-22T11:34:46Z</time>
      </trkpt>
      <trkpt lat="46.43211" lon="6.16674">
        <ele>860.52</ele>
        <time>2015-07-22T11:34:49Z</time>
      </trkpt>
      <trkpt lat="46.43198" lon="6.16661">
        <ele>860.04</ele>
        <time>2015-07-22T11:34:51Z</time>
      </trkpt>
      <trkpt lat="46.4319" lon="6.16662">
        <ele>859.08</ele>
        <time>2015-07-22T11:34:52Z</time>
      </trkpt>
      <trkpt lat="46.43183" lon="6.16668">
        <ele>859.08</ele>
        <time>2015-07-22T11:34:53Z</time>
      </trkpt>
      <trkpt lat="46.43179" lon="6.16679">
        <ele>859.08</ele>
        <time>2015-07-22T11:34:54Z</time>
      </trkpt>
      <trkpt lat="46.43177" lon="6.16691">
        <ele>858.59</ele>
        <time>2015-07-22T11:34:55Z</time>
      </trkpt>
      <trkpt lat="46.43177" lon="6.16702">
        <ele>856.67</ele>
        <time>2015-07-22T11:34:56Z</time>
      </trkpt>
      <trkpt lat="46.43182" lon="6.16721">
        <ele>855.71</ele>
        <time>2015-07-22T11:34:58Z</time>
      </trkpt>
      <trkpt lat="46.43208" lon="6.16767">
        <ele>853.31</ele>
        <time>2015-07-22T11:35:02Z</time>
      </trkpt>
      <trkpt lat="46.43249" lon="6.16829">
        <ele>850.42</ele>
        <time>2015-07-22T11:35:08Z</time>
      </trkpt>
      <trkpt lat="46.43284" lon="6.16885">
        <ele>846.58</ele>
        <time>2015-07-22T11:35:13Z</time>
      </trkpt>
      <trkpt lat="46.43289" lon="6.16897">
        <ele>846.1</ele>
        <time>2015-07-22T11:35:14Z</time>
      </trkpt>
      <trkpt lat="46.43309" lon="6.16948">
        <ele>843.69</ele>
        <time>2015-07-22T11:35:18Z</time>
      </trkpt>
      <trkpt lat="46.43333" lon="6.16978">
        <ele>841.29</ele>
        <time>2015-07-22T11:35:21Z</time>
      </trkpt>
      <trkpt lat="46.43354" lon="6.17053">
        <ele>837.45</ele>
        <time>2015-07-22T11:35:27Z</time>
      </trkpt>
      <trkpt lat="46.43352" lon="6.17068">
        <ele>836.48</ele>
        <time>2015-07-22T11:35:28Z</time>
      </trkpt>
      <trkpt lat="46.43346" lon="6.17113">
        <ele>834.08</ele>
        <time>2015-07-22T11:35:31Z</time>
      </trkpt>
      <trkpt lat="46.43362" lon="6.17173">
        <ele>832.16</ele>
        <time>2015-07-22T11:35:36Z</time>
      </trkpt>
      <trkpt lat="46.43382" lon="6.17177">
        <ele>829.76</ele>
        <time>2015-07-22T11:35:38Z</time>
      </trkpt>
      <trkpt lat="46.43412" lon="6.1718">
        <ele>828.31</ele>
        <time>2015-07-22T11:35:41Z</time>
      </trkpt>
      <trkpt lat="46.43422" lon="6.17184">
        <ele>827.35</ele>
        <time>2015-07-22T11:35:42Z</time>
      </trkpt>
      <trkpt lat="46.43483" lon="6.17176">
        <ele>823.51</ele>
        <time>2015-07-22T11:35:48Z</time>
      </trkpt>
      <trkpt lat="46.43493" lon="6.17173">
        <ele>823.03</ele>
        <time>2015-07-22T11:35:49Z</time>
      </trkpt>
      <trkpt lat="46.43503" lon="6.17171">
        <ele>822.55</ele>
        <time>2015-07-22T11:35:50Z</time>
      </trkpt>
      <trkpt lat="46.43535" lon="6.17202">
        <ele>821.1</ele>
        <time>2015-07-22T11:35:56Z</time>
      </trkpt>
      <trkpt lat="46.43528" lon="6.17207">
        <ele>820.14</ele>
        <time>2015-07-22T11:35:58Z</time>
      </trkpt>
      <trkpt lat="46.43521" lon="6.17202">
        <ele>819.18</ele>
        <time>2015-07-22T11:35:59Z</time>
      </trkpt>
      <trkpt lat="46.43466" lon="6.17213">
        <ele>818.7</ele>
        <time>2015-07-22T11:36:07Z</time>
      </trkpt>
      <trkpt lat="46.43443" lon="6.17241">
        <ele>817.26</ele>
        <time>2015-07-22T11:36:11Z</time>
      </trkpt>
      <trkpt lat="46.4342" lon="6.17259">
        <ele>815.82</ele>
        <time>2015-07-22T11:36:15Z</time>
      </trkpt>
      <trkpt lat="46.43382" lon="6.17245">
        <ele>814.85</ele>
        <time>2015-07-22T11:36:19Z</time>
      </trkpt>
      <trkpt lat="46.43347" lon="6.17241">
        <ele>813.89</ele>
        <time>2015-07-22T11:36:23Z</time>
      </trkpt>
      <trkpt lat="46.4331" lon="6.17241">
        <ele>811.97</ele>
        <time>2015-07-22T11:36:27Z</time>
      </trkpt>
      <trkpt lat="46.43272" lon="6.17217">
        <ele>808.13</ele>
        <time>2015-07-22T11:36:31Z</time>
      </trkpt>
      <trkpt lat="46.43255" lon="6.17199">
        <ele>806.68</ele>
        <time>2015-07-22T11:36:33Z</time>
      </trkpt>
      <trkpt lat="46.4321" lon="6.17178">
        <ele>801.88</ele>
        <time>2015-07-22T11:36:37Z</time>
      </trkpt>
      <trkpt lat="46.43198" lon="6.17175">
        <ele>801.88</ele>
        <time>2015-07-22T11:36:38Z</time>
      </trkpt>
      <trkpt lat="46.43149" lon="6.17169">
        <ele>798.51</ele>
        <time>2015-07-22T11:36:42Z</time>
      </trkpt>
      <trkpt lat="46.43138" lon="6.17169">
        <ele>797.55</ele>
        <time>2015-07-22T11:36:43Z</time>
      </trkpt>
      <trkpt lat="46.43109" lon="6.1716">
        <ele>795.63</ele>
        <time>2015-07-22T11:36:46Z</time>
      </trkpt>
      <trkpt lat="46.43096" lon="6.1714">
        <ele>794.19</ele>
        <time>2015-07-22T11:36:48Z</time>
      </trkpt>
      <trkpt lat="46.43066" lon="6.17099">
        <ele>791.3</ele>
        <time>2015-07-22T11:36:52Z</time>
      </trkpt>
      <trkpt lat="46.43056" lon="6.17093">
        <ele>790.82</ele>
        <time>2015-07-22T11:36:53Z</time>
      </trkpt>
      <trkpt lat="46.43045" lon="6.17088">
        <ele>789.86</ele>
        <time>2015-07-22T11:36:54Z</time>
      </trkpt>
      <trkpt lat="46.43034" lon="6.17086">
        <ele>789.38</ele>
        <time>2015-07-22T11:36:55Z</time>
      </trkpt>
      <trkpt lat="46.43023" lon="6.17086">
        <ele>788.42</ele>
        <time>2015-07-22T11:36:56Z</time>
      </trkpt>
      <trkpt lat="46.43013" lon="6.17088">
        <ele>787.46</ele>
        <time>2015-07-22T11:36:57Z</time>
      </trkpt>
      <trkpt lat="46.43003" lon="6.17089">
        <ele>786.98</ele>
        <time>2015-07-22T11:36:58Z</time>
      </trkpt>
      <trkpt lat="46.42994" lon="6.17087">
        <ele>786.02</ele>
        <time>2015-07-22T11:36:59Z</time>
      </trkpt>
      <trkpt lat="46.42967" lon="6.17049">
        <ele>782.65</ele>
        <time>2015-07-22T11:37:03Z</time>
      </trkpt>
      <trkpt lat="46.42958" lon="6.17044">
        <ele>781.69</ele>
        <time>2015-07-22T11:37:04Z</time>
      </trkpt>
      <trkpt lat="46.42947" lon="6.17042">
        <ele>780.73</ele>
        <time>2015-07-22T11:37:05Z</time>
      </trkpt>
      <trkpt lat="46.42937" lon="6.17041">
        <ele>780.25</ele>
        <time>2015-07-22T11:37:06Z</time>
      </trkpt>
      <trkpt lat="46.42926" lon="6.17041">
        <ele>779.29</ele>
        <time>2015-07-22T11:37:07Z</time>
      </trkpt>
      <trkpt lat="46.42915" lon="6.17043">
        <ele>778.81</ele>
        <time>2015-07-22T11:37:08Z</time>
      </trkpt>
      <trkpt lat="46.42905" lon="6.17046">
        <ele>777.36</ele>
        <time>2015-07-22T11:37:09Z</time>
      </trkpt>
      <trkpt lat="46.42884" lon="6.17052">
        <ele>776.4</ele>
        <time>2015-07-22T11:37:11Z</time>
      </trkpt>
      <trkpt lat="46.42857" lon="6.17061">
        <ele>774.96</ele>
        <time>2015-07-22T11:37:14Z</time>
      </trkpt>
      <trkpt lat="46.42851" lon="6.17067">
        <ele>774</ele>
        <time>2015-07-22T11:37:15Z</time>
      </trkpt>
      <trkpt lat="46.42847" lon="6.17076">
        <ele>773.52</ele>
        <time>2015-07-22T11:37:16Z</time>
      </trkpt>
      <trkpt lat="46.42845" lon="6.17087">
        <ele>773.04</ele>
        <time>2015-07-22T11:37:17Z</time>
      </trkpt>
      <trkpt lat="46.42845" lon="6.17097">
        <ele>772.56</ele>
        <time>2015-07-22T11:37:18Z</time>
      </trkpt>
      <trkpt lat="46.42857" lon="6.17112">
        <ele>771.6</ele>
        <time>2015-07-22T11:37:20Z</time>
      </trkpt>
      <trkpt lat="46.42865" lon="6.17114">
        <ele>771.11</ele>
        <time>2015-07-22T11:37:21Z</time>
      </trkpt>
      <trkpt lat="46.42874" lon="6.17114">
        <ele>770.15</ele>
        <time>2015-07-22T11:37:22Z</time>
      </trkpt>
      <trkpt lat="46.42883" lon="6.17116">
        <ele>769.19</ele>
        <time>2015-07-22T11:37:23Z</time>
      </trkpt>
      <trkpt lat="46.42901" lon="6.17141">
        <ele>765.83</ele>
        <time>2015-07-22T11:37:26Z</time>
      </trkpt>
      <trkpt lat="46.42903" lon="6.17155">
        <ele>764.87</ele>
        <time>2015-07-22T11:37:27Z</time>
      </trkpt>
      <trkpt lat="46.42904" lon="6.17169">
        <ele>764.87</ele>
        <time>2015-07-22T11:37:28Z</time>
      </trkpt>
      <trkpt lat="46.42904" lon="6.17183">
        <ele>763.42</ele>
        <time>2015-07-22T11:37:29Z</time>
      </trkpt>
      <trkpt lat="46.42904" lon="6.17197">
        <ele>763.42</ele>
        <time>2015-07-22T11:37:30Z</time>
      </trkpt>
      <trkpt lat="46.42902" lon="6.17211">
        <ele>763.42</ele>
        <time>2015-07-22T11:37:31Z</time>
      </trkpt>
      <trkpt lat="46.42898" lon="6.17225">
        <ele>761.98</ele>
        <time>2015-07-22T11:37:32Z</time>
      </trkpt>
      <trkpt lat="46.4289" lon="6.17283">
        <ele>759.58</ele>
        <time>2015-07-22T11:37:36Z</time>
      </trkpt>
      <trkpt lat="46.42903" lon="6.17309">
        <ele>758.62</ele>
        <time>2015-07-22T11:37:39Z</time>
      </trkpt>
      <trkpt lat="46.42912" lon="6.17311">
        <ele>757.66</ele>
        <time>2015-07-22T11:37:40Z</time>
      </trkpt>
      <trkpt lat="46.42921" lon="6.1731">
        <ele>756.21</ele>
        <time>2015-07-22T11:37:41Z</time>
      </trkpt>
      <trkpt lat="46.4293" lon="6.17311">
        <ele>755.25</ele>
        <time>2015-07-22T11:37:42Z</time>
      </trkpt>
      <trkpt lat="46.42953" lon="6.17336">
        <ele>752.85</ele>
        <time>2015-07-22T11:37:45Z</time>
      </trkpt>
      <trkpt lat="46.42978" lon="6.17404">
        <ele>749.49</ele>
        <time>2015-07-22T11:37:50Z</time>
      </trkpt>
      <trkpt lat="46.42994" lon="6.17447">
        <ele>745.64</ele>
        <time>2015-07-22T11:37:53Z</time>
      </trkpt>
      <trkpt lat="46.43015" lon="6.17504">
        <ele>742.76</ele>
        <time>2015-07-22T11:37:57Z</time>
      </trkpt>
      <trkpt lat="46.43034" lon="6.17537">
        <ele>739.87</ele>
        <time>2015-07-22T11:38:00Z</time>
      </trkpt>
      <trkpt lat="46.43041" lon="6.1759">
        <ele>736.51</ele>
        <time>2015-07-22T11:38:04Z</time>
      </trkpt>
      <trkpt lat="46.43066" lon="6.1763">
        <ele>735.07</ele>
        <time>2015-07-22T11:38:09Z</time>
      </trkpt>
      <trkpt lat="46.43086" lon="6.17658">
        <ele>731.22</ele>
        <time>2015-07-22T11:38:12Z</time>
      </trkpt>
      <trkpt lat="46.4309" lon="6.17701">
        <ele>729.78</ele>
        <time>2015-07-22T11:38:15Z</time>
      </trkpt>
      <trkpt lat="46.43091" lon="6.17738">
        <ele>727.86</ele>
        <time>2015-07-22T11:38:23Z</time>
      </trkpt>
      <trkpt lat="46.43091" lon="6.17738">
        <ele>727.37</ele>
        <time>2015-07-22T11:38:49Z</time>
      </trkpt>
      <trkpt lat="46.43091" lon="6.17738">
        <ele>727.37</ele>
        <time>2015-07-22T11:39:11Z</time>
      </trkpt>
      <trkpt lat="46.43091" lon="6.17738">
        <ele>726.89</ele>
        <time>2015-07-22T11:39:17Z</time>
      </trkpt>
      <trkpt lat="46.43094" lon="6.17742">
        <ele>726.89</ele>
        <time>2015-07-22T11:39:19Z</time>
      </trkpt>
      <trkpt lat="46.43103" lon="6.17751">
        <ele>725.93</ele>
        <time>2015-07-22T11:39:22Z</time>
      </trkpt>
      <trkpt lat="46.43124" lon="6.1776">
        <ele>724.49</ele>
        <time>2015-07-22T11:39:26Z</time>
      </trkpt>
      <trkpt lat="46.43154" lon="6.17794">
        <ele>720.65</ele>
        <time>2015-07-22T11:39:31Z</time>
      </trkpt>
      <trkpt lat="46.43169" lon="6.17827">
        <ele>718.72</ele>
        <time>2015-07-22T11:39:34Z</time>
      </trkpt>
      <trkpt lat="46.4321" lon="6.17853">
        <ele>714.88</ele>
        <time>2015-07-22T11:39:39Z</time>
      </trkpt>
      <trkpt lat="46.43232" lon="6.17894">
        <ele>712.47</ele>
        <time>2015-07-22T11:39:44Z</time>
      </trkpt>
      <trkpt lat="46.43213" lon="6.17887">
        <ele>710.07</ele>
        <time>2015-07-22T11:39:49Z</time>
      </trkpt>
      <trkpt lat="46.43171" lon="6.17871">
        <ele>710.55</ele>
        <time>2015-07-22T11:39:54Z</time>
      </trkpt>
      <trkpt lat="46.43163" lon="6.17869">
        <ele>711.03</ele>
        <time>2015-07-22T11:39:55Z</time>
      </trkpt>
      <trkpt lat="46.43133" lon="6.17868">
        <ele>710.55</ele>
        <time>2015-07-22T11:39:58Z</time>
      </trkpt>
      <trkpt lat="46.4309" lon="6.17836">
        <ele>709.59</ele>
        <time>2015-07-22T11:40:04Z</time>
      </trkpt>
      <trkpt lat="46.43087" lon="6.17826">
        <ele>710.07</ele>
        <time>2015-07-22T11:40:05Z</time>
      </trkpt>
      <trkpt lat="46.43082" lon="6.17799">
        <ele>710.07</ele>
        <time>2015-07-22T11:40:08Z</time>
      </trkpt>
      <trkpt lat="46.43042" lon="6.17761">
        <ele>709.59</ele>
        <time>2015-07-22T11:40:16Z</time>
      </trkpt>
      <trkpt lat="46.43013" lon="6.1778">
        <ele>708.63</ele>
        <time>2015-07-22T11:40:21Z</time>
      </trkpt>
      <trkpt lat="46.42974" lon="6.17836">
        <ele>706.23</ele>
        <time>2015-07-22T11:40:28Z</time>
      </trkpt>
      <trkpt lat="46.42933" lon="6.17864">
        <ele>703.34</ele>
        <time>2015-07-22T11:40:33Z</time>
      </trkpt>
      <trkpt lat="46.4287" lon="6.17879">
        <ele>699.02</ele>
        <time>2015-07-22T11:40:39Z</time>
      </trkpt>
      <trkpt lat="46.42823" lon="6.17886">
        <ele>695.65</ele>
        <time>2015-07-22T11:40:43Z</time>
      </trkpt>
      <trkpt lat="46.42811" lon="6.17884">
        <ele>695.17</ele>
        <time>2015-07-22T11:40:44Z</time>
      </trkpt>
      <trkpt lat="46.42776" lon="6.17869">
        <ele>690.36</ele>
        <time>2015-07-22T11:40:47Z</time>
      </trkpt>
      <trkpt lat="46.42729" lon="6.17839">
        <ele>687</ele>
        <time>2015-07-22T11:40:51Z</time>
      </trkpt>
      <trkpt lat="46.42692" lon="6.17816">
        <ele>682.67</ele>
        <time>2015-07-22T11:40:54Z</time>
      </trkpt>
      <trkpt lat="46.42668" lon="6.178">
        <ele>680.75</ele>
        <time>2015-07-22T11:40:56Z</time>
      </trkpt>
      <trkpt lat="46.42633" lon="6.17777">
        <ele>678.83</ele>
        <time>2015-07-22T11:40:59Z</time>
      </trkpt>
      <trkpt lat="46.42599" lon="6.17756">
        <ele>675.46</ele>
        <time>2015-07-22T11:41:02Z</time>
      </trkpt>
      <trkpt lat="46.42541" lon="6.1772">
        <ele>671.62</ele>
        <time>2015-07-22T11:41:07Z</time>
      </trkpt>
      <trkpt lat="46.42505" lon="6.17698">
        <ele>667.77</ele>
        <time>2015-07-22T11:41:10Z</time>
      </trkpt>
      <trkpt lat="46.42469" lon="6.17676">
        <ele>664.41</ele>
        <time>2015-07-22T11:41:13Z</time>
      </trkpt>
      <trkpt lat="46.4241" lon="6.17647">
        <ele>661.04</ele>
        <time>2015-07-22T11:41:18Z</time>
      </trkpt>
      <trkpt lat="46.42398" lon="6.17644">
        <ele>662.01</ele>
        <time>2015-07-22T11:41:19Z</time>
      </trkpt>
      <trkpt lat="46.42385" lon="6.17643">
        <ele>660.56</ele>
        <time>2015-07-22T11:41:20Z</time>
      </trkpt>
      <trkpt lat="46.42323" lon="6.17651">
        <ele>655.76</ele>
        <time>2015-07-22T11:41:25Z</time>
      </trkpt>
      <trkpt lat="46.4229" lon="6.17669">
        <ele>652.87</ele>
        <time>2015-07-22T11:41:28Z</time>
      </trkpt>
      <trkpt lat="46.4226" lon="6.17698">
        <ele>649.99</ele>
        <time>2015-07-22T11:41:31Z</time>
      </trkpt>
      <trkpt lat="46.42232" lon="6.17737">
        <ele>646.14</ele>
        <time>2015-07-22T11:41:34Z</time>
      </trkpt>
      <trkpt lat="46.42224" lon="6.17752">
        <ele>645.18</ele>
        <time>2015-07-22T11:41:35Z</time>
      </trkpt>
      <trkpt lat="46.42216" lon="6.17768">
        <ele>644.22</ele>
        <time>2015-07-22T11:41:36Z</time>
      </trkpt>
      <trkpt lat="46.42204" lon="6.17802">
        <ele>641.34</ele>
        <time>2015-07-22T11:41:38Z</time>
      </trkpt>
      <trkpt lat="46.422" lon="6.17819">
        <ele>639.41</ele>
        <time>2015-07-22T11:41:39Z</time>
      </trkpt>
      <trkpt lat="46.42183" lon="6.17945">
        <ele>635.57</ele>
        <time>2015-07-22T11:41:46Z</time>
      </trkpt>
      <trkpt lat="46.42179" lon="6.18016">
        <ele>631.72</ele>
        <time>2015-07-22T11:41:50Z</time>
      </trkpt>
      <trkpt lat="46.42176" lon="6.1805">
        <ele>629.8</ele>
        <time>2015-07-22T11:41:52Z</time>
      </trkpt>
      <trkpt lat="46.42173" lon="6.18066">
        <ele>629.32</ele>
        <time>2015-07-22T11:41:53Z</time>
      </trkpt>
      <trkpt lat="46.42166" lon="6.18098">
        <ele>625.96</ele>
        <time>2015-07-22T11:41:55Z</time>
      </trkpt>
      <trkpt lat="46.42162" lon="6.18114">
        <ele>625.96</ele>
        <time>2015-07-22T11:41:56Z</time>
      </trkpt>
      <trkpt lat="46.42116" lon="6.18206">
        <ele>621.15</ele>
        <time>2015-07-22T11:42:03Z</time>
      </trkpt>
      <trkpt lat="46.42088" lon="6.18237">
        <ele>619.23</ele>
        <time>2015-07-22T11:42:06Z</time>
      </trkpt>
      <trkpt lat="46.42059" lon="6.18263">
        <ele>615.86</ele>
        <time>2015-07-22T11:42:09Z</time>
      </trkpt>
      <trkpt lat="46.42048" lon="6.18272">
        <ele>615.86</ele>
        <time>2015-07-22T11:42:10Z</time>
      </trkpt>
      <trkpt lat="46.42006" lon="6.18308">
        <ele>612.5</ele>
        <time>2015-07-22T11:42:14Z</time>
      </trkpt>
      <trkpt lat="46.41974" lon="6.18336">
        <ele>609.13</ele>
        <time>2015-07-22T11:42:17Z</time>
      </trkpt>
      <trkpt lat="46.41943" lon="6.18362">
        <ele>608.17</ele>
        <time>2015-07-22T11:42:20Z</time>
      </trkpt>
      <trkpt lat="46.41901" lon="6.18397">
        <ele>603.85</ele>
        <time>2015-07-22T11:42:24Z</time>
      </trkpt>
      <trkpt lat="46.4189" lon="6.18406">
        <ele>603.85</ele>
        <time>2015-07-22T11:42:25Z</time>
      </trkpt>
      <trkpt lat="46.41849" lon="6.18441">
        <ele>600.96</ele>
        <time>2015-07-22T11:42:29Z</time>
      </trkpt>
      <trkpt lat="46.41785" lon="6.18495">
        <ele>597.6</ele>
        <time>2015-07-22T11:42:35Z</time>
      </trkpt>
      <trkpt lat="46.41764" lon="6.18513">
        <ele>596.15</ele>
        <time>2015-07-22T11:42:37Z</time>
      </trkpt>
      <trkpt lat="46.4172" lon="6.1855">
        <ele>593.27</ele>
        <time>2015-07-22T11:42:41Z</time>
      </trkpt>
      <trkpt lat="46.41642" lon="6.18614">
        <ele>589.91</ele>
        <time>2015-07-22T11:42:49Z</time>
      </trkpt>
      <trkpt lat="46.41615" lon="6.18638">
        <ele>587.5</ele>
        <time>2015-07-22T11:42:52Z</time>
      </trkpt>
      <trkpt lat="46.41579" lon="6.18668">
        <ele>585.1</ele>
        <time>2015-07-22T11:42:56Z</time>
      </trkpt>
      <trkpt lat="46.41553" lon="6.1869">
        <ele>584.14</ele>
        <time>2015-07-22T11:42:59Z</time>
      </trkpt>
      <trkpt lat="46.41476" lon="6.18756">
        <ele>581.25</ele>
        <time>2015-07-22T11:43:08Z</time>
      </trkpt>
      <trkpt lat="46.41441" lon="6.18785">
        <ele>579.33</ele>
        <time>2015-07-22T11:43:12Z</time>
      </trkpt>
      <trkpt lat="46.41408" lon="6.18816">
        <ele>576.45</ele>
        <time>2015-07-22T11:43:16Z</time>
      </trkpt>
      <trkpt lat="46.41361" lon="6.18861">
        <ele>574.53</ele>
        <time>2015-07-22T11:43:22Z</time>
      </trkpt>
      <trkpt lat="46.41323" lon="6.18896">
        <ele>573.08</ele>
        <time>2015-07-22T11:43:27Z</time>
      </trkpt>
      <trkpt lat="46.41316" lon="6.189">
        <ele>572.12</ele>
        <time>2015-07-22T11:43:28Z</time>
      </trkpt>
      <trkpt lat="46.41304" lon="6.18907">
        <ele>572.12</ele>
        <time>2015-07-22T11:43:30Z</time>
      </trkpt>
      <trkpt lat="46.41299" lon="6.18913">
        <ele>571.64</ele>
        <time>2015-07-22T11:43:31Z</time>
      </trkpt>
      <trkpt lat="46.41295" lon="6.18922">
        <ele>571.64</ele>
        <time>2015-07-22T11:43:32Z</time>
      </trkpt>
      <trkpt lat="46.4129" lon="6.18932">
        <ele>571.16</ele>
        <time>2015-07-22T11:43:33Z</time>
      </trkpt>
      <trkpt lat="46.41286" lon="6.1894">
        <ele>570.68</ele>
        <time>2015-07-22T11:43:34Z</time>
      </trkpt>
      <trkpt lat="46.4128" lon="6.18948">
        <ele>569.72</ele>
        <time>2015-07-22T11:43:35Z</time>
      </trkpt>
      <trkpt lat="46.41273" lon="6.18955">
        <ele>569.24</ele>
        <time>2015-07-22T11:43:36Z</time>
      </trkpt>
      <trkpt lat="46.41267" lon="6.18962">
        <ele>568.76</ele>
        <time>2015-07-22T11:43:37Z</time>
      </trkpt>
      <trkpt lat="46.41228" lon="6.19007">
        <ele>565.87</ele>
        <time>2015-07-22T11:43:43Z</time>
      </trkpt>
      <trkpt lat="46.41222" lon="6.19014">
        <ele>565.87</ele>
        <time>2015-07-22T11:43:44Z</time>
      </trkpt>
      <trkpt lat="46.41191" lon="6.19054">
        <ele>563.95</ele>
        <time>2015-07-22T11:43:49Z</time>
      </trkpt>
      <trkpt lat="46.41129" lon="6.19136">
        <ele>560.59</ele>
        <time>2015-07-22T11:43:59Z</time>
      </trkpt>
      <trkpt lat="46.41118" lon="6.19153">
        <ele>559.62</ele>
        <time>2015-07-22T11:44:01Z</time>
      </trkpt>
      <trkpt lat="46.41075" lon="6.19217">
        <ele>556.26</ele>
        <time>2015-07-22T11:44:08Z</time>
      </trkpt>
      <trkpt lat="46.41016" lon="6.19311">
        <ele>552.41</ele>
        <time>2015-07-22T11:44:18Z</time>
      </trkpt>
      <trkpt lat="46.4097" lon="6.19389">
        <ele>549.53</ele>
        <time>2015-07-22T11:44:26Z</time>
      </trkpt>
      <trkpt lat="46.40935" lon="6.19449">
        <ele>546.17</ele>
        <time>2015-07-22T11:44:32Z</time>
      </trkpt>
      <trkpt lat="46.40862" lon="6.19574">
        <ele>543.28</ele>
        <time>2015-07-22T11:44:45Z</time>
      </trkpt>
      <trkpt lat="46.40804" lon="6.19673">
        <ele>539.92</ele>
        <time>2015-07-22T11:44:56Z</time>
      </trkpt>
      <trkpt lat="46.4073" lon="6.19797">
        <ele>537.03</ele>
        <time>2015-07-22T11:45:10Z</time>
      </trkpt>
      <trkpt lat="46.40676" lon="6.19876">
        <ele>533.67</ele>
        <time>2015-07-22T11:45:20Z</time>
      </trkpt>
      <trkpt lat="46.4065" lon="6.19912">
        <ele>532.71</ele>
        <time>2015-07-22T11:45:25Z</time>
      </trkpt>
      <trkpt lat="46.40643" lon="6.19917">
        <ele>532.23</ele>
        <time>2015-07-22T11:45:26Z</time>
      </trkpt>
      <trkpt lat="46.40637" lon="6.19922">
        <ele>532.71</ele>
        <time>2015-07-22T11:45:27Z</time>
      </trkpt>
      <trkpt lat="46.40632" lon="6.19928">
        <ele>532.23</ele>
        <time>2015-07-22T11:45:28Z</time>
      </trkpt>
      <trkpt lat="46.40628" lon="6.19936">
        <ele>532.23</ele>
        <time>2015-07-22T11:45:29Z</time>
      </trkpt>
      <trkpt lat="46.40625" lon="6.19945">
        <ele>532.23</ele>
        <time>2015-07-22T11:45:30Z</time>
      </trkpt>
      <trkpt lat="46.40621" lon="6.19953">
        <ele>531.75</ele>
        <time>2015-07-22T11:45:31Z</time>
      </trkpt>
      <trkpt lat="46.40616" lon="6.1996">
        <ele>531.27</ele>
        <time>2015-07-22T11:45:32Z</time>
      </trkpt>
      <trkpt lat="46.40611" lon="6.19967">
        <ele>530.79</ele>
        <time>2015-07-22T11:45:33Z</time>
      </trkpt>
      <trkpt lat="46.40606" lon="6.19973">
        <ele>530.79</ele>
        <time>2015-07-22T11:45:34Z</time>
      </trkpt>
      <trkpt lat="46.40519" lon="6.20069">
        <ele>527.9</ele>
        <time>2015-07-22T11:45:50Z</time>
      </trkpt>
      <trkpt lat="46.40421" lon="6.20167">
        <ele>525.5</ele>
        <time>2015-07-22T11:46:08Z</time>
      </trkpt>
      <trkpt lat="46.40315" lon="6.20255">
        <ele>523.09</ele>
        <time>2015-07-22T11:46:27Z</time>
      </trkpt>
      <trkpt lat="46.40214" lon="6.20323">
        <ele>521.65</ele>
        <time>2015-07-22T11:46:47Z</time>
      </trkpt>
      <trkpt lat="46.40213" lon="6.20324">
        <ele>521.17</ele>
        <time>2015-07-22T11:47:01Z</time>
      </trkpt>
      <trkpt lat="46.40212" lon="6.20325">
        <ele>521.17</ele>
        <time>2015-07-22T11:47:04Z</time>
      </trkpt>
      <trkpt lat="46.4021" lon="6.20326">
        <ele>521.17</ele>
        <time>2015-07-22T11:47:05Z</time>
      </trkpt>
      <trkpt lat="46.40209" lon="6.20326">
        <ele>521.17</ele>
        <time>2015-07-22T11:47:06Z</time>
      </trkpt>
      <trkpt lat="46.40208" lon="6.20327">
        <ele>521.17</ele>
        <time>2015-07-22T11:47:07Z</time>
      </trkpt>
      <trkpt lat="46.40176" lon="6.20335">
        <ele>520.69</ele>
        <time>2015-07-22T11:47:19Z</time>
      </trkpt>
      <trkpt lat="46.4017" lon="6.2034">
        <ele>520.69</ele>
        <time>2015-07-22T11:47:21Z</time>
      </trkpt>
      <trkpt lat="46.40164" lon="6.20348">
        <ele>520.21</ele>
        <time>2015-07-22T11:47:23Z</time>
      </trkpt>
      <trkpt lat="46.40098" lon="6.20398">
        <ele>519.25</ele>
        <time>2015-07-22T11:47:39Z</time>
      </trkpt>
      <trkpt lat="46.40016" lon="6.20453">
        <ele>517.81</ele>
        <time>2015-07-22T11:47:56Z</time>
      </trkpt>
      <trkpt lat="46.39928" lon="6.20528">
        <ele>516.85</ele>
        <time>2015-07-22T11:48:13Z</time>
      </trkpt>
      <trkpt lat="46.39877" lon="6.20577">
        <ele>515.88</ele>
        <time>2015-07-22T11:48:25Z</time>
      </trkpt>
      <trkpt lat="46.39856" lon="6.20586">
        <ele>514.92</ele>
        <time>2015-07-22T11:48:32Z</time>
      </trkpt>
      <trkpt lat="46.39843" lon="6.20602">
        <ele>514.92</ele>
        <time>2015-07-22T11:48:36Z</time>
      </trkpt>
      <trkpt lat="46.39839" lon="6.20615">
        <ele>514.44</ele>
        <time>2015-07-22T11:48:38Z</time>
      </trkpt>
      <trkpt lat="46.39775" lon="6.20692">
        <ele>513</ele>
        <time>2015-07-22T11:48:54Z</time>
      </trkpt>
      <trkpt lat="46.39678" lon="6.208">
        <ele>512.04</ele>
        <time>2015-07-22T11:49:16Z</time>
      </trkpt>
      <trkpt lat="46.39598" lon="6.20896">
        <ele>510.6</ele>
        <time>2015-07-22T11:49:35Z</time>
      </trkpt>
      <trkpt lat="46.39538" lon="6.20966">
        <ele>508.67</ele>
        <time>2015-07-22T11:49:51Z</time>
      </trkpt>
      <trkpt lat="46.39479" lon="6.21036">
        <ele>505.79</ele>
        <time>2015-07-22T11:50:03Z</time>
      </trkpt>
      <trkpt lat="46.39457" lon="6.21063">
        <ele>503.87</ele>
        <time>2015-07-22T11:50:07Z</time>
      </trkpt>
      <trkpt lat="46.39427" lon="6.211">
        <ele>501.46</ele>
        <time>2015-07-22T11:50:12Z</time>
      </trkpt>
      <trkpt lat="46.3938" lon="6.21155">
        <ele>498.58</ele>
        <time>2015-07-22T11:50:19Z</time>
      </trkpt>
      <trkpt lat="46.39359" lon="6.2118">
        <ele>496.66</ele>
        <time>2015-07-22T11:50:22Z</time>
      </trkpt>
      <trkpt lat="46.39323" lon="6.21224">
        <ele>494.26</ele>
        <time>2015-07-22T11:50:27Z</time>
      </trkpt>
      <trkpt lat="46.39282" lon="6.21285">
        <ele>491.37</ele>
        <time>2015-07-22T11:50:33Z</time>
      </trkpt>
      <trkpt lat="46.39256" lon="6.21331">
        <ele>488.01</ele>
        <time>2015-07-22T11:50:37Z</time>
      </trkpt>
      <trkpt lat="46.3925" lon="6.21343">
        <ele>488.01</ele>
        <time>2015-07-22T11:50:38Z</time>
      </trkpt>
      <trkpt lat="46.39228" lon="6.21392">
        <ele>486.56</ele>
        <time>2015-07-22T11:50:42Z</time>
      </trkpt>
      <trkpt lat="46.39219" lon="6.21417">
        <ele>483.68</ele>
        <time>2015-07-22T11:50:44Z</time>
      </trkpt>
      <trkpt lat="46.39201" lon="6.21467">
        <ele>480.8</ele>
        <time>2015-07-22T11:50:48Z</time>
      </trkpt>
      <trkpt lat="46.39192" lon="6.21492">
        <ele>479.84</ele>
        <time>2015-07-22T11:50:50Z</time>
      </trkpt>
      <trkpt lat="46.39161" lon="6.2158">
        <ele>478.39</ele>
        <time>2015-07-22T11:50:57Z</time>
      </trkpt>
      <trkpt lat="46.39152" lon="6.21606">
        <ele>476.47</ele>
        <time>2015-07-22T11:50:59Z</time>
      </trkpt>
      <trkpt lat="46.3913" lon="6.21668">
        <ele>474.07</ele>
        <time>2015-07-22T11:51:04Z</time>
      </trkpt>
      <trkpt lat="46.39105" lon="6.21739">
        <ele>469.74</ele>
        <time>2015-07-22T11:51:10Z</time>
      </trkpt>
      <trkpt lat="46.3905" lon="6.21894">
        <ele>467.34</ele>
        <time>2015-07-22T11:51:25Z</time>
      </trkpt>
      <trkpt lat="46.39029" lon="6.21952">
        <ele>465.9</ele>
        <time>2015-07-22T11:51:31Z</time>
      </trkpt>
      <trkpt lat="46.39003" lon="6.22029">
        <ele>463.97</ele>
        <time>2015-07-22T11:51:39Z</time>
      </trkpt>
      <trkpt lat="46.38972" lon="6.22095">
        <ele>463.49</ele>
        <time>2015-07-22T11:51:47Z</time>
      </trkpt>
      <trkpt lat="46.38967" lon="6.22123">
        <ele>462.53</ele>
        <time>2015-07-22T11:51:50Z</time>
      </trkpt>
      <trkpt lat="46.3892" lon="6.22258">
        <ele>460.13</ele>
        <time>2015-07-22T11:52:05Z</time>
      </trkpt>
      <trkpt lat="46.38906" lon="6.22294">
        <ele>458.21</ele>
        <time>2015-07-22T11:52:09Z</time>
      </trkpt>
      <trkpt lat="46.38829" lon="6.22485">
        <ele>455.8</ele>
        <time>2015-07-22T11:52:32Z</time>
      </trkpt>
      <trkpt lat="46.38811" lon="6.22531">
        <ele>455.32</ele>
        <time>2015-07-22T11:52:38Z</time>
      </trkpt>
      <trkpt lat="46.38763" lon="6.22652">
        <ele>456.28</ele>
        <time>2015-07-22T11:52:55Z</time>
      </trkpt>
      <trkpt lat="46.38745" lon="6.22694">
        <ele>456.28</ele>
        <time>2015-07-22T11:53:06Z</time>
      </trkpt>
      <trkpt lat="46.38731" lon="6.22735">
        <ele>454.84</ele>
        <time>2015-07-22T11:53:16Z</time>
      </trkpt>
      <trkpt lat="46.38719" lon="6.22769">
        <ele>454.36</ele>
        <time>2015-07-22T11:53:23Z</time>
      </trkpt>
      <trkpt lat="46.38715" lon="6.2278">
        <ele>454.84</ele>
        <time>2015-07-22T11:53:25Z</time>
      </trkpt>
      <trkpt lat="46.387" lon="6.22805">
        <ele>453.88</ele>
        <time>2015-07-22T11:53:30Z</time>
      </trkpt>
      <trkpt lat="46.38641" lon="6.22923">
        <ele>450.52</ele>
        <time>2015-07-22T11:53:48Z</time>
      </trkpt>
      <trkpt lat="46.38579" lon="6.23005">
        <ele>449.07</ele>
        <time>2015-07-22T11:54:02Z</time>
      </trkpt>
      <trkpt lat="46.38494" lon="6.23103">
        <ele>446.19</ele>
        <time>2015-07-22T11:54:20Z</time>
      </trkpt>
      <trkpt lat="46.38435" lon="6.23173">
        <ele>443.31</ele>
        <time>2015-07-22T11:54:34Z</time>
      </trkpt>
      <trkpt lat="46.38434" lon="6.23175">
        <ele>442.82</ele>
        <time>2015-07-22T11:54:45Z</time>
      </trkpt>
      <trkpt lat="46.38434" lon="6.23175">
        <ele>442.82</ele>
        <time>2015-07-22T11:54:53Z</time>
      </trkpt>
      <trkpt lat="46.38427" lon="6.23182">
        <ele>442.34</ele>
        <time>2015-07-22T11:54:57Z</time>
      </trkpt>
      <trkpt lat="46.38414" lon="6.23192">
        <ele>441.86</ele>
        <time>2015-07-22T11:55:01Z</time>
      </trkpt>
      <trkpt lat="46.38405" lon="6.23212">
        <ele>441.38</ele>
        <time>2015-07-22T11:55:05Z</time>
      </trkpt>
      <trkpt lat="46.384" lon="6.23224">
        <ele>440.9</ele>
        <time>2015-07-22T11:55:07Z</time>
      </trkpt>
      <trkpt lat="46.3837" lon="6.23304">
        <ele>437.54</ele>
        <time>2015-07-22T11:55:17Z</time>
      </trkpt>
      <trkpt lat="46.38355" lon="6.2338">
        <ele>434.17</ele>
        <time>2015-07-22T11:55:25Z</time>
      </trkpt>
      <trkpt lat="46.38351" lon="6.2339">
        <ele>433.69</ele>
        <time>2015-07-22T11:55:29Z</time>
      </trkpt>
      <trkpt lat="46.38339" lon="6.23415">
        <ele>432.25</ele>
        <time>2015-07-22T11:55:36Z</time>
      </trkpt>
      <trkpt lat="46.3833" lon="6.2344">
        <ele>431.29</ele>
        <time>2015-07-22T11:55:40Z</time>
      </trkpt>
      <trkpt lat="46.38326" lon="6.23454">
        <ele>431.29</ele>
        <time>2015-07-22T11:55:42Z</time>
      </trkpt>
      <trkpt lat="46.38308" lon="6.23489">
        <ele>431.29</ele>
        <time>2015-07-22T11:55:49Z</time>
      </trkpt>
      <trkpt lat="46.38309" lon="6.23499">
        <ele>431.29</ele>
        <time>2015-07-22T11:55:51Z</time>
      </trkpt>
      <trkpt lat="46.3831" lon="6.23507">
        <ele>431.77</ele>
        <time>2015-07-22T11:55:58Z</time>
      </trkpt>
      <trkpt lat="46.3831" lon="6.23506">
        <ele>431.29</ele>
        <time>2015-07-22T11:56:13Z</time>
      </trkpt>
      <trkpt lat="46.3831" lon="6.23506">
        <ele>431.29</ele>
        <time>2015-07-22T11:56:38Z</time>
      </trkpt>
      <trkpt lat="46.3831" lon="6.23506">
        <ele>430.81</ele>
        <time>2015-07-22T11:57:02Z</time>
      </trkpt>
      <trkpt lat="46.3831" lon="6.23506">
        <ele>430.33</ele>
        <time>2015-07-22T11:57:14Z</time>
      </trkpt>
      <trkpt lat="46.38319" lon="6.23505">
        <ele>430.81</ele>
        <time>2015-07-22T11:57:20Z</time>
      </trkpt>
      <trkpt lat="46.38327" lon="6.23516">
        <ele>431.29</ele>
        <time>2015-07-22T11:57:24Z</time>
      </trkpt>
      <trkpt lat="46.38354" lon="6.23548">
        <ele>432.73</ele>
        <time>2015-07-22T11:57:38Z</time>
      </trkpt>
      <trkpt lat="46.3838" lon="6.23579">
        <ele>434.65</ele>
        <time>2015-07-22T11:57:50Z</time>
      </trkpt>
      <trkpt lat="46.38418" lon="6.23625">
        <ele>437.06</ele>
        <time>2015-07-22T11:58:06Z</time>
      </trkpt>
      <trkpt lat="46.38449" lon="6.23661">
        <ele>437.54</ele>
        <time>2015-07-22T11:58:19Z</time>
      </trkpt>
      <trkpt lat="46.38464" lon="6.23685">
        <ele>437.06</ele>
        <time>2015-07-22T11:58:27Z</time>
      </trkpt>
      <trkpt lat="46.38454" lon="6.23702">
        <ele>437.06</ele>
        <time>2015-07-22T11:58:31Z</time>
      </trkpt>
      <trkpt lat="46.3843" lon="6.2375">
        <ele>435.13</ele>
        <time>2015-07-22T11:58:40Z</time>
      </trkpt>
      <trkpt lat="46.38425" lon="6.23755">
        <ele>435.13</ele>
        <time>2015-07-22T11:58:41Z</time>
      </trkpt>
      <trkpt lat="46.38402" lon="6.23777">
        <ele>434.65</ele>
        <time>2015-07-22T11:58:46Z</time>
      </trkpt>
      <trkpt lat="46.38377" lon="6.23806">
        <ele>434.65</ele>
        <time>2015-07-22T11:58:52Z</time>
      </trkpt>
      <trkpt lat="46.3837" lon="6.23819">
        <ele>434.17</ele>
        <time>2015-07-22T11:58:54Z</time>
      </trkpt>
      <trkpt lat="46.38341" lon="6.23877">
        <ele>430.81</ele>
        <time>2015-07-22T11:59:02Z</time>
      </trkpt>
      <trkpt lat="46.3833" lon="6.23902">
        <ele>430.33</ele>
        <time>2015-07-22T11:59:05Z</time>
      </trkpt>
      <trkpt lat="46.3833" lon="6.23953">
        <ele>429.85</ele>
        <time>2015-07-22T11:59:13Z</time>
      </trkpt>
      <trkpt lat="46.38338" lon="6.23958">
        <ele>429.37</ele>
        <time>2015-07-22T11:59:20Z</time>
      </trkpt>
      <trkpt lat="46.38338" lon="6.23958">
        <ele>428.89</ele>
        <time>2015-07-22T11:59:29Z</time>
      </trkpt>
      <trkpt lat="46.38341" lon="6.23963">
        <ele>428.89</ele>
        <time>2015-07-22T11:59:32Z</time>
      </trkpt>
      <trkpt lat="46.38345" lon="6.2397">
        <ele>428.4</ele>
        <time>2015-07-22T11:59:34Z</time>
      </trkpt>
      <trkpt lat="46.38374" lon="6.24007">
        <ele>428.4</ele>
        <time>2015-07-22T11:59:42Z</time>
      </trkpt>
      <trkpt lat="46.38387" lon="6.24025">
        <ele>428.4</ele>
        <time>2015-07-22T11:59:46Z</time>
      </trkpt>
      <trkpt lat="46.38408" lon="6.24052">
        <ele>428.89</ele>
        <time>2015-07-22T11:59:53Z</time>
      </trkpt>
      <trkpt lat="46.38415" lon="6.24057">
        <ele>429.37</ele>
        <time>2015-07-22T11:59:55Z</time>
      </trkpt>
      <trkpt lat="46.38423" lon="6.24062">
        <ele>429.85</ele>
        <time>2015-07-22T11:59:57Z</time>
      </trkpt>
      <trkpt lat="46.38442" lon="6.24075">
        <ele>430.33</ele>
        <time>2015-07-22T12:00:02Z</time>
      </trkpt>
      <trkpt lat="46.38519" lon="6.24102">
        <ele>427.92</ele>
        <time>2015-07-22T12:00:17Z</time>
      </trkpt>
      <trkpt lat="46.3853" lon="6.24105">
        <ele>427.92</ele>
        <time>2015-07-22T12:00:19Z</time>
      </trkpt>
      <trkpt lat="46.38578" lon="6.24123">
        <ele>425.52</ele>
        <time>2015-07-22T12:00:29Z</time>
      </trkpt>
      <trkpt lat="46.38581" lon="6.24122">
        <ele>425.04</ele>
        <time>2015-07-22T12:00:39Z</time>
      </trkpt>
      <trkpt lat="46.38581" lon="6.24122">
        <ele>425.04</ele>
        <time>2015-07-22T12:00:42Z</time>
      </trkpt>
      <trkpt lat="46.38582" lon="6.2412">
        <ele>425.04</ele>
        <time>2015-07-22T12:00:44Z</time>
      </trkpt>
      <trkpt lat="46.38568" lon="6.24113">
        <ele>425.52</ele>
        <time>2015-07-22T12:00:52Z</time>
      </trkpt>
      <trkpt lat="46.38543" lon="6.24105">
        <ele>426.48</ele>
        <time>2015-07-22T12:01:05Z</time>
      </trkpt>
      <trkpt lat="46.38531" lon="6.24101">
        <ele>426.96</ele>
        <time>2015-07-22T12:01:10Z</time>
      </trkpt>
      <trkpt lat="46.3852" lon="6.24112">
        <ele>427.44</ele>
        <time>2015-07-22T12:01:15Z</time>
      </trkpt>
      <trkpt lat="46.38476" lon="6.24195">
        <ele>424.08</ele>
        <time>2015-07-22T12:01:30Z</time>
      </trkpt>
      <trkpt lat="46.3845" lon="6.24254">
        <ele>421.19</ele>
        <time>2015-07-22T12:01:38Z</time>
      </trkpt>
      <trkpt lat="46.38441" lon="6.24271">
        <ele>418.79</ele>
        <time>2015-07-22T12:01:40Z</time>
      </trkpt>
      <trkpt lat="46.38416" lon="6.24301">
        <ele>414.47</ele>
        <time>2015-07-22T12:01:44Z</time>
      </trkpt>
      <trkpt lat="46.38403" lon="6.24316">
        <ele>413.02</ele>
        <time>2015-07-22T12:01:46Z</time>
      </trkpt>
      <trkpt lat="46.38382" lon="6.24348">
        <ele>409.66</ele>
        <time>2015-07-22T12:01:51Z</time>
      </trkpt>
      <trkpt lat="46.38371" lon="6.24368">
        <ele>407.74</ele>
        <time>2015-07-22T12:01:55Z</time>
      </trkpt>
      <trkpt lat="46.38348" lon="6.24396">
        <ele>406.77</ele>
        <time>2015-07-22T12:02:01Z</time>
      </trkpt>
      <trkpt lat="46.38349" lon="6.24412">
        <ele>405.81</ele>
        <time>2015-07-22T12:02:05Z</time>
      </trkpt>
      <trkpt lat="46.38388" lon="6.24465">
        <ele>405.33</ele>
        <time>2015-07-22T12:02:19Z</time>
      </trkpt>
      <trkpt lat="46.38436" lon="6.24541">
        <ele>405.33</ele>
        <time>2015-07-22T12:02:34Z</time>
      </trkpt>
      <trkpt lat="46.38444" lon="6.24553">
        <ele>404.85</ele>
        <time>2015-07-22T12:02:36Z</time>
      </trkpt>
      <trkpt lat="46.38501" lon="6.24599">
        <ele>405.33</ele>
        <time>2015-07-22T12:02:48Z</time>
      </trkpt>
      <trkpt lat="46.38563" lon="6.24626">
        <ele>405.81</ele>
        <time>2015-07-22T12:02:59Z</time>
      </trkpt>
      <trkpt lat="46.38653" lon="6.24661">
        <ele>405.33</ele>
        <time>2015-07-22T12:03:13Z</time>
      </trkpt>
      <trkpt lat="46.3872" lon="6.24701">
        <ele>406.77</ele>
        <time>2015-07-22T12:03:25Z</time>
      </trkpt>
      <trkpt lat="46.38794" lon="6.24788">
        <ele>408.7</ele>
        <time>2015-07-22T12:03:42Z</time>
      </trkpt>
      <trkpt lat="46.38857" lon="6.24867">
        <ele>409.18</ele>
        <time>2015-07-22T12:03:57Z</time>
      </trkpt>
      <trkpt lat="46.3891" lon="6.24937">
        <ele>409.66</ele>
        <time>2015-07-22T12:04:10Z</time>
      </trkpt>
      <trkpt lat="46.38915" lon="6.24942">
        <ele>409.66</ele>
        <time>2015-07-22T12:04:11Z</time>
      </trkpt>
      <trkpt lat="46.38994" lon="6.25043">
        <ele>410.62</ele>
        <time>2015-07-22T12:04:30Z</time>
      </trkpt>
      <trkpt lat="46.39064" lon="6.2513">
        <ele>411.1</ele>
        <time>2015-07-22T12:04:46Z</time>
      </trkpt>
      <trkpt lat="46.39135" lon="6.25214">
        <ele>412.06</ele>
        <time>2015-07-22T12:05:02Z</time>
      </trkpt>
      <trkpt lat="46.39202" lon="6.25301">
        <ele>412.54</ele>
        <time>2015-07-22T12:05:17Z</time>
      </trkpt>
      <trkpt lat="46.39275" lon="6.25393">
        <ele>411.58</ele>
        <time>2015-07-22T12:05:33Z</time>
      </trkpt>
      <trkpt lat="46.39322" lon="6.25453">
        <ele>412.06</ele>
        <time>2015-07-22T12:05:46Z</time>
      </trkpt>
      <trkpt lat="46.39328" lon="6.25462">
        <ele>412.06</ele>
        <time>2015-07-22T12:05:49Z</time>
      </trkpt>
      <trkpt lat="46.39338" lon="6.25476">
        <ele>412.06</ele>
        <time>2015-07-22T12:05:56Z</time>
      </trkpt>
      <trkpt lat="46.39338" lon="6.2547">
        <ele>412.54</ele>
        <time>2015-07-22T12:06:00Z</time>
      </trkpt>
      <trkpt lat="46.39296" lon="6.25423">
        <ele>411.58</ele>
        <time>2015-07-22T12:06:12Z</time>
      </trkpt>
      <trkpt lat="46.39276" lon="6.25398">
        <ele>411.58</ele>
        <time>2015-07-22T12:06:18Z</time>
      </trkpt>
      <trkpt lat="46.39258" lon="6.25415">
        <ele>410.14</ele>
        <time>2015-07-22T12:06:29Z</time>
      </trkpt>
      <trkpt lat="46.39256" lon="6.25417">
        <ele>409.66</ele>
        <time>2015-07-22T12:06:41Z</time>
      </trkpt>
      <trkpt lat="46.39257" lon="6.25417">
        <ele>409.66</ele>
        <time>2015-07-22T12:07:02Z</time>
      </trkpt>
      <trkpt lat="46.3926" lon="6.25412">
        <ele>409.18</ele>
        <time>2015-07-22T12:07:15Z</time>
      </trkpt>
      <trkpt lat="46.3926" lon="6.25413">
        <ele>409.18</ele>
        <time>2015-07-22T12:07:37Z</time>
      </trkpt>
      <trkpt lat="46.39261" lon="6.25411">
        <ele>409.18</ele>
        <time>2015-07-22T12:07:40Z</time>
      </trkpt>
      <trkpt lat="46.39267" lon="6.254">
        <ele>409.66</ele>
        <time>2015-07-22T12:07:46Z</time>
      </trkpt>
      <trkpt lat="46.39276" lon="6.25398">
        <ele>410.14</ele>
        <time>2015-07-22T12:07:52Z</time>
      </trkpt>
      <trkpt lat="46.39289" lon="6.25413">
        <ele>410.14</ele>
        <time>2015-07-22T12:07:57Z</time>
      </trkpt>
      <trkpt lat="46.39343" lon="6.25481">
        <ele>411.1</ele>
        <time>2015-07-22T12:08:11Z</time>
      </trkpt>
      <trkpt lat="46.39412" lon="6.25568">
        <ele>411.58</ele>
        <time>2015-07-22T12:08:27Z</time>
      </trkpt>
      <trkpt lat="46.3949" lon="6.25665">
        <ele>411.1</ele>
        <time>2015-07-22T12:08:43Z</time>
      </trkpt>
      <trkpt lat="46.39586" lon="6.25787">
        <ele>411.58</ele>
        <time>2015-07-22T12:09:02Z</time>
      </trkpt>
      <trkpt lat="46.39655" lon="6.25872">
        <ele>414.47</ele>
        <time>2015-07-22T12:09:18Z</time>
      </trkpt>
      <trkpt lat="46.39691" lon="6.25917">
        <ele>417.83</ele>
        <time>2015-07-22T12:09:30Z</time>
      </trkpt>
      <trkpt lat="46.39726" lon="6.2596">
        <ele>420.71</ele>
        <time>2015-07-22T12:09:43Z</time>
      </trkpt>
      <trkpt lat="46.39773" lon="6.2602">
        <ele>423.12</ele>
        <time>2015-07-22T12:09:59Z</time>
      </trkpt>
      <trkpt lat="46.39792" lon="6.26045">
        <ele>423.6</ele>
        <time>2015-07-22T12:10:05Z</time>
      </trkpt>
      <trkpt lat="46.3986" lon="6.26133">
        <ele>424.08</ele>
        <time>2015-07-22T12:10:25Z</time>
      </trkpt>
      <trkpt lat="46.39926" lon="6.26218">
        <ele>425.52</ele>
        <time>2015-07-22T12:10:44Z</time>
      </trkpt>
      <trkpt lat="46.39991" lon="6.263">
        <ele>426</ele>
        <time>2015-07-22T12:11:01Z</time>
      </trkpt>
      <trkpt lat="46.40069" lon="6.26399">
        <ele>426.96</ele>
        <time>2015-07-22T12:11:20Z</time>
      </trkpt>
      <trkpt lat="46.4016" lon="6.26514">
        <ele>426.96</ele>
        <time>2015-07-22T12:11:40Z</time>
      </trkpt>
      <trkpt lat="46.40254" lon="6.26632">
        <ele>427.44</ele>
        <time>2015-07-22T12:11:59Z</time>
      </trkpt>
      <trkpt lat="46.40347" lon="6.26745">
        <ele>427.92</ele>
        <time>2015-07-22T12:12:19Z</time>
      </trkpt>
      <trkpt lat="46.40406" lon="6.26795">
        <ele>427.92</ele>
        <time>2015-07-22T12:12:32Z</time>
      </trkpt>
      <trkpt lat="46.40492" lon="6.2684">
        <ele>425.52</ele>
        <time>2015-07-22T12:12:47Z</time>
      </trkpt>
      <trkpt lat="46.40524" lon="6.26849">
        <ele>424.08</ele>
        <time>2015-07-22T12:12:51Z</time>
      </trkpt>
      <trkpt lat="46.40577" lon="6.26869">
        <ele>421.19</ele>
        <time>2015-07-22T12:12:57Z</time>
      </trkpt>
      <trkpt lat="46.40648" lon="6.26905">
        <ele>418.79</ele>
        <time>2015-07-22T12:13:05Z</time>
      </trkpt>
      <trkpt lat="46.40686" lon="6.2694">
        <ele>420.23</ele>
        <time>2015-07-22T12:13:11Z</time>
      </trkpt>
      <trkpt lat="46.40738" lon="6.27004">
        <ele>423.6</ele>
        <time>2015-07-22T12:13:24Z</time>
      </trkpt>
      <trkpt lat="46.40784" lon="6.27057">
        <ele>426.48</ele>
        <time>2015-07-22T12:13:38Z</time>
      </trkpt>
      <trkpt lat="46.40825" lon="6.27106">
        <ele>427.44</ele>
        <time>2015-07-22T12:13:51Z</time>
      </trkpt>
      <trkpt lat="46.40847" lon="6.2713">
        <ele>427.92</ele>
        <time>2015-07-22T12:13:57Z</time>
      </trkpt>
      <trkpt lat="46.40914" lon="6.27209">
        <ele>427.92</ele>
        <time>2015-07-22T12:14:14Z</time>
      </trkpt>
      <trkpt lat="46.40978" lon="6.27283">
        <ele>426.96</ele>
        <time>2015-07-22T12:14:28Z</time>
      </trkpt>
      <trkpt lat="46.41044" lon="6.2736">
        <ele>426.96</ele>
        <time>2015-07-22T12:14:41Z</time>
      </trkpt>
      <trkpt lat="46.4105" lon="6.27367">
        <ele>426.96</ele>
        <time>2015-07-22T12:14:42Z</time>
      </trkpt>
      <trkpt lat="46.41126" lon="6.27452">
        <ele>426</ele>
        <time>2015-07-22T12:14:57Z</time>
      </trkpt>
      <trkpt lat="46.41191" lon="6.27531">
        <ele>425.04</ele>
        <time>2015-07-22T12:15:10Z</time>
      </trkpt>
      <trkpt lat="46.41202" lon="6.27543">
        <ele>425.04</ele>
        <time>2015-07-22T12:15:12Z</time>
      </trkpt>
      <trkpt lat="46.41253" lon="6.27602">
        <ele>423.6</ele>
        <time>2015-07-22T12:15:23Z</time>
      </trkpt>
      <trkpt lat="46.4132" lon="6.27682">
        <ele>422.64</ele>
        <time>2015-07-22T12:15:38Z</time>
      </trkpt>
      <trkpt lat="46.41371" lon="6.27738">
        <ele>422.16</ele>
        <time>2015-07-22T12:15:49Z</time>
      </trkpt>
      <trkpt lat="46.41438" lon="6.27816">
        <ele>420.71</ele>
        <time>2015-07-22T12:16:03Z</time>
      </trkpt>
      <trkpt lat="46.41453" lon="6.27838">
        <ele>421.19</ele>
        <time>2015-07-22T12:16:11Z</time>
      </trkpt>
      <trkpt lat="46.41453" lon="6.27838">
        <ele>421.19</ele>
        <time>2015-07-22T12:16:37Z</time>
      </trkpt>
      <trkpt lat="46.41453" lon="6.27839">
        <ele>421.19</ele>
        <time>2015-07-22T12:17:09Z</time>
      </trkpt>
      <trkpt lat="46.41458" lon="6.27844">
        <ele>420.71</ele>
        <time>2015-07-22T12:17:13Z</time>
      </trkpt>
      <trkpt lat="46.41473" lon="6.27863">
        <ele>420.23</ele>
        <time>2015-07-22T12:17:19Z</time>
      </trkpt>
      <trkpt lat="46.41524" lon="6.2792">
        <ele>419.27</ele>
        <time>2015-07-22T12:17:33Z</time>
      </trkpt>
      <trkpt lat="46.41541" lon="6.27967">
        <ele>418.79</ele>
        <time>2015-07-22T12:17:41Z</time>
      </trkpt>
      <trkpt lat="46.41559" lon="6.27966">
        <ele>419.75</ele>
        <time>2015-07-22T12:17:46Z</time>
      </trkpt>
      <trkpt lat="46.41589" lon="6.27992">
        <ele>418.31</ele>
        <time>2015-07-22T12:17:53Z</time>
      </trkpt>
      <trkpt lat="46.41664" lon="6.28077">
        <ele>417.35</ele>
        <time>2015-07-22T12:18:10Z</time>
      </trkpt>
      <trkpt lat="46.41747" lon="6.28173">
        <ele>416.39</ele>
        <time>2015-07-22T12:18:28Z</time>
      </trkpt>
      <trkpt lat="46.41815" lon="6.28255">
        <ele>415.91</ele>
        <time>2015-07-22T12:18:43Z</time>
      </trkpt>
      <trkpt lat="46.4184" lon="6.28284">
        <ele>415.43</ele>
        <time>2015-07-22T12:18:48Z</time>
      </trkpt>
      <trkpt lat="46.41909" lon="6.2836">
        <ele>413.5</ele>
        <time>2015-07-22T12:19:02Z</time>
      </trkpt>
      <trkpt lat="46.41966" lon="6.28428">
        <ele>413.02</ele>
        <time>2015-07-22T12:19:15Z</time>
      </trkpt>
      <trkpt lat="46.41977" lon="6.28455">
        <ele>412.54</ele>
        <time>2015-07-22T12:19:19Z</time>
      </trkpt>
      <trkpt lat="46.42002" lon="6.28473">
        <ele>413.02</ele>
        <time>2015-07-22T12:19:27Z</time>
      </trkpt>
      <trkpt lat="46.42011" lon="6.2848">
        <ele>412.06</ele>
        <time>2015-07-22T12:19:29Z</time>
      </trkpt>
      <trkpt lat="46.42094" lon="6.28579">
        <ele>411.1</ele>
        <time>2015-07-22T12:19:48Z</time>
      </trkpt>
      <trkpt lat="46.42181" lon="6.2868">
        <ele>408.7</ele>
        <time>2015-07-22T12:20:06Z</time>
      </trkpt>
      <trkpt lat="46.42262" lon="6.28789">
        <ele>407.74</ele>
        <time>2015-07-22T12:20:22Z</time>
      </trkpt>
      <trkpt lat="46.4232" lon="6.28882">
        <ele>408.22</ele>
        <time>2015-07-22T12:20:37Z</time>
      </trkpt>
      <trkpt lat="46.42391" lon="6.28995">
        <ele>408.7</ele>
        <time>2015-07-22T12:20:56Z</time>
      </trkpt>
      <trkpt lat="46.42459" lon="6.29099">
        <ele>408.7</ele>
        <time>2015-07-22T12:21:14Z</time>
      </trkpt>
      <trkpt lat="46.42545" lon="6.29242">
        <ele>407.74</ele>
        <time>2015-07-22T12:21:35Z</time>
      </trkpt>
      <trkpt lat="46.42607" lon="6.29376">
        <ele>407.74</ele>
        <time>2015-07-22T12:21:53Z</time>
      </trkpt>
      <trkpt lat="46.4267" lon="6.2953">
        <ele>405.81</ele>
        <time>2015-07-22T12:22:11Z</time>
      </trkpt>
      <trkpt lat="46.42701" lon="6.29605">
        <ele>408.22</ele>
        <time>2015-07-22T12:22:21Z</time>
      </trkpt>
      <trkpt lat="46.4274" lon="6.29699">
        <ele>411.1</ele>
        <time>2015-07-22T12:22:38Z</time>
      </trkpt>
      <trkpt lat="46.42776" lon="6.29785">
        <ele>413.5</ele>
        <time>2015-07-22T12:22:55Z</time>
      </trkpt>
      <trkpt lat="46.42792" lon="6.29814">
        <ele>413.98</ele>
        <time>2015-07-22T12:23:01Z</time>
      </trkpt>
      <trkpt lat="46.42848" lon="6.29894">
        <ele>415.43</ele>
        <time>2015-07-22T12:23:18Z</time>
      </trkpt>
      <trkpt lat="46.42909" lon="6.29975">
        <ele>415.43</ele>
        <time>2015-07-22T12:23:34Z</time>
      </trkpt>
      <trkpt lat="46.4293" lon="6.3">
        <ele>414.95</ele>
        <time>2015-07-22T12:23:39Z</time>
      </trkpt>
      <trkpt lat="46.43018" lon="6.30117">
        <ele>413.02</ele>
        <time>2015-07-22T12:23:59Z</time>
      </trkpt>
      <trkpt lat="46.43097" lon="6.30219">
        <ele>412.06</ele>
        <time>2015-07-22T12:24:16Z</time>
      </trkpt>
      <trkpt lat="46.43187" lon="6.30337">
        <ele>411.58</ele>
        <time>2015-07-22T12:24:34Z</time>
      </trkpt>
      <trkpt lat="46.43279" lon="6.30456">
        <ele>410.62</ele>
        <time>2015-07-22T12:24:52Z</time>
      </trkpt>
      <trkpt lat="46.43372" lon="6.30576">
        <ele>410.62</ele>
        <time>2015-07-22T12:25:12Z</time>
      </trkpt>
      <trkpt lat="46.43471" lon="6.30704">
        <ele>409.66</ele>
        <time>2015-07-22T12:25:34Z</time>
      </trkpt>
      <trkpt lat="46.43562" lon="6.30822">
        <ele>411.1</ele>
        <time>2015-07-22T12:25:55Z</time>
      </trkpt>
      <trkpt lat="46.43645" lon="6.30929">
        <ele>411.58</ele>
        <time>2015-07-22T12:26:14Z</time>
      </trkpt>
      <trkpt lat="46.43746" lon="6.31062">
        <ele>410.62</ele>
        <time>2015-07-22T12:26:36Z</time>
      </trkpt>
      <trkpt lat="46.43838" lon="6.31182">
        <ele>409.18</ele>
        <time>2015-07-22T12:26:54Z</time>
      </trkpt>
      <trkpt lat="46.43944" lon="6.3132">
        <ele>407.26</ele>
        <time>2015-07-22T12:27:14Z</time>
      </trkpt>
      <trkpt lat="46.44035" lon="6.31439">
        <ele>404.85</ele>
        <time>2015-07-22T12:27:30Z</time>
      </trkpt>
      <trkpt lat="46.44141" lon="6.31577">
        <ele>401.49</ele>
        <time>2015-07-22T12:27:48Z</time>
      </trkpt>
      <trkpt lat="46.44203" lon="6.31663">
        <ele>400.53</ele>
        <time>2015-07-22T12:27:59Z</time>
      </trkpt>
      <trkpt lat="46.44311" lon="6.31799">
        <ele>397.16</ele>
        <time>2015-07-22T12:28:16Z</time>
      </trkpt>
      <trkpt lat="46.44395" lon="6.31922">
        <ele>396.2</ele>
        <time>2015-07-22T12:28:31Z</time>
      </trkpt>
      <trkpt lat="46.44432" lon="6.3198">
        <ele>396.68</ele>
        <time>2015-07-22T12:28:40Z</time>
      </trkpt>
      <trkpt lat="46.4445" lon="6.31998">
        <ele>395.72</ele>
        <time>2015-07-22T12:28:44Z</time>
      </trkpt>
      <trkpt lat="46.44457" lon="6.3201">
        <ele>396.2</ele>
        <time>2015-07-22T12:28:46Z</time>
      </trkpt>
      <trkpt lat="46.44496" lon="6.32074">
        <ele>396.2</ele>
        <time>2015-07-22T12:28:59Z</time>
      </trkpt>
      <trkpt lat="46.44507" lon="6.32092">
        <ele>396.2</ele>
        <time>2015-07-22T12:29:03Z</time>
      </trkpt>
      <trkpt lat="46.44555" lon="6.32176">
        <ele>396.2</ele>
        <time>2015-07-22T12:29:19Z</time>
      </trkpt>
      <trkpt lat="46.44579" lon="6.32218">
        <ele>396.68</ele>
        <time>2015-07-22T12:29:27Z</time>
      </trkpt>
      <trkpt lat="46.44597" lon="6.32251">
        <ele>396.68</ele>
        <time>2015-07-22T12:29:33Z</time>
      </trkpt>
      <trkpt lat="46.44651" lon="6.32343">
        <ele>396.2</ele>
        <time>2015-07-22T12:29:47Z</time>
      </trkpt>
      <trkpt lat="46.44718" lon="6.32454">
        <ele>396.2</ele>
        <time>2015-07-22T12:30:03Z</time>
      </trkpt>
      <trkpt lat="46.44774" lon="6.32547">
        <ele>397.64</ele>
        <time>2015-07-22T12:30:19Z</time>
      </trkpt>
      <trkpt lat="46.44783" lon="6.32564">
        <ele>398.12</ele>
        <time>2015-07-22T12:30:22Z</time>
      </trkpt>
      <trkpt lat="46.44837" lon="6.32651">
        <ele>399.57</ele>
        <time>2015-07-22T12:30:39Z</time>
      </trkpt>
      <trkpt lat="46.44888" lon="6.32737">
        <ele>399.57</ele>
        <time>2015-07-22T12:30:54Z</time>
      </trkpt>
      <trkpt lat="46.44954" lon="6.32849">
        <ele>399.57</ele>
        <time>2015-07-22T12:31:12Z</time>
      </trkpt>
      <trkpt lat="46.44958" lon="6.32855">
        <ele>399.57</ele>
        <time>2015-07-22T12:31:13Z</time>
      </trkpt>
      <trkpt lat="46.45015" lon="6.32952">
        <ele>399.08</ele>
        <time>2015-07-22T12:31:28Z</time>
      </trkpt>
      <trkpt lat="46.45074" lon="6.33052">
        <ele>400.05</ele>
        <time>2015-07-22T12:31:44Z</time>
      </trkpt>
      <trkpt lat="46.45097" lon="6.3309">
        <ele>400.05</ele>
        <time>2015-07-22T12:31:55Z</time>
      </trkpt>
      <trkpt lat="46.45097" lon="6.3309">
        <ele>400.05</ele>
        <time>2015-07-22T12:32:18Z</time>
      </trkpt>
      <trkpt lat="46.45097" lon="6.3309">
        <ele>400.05</ele>
        <time>2015-07-22T12:32:24Z</time>
      </trkpt>
      <trkpt lat="46.451" lon="6.33095">
        <ele>400.05</ele>
        <time>2015-07-22T12:32:28Z</time>
      </trkpt>
      <trkpt lat="46.45127" lon="6.33141">
        <ele>400.05</ele>
        <time>2015-07-22T12:32:38Z</time>
      </trkpt>
      <trkpt lat="46.45141" lon="6.33165">
        <ele>401.01</ele>
        <time>2015-07-22T12:32:43Z</time>
      </trkpt>
      <trkpt lat="46.45151" lon="6.33183">
        <ele>400.53</ele>
        <time>2015-07-22T12:32:47Z</time>
      </trkpt>
      <trkpt lat="46.45186" lon="6.33242">
        <ele>400.53</ele>
        <time>2015-07-22T12:33:00Z</time>
      </trkpt>
      <trkpt lat="46.45194" lon="6.33255">
        <ele>401.01</ele>
        <time>2015-07-22T12:33:03Z</time>
      </trkpt>
      <trkpt lat="46.45244" lon="6.33338">
        <ele>400.05</ele>
        <time>2015-07-22T12:33:19Z</time>
      </trkpt>
      <trkpt lat="46.45254" lon="6.33355">
        <ele>399.08</ele>
        <time>2015-07-22T12:33:22Z</time>
      </trkpt>
      <trkpt lat="46.45261" lon="6.33375">
        <ele>398.6</ele>
        <time>2015-07-22T12:33:25Z</time>
      </trkpt>
      <trkpt lat="46.4527" lon="6.33394">
        <ele>399.08</ele>
        <time>2015-07-22T12:33:28Z</time>
      </trkpt>
      <trkpt lat="46.45293" lon="6.33424">
        <ele>398.6</ele>
        <time>2015-07-22T12:33:34Z</time>
      </trkpt>
      <trkpt lat="46.45328" lon="6.33454">
        <ele>397.16</ele>
        <time>2015-07-22T12:33:42Z</time>
      </trkpt>
      <trkpt lat="46.45352" lon="6.33471">
        <ele>397.64</ele>
        <time>2015-07-22T12:33:48Z</time>
      </trkpt>
      <trkpt lat="46.45378" lon="6.3349">
        <ele>396.68</ele>
        <time>2015-07-22T12:33:54Z</time>
      </trkpt>
      <trkpt lat="46.45396" lon="6.33503">
        <ele>396.68</ele>
        <time>2015-07-22T12:33:58Z</time>
      </trkpt>
      <trkpt lat="46.45431" lon="6.33527">
        <ele>397.16</ele>
        <time>2015-07-22T12:34:05Z</time>
      </trkpt>
      <trkpt lat="46.45472" lon="6.3355">
        <ele>396.68</ele>
        <time>2015-07-22T12:34:13Z</time>
      </trkpt>
      <trkpt lat="46.45538" lon="6.33595">
        <ele>395.72</ele>
        <time>2015-07-22T12:34:25Z</time>
      </trkpt>
      <trkpt lat="46.4557" lon="6.33615">
        <ele>395.24</ele>
        <time>2015-07-22T12:34:31Z</time>
      </trkpt>
      <trkpt lat="46.45599" lon="6.33636">
        <ele>394.28</ele>
        <time>2015-07-22T12:34:37Z</time>
      </trkpt>
      <trkpt lat="46.45624" lon="6.33658">
        <ele>393.8</ele>
        <time>2015-07-22T12:34:44Z</time>
      </trkpt>
      <trkpt lat="46.45671" lon="6.33708">
        <ele>392.36</ele>
        <time>2015-07-22T12:34:57Z</time>
      </trkpt>
      <trkpt lat="46.4572" lon="6.33759">
        <ele>391.39</ele>
        <time>2015-07-22T12:35:09Z</time>
      </trkpt>
      <trkpt lat="46.45768" lon="6.33818">
        <ele>391.87</ele>
        <time>2015-07-22T12:35:23Z</time>
      </trkpt>
      <trkpt lat="46.45802" lon="6.3385">
        <ele>392.36</ele>
        <time>2015-07-22T12:35:36Z</time>
      </trkpt>
      <trkpt lat="46.45801" lon="6.3385">
        <ele>391.87</ele>
        <time>2015-07-22T12:35:37Z</time>
      </trkpt>
      <trkpt lat="46.45796" lon="6.33847">
        <ele>392.36</ele>
        <time>2015-07-22T12:35:47Z</time>
      </trkpt>
      <trkpt lat="46.45796" lon="6.33849">
        <ele>391.87</ele>
        <time>2015-07-22T12:35:50Z</time>
      </trkpt>
      <trkpt lat="46.45774" lon="6.33874">
        <ele>391.39</ele>
        <time>2015-07-22T12:35:54Z</time>
      </trkpt>
      <trkpt lat="46.45747" lon="6.33905">
        <ele>391.39</ele>
        <time>2015-07-22T12:35:59Z</time>
      </trkpt>
      <trkpt lat="46.45733" lon="6.33924">
        <ele>390.91</ele>
        <time>2015-07-22T12:36:03Z</time>
      </trkpt>
      <trkpt lat="46.45747" lon="6.33959">
        <ele>390.43</ele>
        <time>2015-07-22T12:36:12Z</time>
      </trkpt>
      <trkpt lat="46.45774" lon="6.33995">
        <ele>390.91</ele>
        <time>2015-07-22T12:36:23Z</time>
      </trkpt>
      <trkpt lat="46.45783" lon="6.34017">
        <ele>390.91</ele>
        <time>2015-07-22T12:36:33Z</time>
      </trkpt>
      <trkpt lat="46.45783" lon="6.34017">
        <ele>390.43</ele>
        <time>2015-07-22T12:36:54Z</time>
      </trkpt>
      <trkpt lat="46.45789" lon="6.34028">
        <ele>390.43</ele>
        <time>2015-07-22T12:36:59Z</time>
      </trkpt>
      <trkpt lat="46.45805" lon="6.3406">
        <ele>390.43</ele>
        <time>2015-07-22T12:37:07Z</time>
      </trkpt>
      <trkpt lat="46.45823" lon="6.34092">
        <ele>390.91</ele>
        <time>2015-07-22T12:37:15Z</time>
      </trkpt>
      <trkpt lat="46.45827" lon="6.34097">
        <ele>390.91</ele>
        <time>2015-07-22T12:37:25Z</time>
      </trkpt>
      <trkpt lat="46.4583" lon="6.34096">
        <ele>390.91</ele>
        <time>2015-07-22T12:37:29Z</time>
      </trkpt>
      <trkpt lat="46.45841" lon="6.34092">
        <ele>391.39</ele>
        <time>2015-07-22T12:37:43Z</time>
      </trkpt>
      <trkpt lat="46.45843" lon="6.34093">
        <ele>391.39</ele>
        <time>2015-07-22T12:37:45Z</time>
      </trkpt>
      <trkpt lat="46.45865" lon="6.3409">
        <ele>391.87</ele>
        <time>2015-07-22T12:38:02Z</time>
      </trkpt>
      <trkpt lat="46.45868" lon="6.34087">
        <ele>391.87</ele>
        <time>2015-07-22T12:38:05Z</time>
      </trkpt>
      <trkpt lat="46.45869" lon="6.34078">
        <ele>391.87</ele>
        <time>2015-07-22T12:38:22Z</time>
      </trkpt>
      <trkpt lat="46.45869" lon="6.34074">
        <ele>391.87</ele>
        <time>2015-07-22T12:38:25Z</time>
      </trkpt>
      <trkpt lat="46.4588" lon="6.34039">
        <ele>392.84</ele>
        <time>2015-07-22T12:38:39Z</time>
      </trkpt>
      <trkpt lat="46.45902" lon="6.34009">
        <ele>393.32</ele>
        <time>2015-07-22T12:38:52Z</time>
      </trkpt>
      <trkpt lat="46.45906" lon="6.34002">
        <ele>393.8</ele>
        <time>2015-07-22T12:39:01Z</time>
      </trkpt>
      <trkpt lat="46.45908" lon="6.34007">
        <ele>393.8</ele>
        <time>2015-07-22T12:39:14Z</time>
      </trkpt>
      <trkpt lat="46.4591" lon="6.34004">
        <ele>393.32</ele>
        <time>2015-07-22T12:39:21Z</time>
      </trkpt>
      <trkpt lat="46.4591" lon="6.34001">
        <ele>393.32</ele>
        <time>2015-07-22T12:39:23Z</time>
      </trkpt>
      <trkpt lat="46.45918" lon="6.33992">
        <ele>392.84</ele>
        <time>2015-07-22T12:39:34Z</time>
      </trkpt>
      <trkpt lat="46.45947" lon="6.34019">
        <ele>393.8</ele>
        <time>2015-07-22T12:39:45Z</time>
      </trkpt>
      <trkpt lat="46.45965" lon="6.34041">
        <ele>393.8</ele>
        <time>2015-07-22T12:39:50Z</time>
      </trkpt>
      <trkpt lat="46.45986" lon="6.34068">
        <ele>394.28</ele>
        <time>2015-07-22T12:39:56Z</time>
      </trkpt>
      <trkpt lat="46.46014" lon="6.341">
        <ele>394.28</ele>
        <time>2015-07-22T12:40:05Z</time>
      </trkpt>
      <trkpt lat="46.46027" lon="6.34116">
        <ele>394.76</ele>
        <time>2015-07-22T12:40:09Z</time>
      </trkpt>
      <trkpt lat="46.46034" lon="6.34125">
        <ele>394.76</ele>
        <time>2015-07-22T12:40:17Z</time>
      </trkpt>
      <trkpt lat="46.46041" lon="6.34128">
        <ele>394.76</ele>
        <time>2015-07-22T12:40:27Z</time>
      </trkpt>
      <trkpt lat="46.46066" lon="6.34158">
        <ele>395.72</ele>
        <time>2015-07-22T12:40:38Z</time>
      </trkpt>
      <trkpt lat="46.46085" lon="6.34189">
        <ele>396.2</ele>
        <time>2015-07-22T12:40:48Z</time>
      </trkpt>
      <trkpt lat="46.46087" lon="6.34197">
        <ele>396.2</ele>
        <time>2015-07-22T12:40:50Z</time>
      </trkpt>
      <trkpt lat="46.46096" lon="6.34203">
        <ele>396.2</ele>
        <time>2015-07-22T12:40:53Z</time>
      </trkpt>
      <trkpt lat="46.46148" lon="6.3426">
        <ele>395.24</ele>
        <time>2015-07-22T12:41:06Z</time>
      </trkpt>
      <trkpt lat="46.4622" lon="6.34349">
        <ele>393.32</ele>
        <time>2015-07-22T12:41:20Z</time>
      </trkpt>
      <trkpt lat="46.46246" lon="6.34413">
        <ele>392.84</ele>
        <time>2015-07-22T12:41:27Z</time>
      </trkpt>
      <trkpt lat="46.46261" lon="6.34554">
        <ele>393.32</ele>
        <time>2015-07-22T12:41:42Z</time>
      </trkpt>
      <trkpt lat="46.46264" lon="6.34586">
        <ele>393.32</ele>
        <time>2015-07-22T12:41:46Z</time>
      </trkpt>
      <trkpt lat="46.46244" lon="6.34601">
        <ele>392.36</ele>
        <time>2015-07-22T12:41:52Z</time>
      </trkpt>
      <trkpt lat="46.46185" lon="6.34614">
        <ele>389.95</ele>
        <time>2015-07-22T12:42:04Z</time>
      </trkpt>
      <trkpt lat="46.46163" lon="6.34625">
        <ele>389.47</ele>
        <time>2015-07-22T12:42:11Z</time>
      </trkpt>
      <trkpt lat="46.46153" lon="6.34649">
        <ele>389.95</ele>
        <time>2015-07-22T12:42:22Z</time>
      </trkpt>
      <trkpt lat="46.46152" lon="6.34649">
        <ele>389.95</ele>
        <time>2015-07-22T12:42:37Z</time>
      </trkpt>
    </trkseg>
  </trk>
</gpx>